[[{"header":{"parameterUnit":"m.s-1","parameterCategory":1,"la1":30.6,"la2":28.766,"lo1":-90.7593,"lo2":-88.6598,"dx":0.0162,"dy":0.0183,"nx":116,"ny":114,"refTime":"2022-11-14T18:00:00:Z","depth":0,"parameterNumber":2,"parameterNumberName":"U-component_of_WINDS"},"data":[0.0,0.0,0.0,0.0,0.0,0.0,0.0,0.0,0.0,0.0,0.0,0.0,0.0,0.0,0.0,0.0,0.0,0.0,0.0,0.0,0.0,0.0,0.0,0.0,0.0,0.0,0.0,0.0,0.0,0.0,0.0,0.0,0.0,0.0,0.0,0.0,0.0,0.0,0.0,0.0,0.0,0.0,0.0,0.0,0.0,0.0,0.0,0.0,0.0,0.0,0.0,0.0,0.0,0.0,0.0,0.0,0.0,0.0,0.0,0.0,0.0,0.0,0.0,0.0,0.0,0.0,0.0,0.0,0.0,0.0,0.0,0.0,0.0,0.0,0.0,0.0,0.0,0.0,0.0,0.0,0.0,0.0,0.0,0.0,0.0,0.0,0.0,0.0,0.0,0.0,0.0,0.0,0.0,0.0,0.0,0.0,0.0,0.0,0.0,0.0,0.0,0.0,0.0,0.0,0.0,0.0,0.0,0.0,0.0,0.0,0.0,0.0,0.0,0.0,0.0,0.0,0.0,0.0,0.0,0.0,0.0,0.0,0.0,0.0,0.0,0.0,0.0,0.0,0.0,0.0,0.0,0.0,0.0,0.0,0.0,0.0,0.0,0.0,0.0,0.0,0.0,0.0,0.0,0.0,0.0,0.0,0.0,0.0,0.0,0.0,0.0,0.0,0.0,0.0,0.0,0.0,0.0,0.0,0.0,0.0,0.0,0.0,0.0,0.0,0.0,0.0,0.0,0.0,0.0,0.0,0.0,0.0,0.0,0.0,0.0,0.0,0.0,0.0,0.0,0.0,0.0,0.0,0.0,0.0,0.0,0.0,0.0,0.0,0.0,0.0,0.0,0.0,0.0,0.0,0.0,0.0,0.0,0.0,0.0,0.0,0.0,0.0,0.0,0.0,0.0,0.0,0.0,0.0,0.0,0.0,0.0,0.0,0.0,0.0,0.0,0.0,0.0,0.0,0.0,0.0,0.0,0.0,0.0,0.0,0.0,0.0,0.0,0.0,0.0,0.0,0.0,0.0,0.0,0.0,0.0,0.0,0.0,0.0,0.0,0.0,0.0,0.0,0.0,0.0,0.0,0.0,0.0,0.0,0.0,0.0,0.0,0.0,0.0,0.0,0.0,0.0,0.0,0.0,0.0,0.0,0.0,0.0,0.0,0.0,0.0,0.0,0.0,0.0,0.0,0.0,0.0,0.0,0.0,0.0,0.0,0.0,0.0,0.0,0.0,0.0,0.0,0.0,0.0,0.0,0.0,0.0,0.0,0.0,0.0,0.0,0.0,0.0,0.0,0.0,0.0,0.0,0.0,0.0,0.0,0.0,0.0,0.0,0.0,0.0,0.0,0.0,0.0,0.0,0.0,0.0,0.0,0.0,0.0,0.0,0.0,0.0,0.0,0.0,0.0,0.0,0.0,0.0,0.0,0.0,0.0,0.0,0.0,0.0,0.0,0.0,0.0,0.0,0.0,0.0,0.0,0.0,0.0,0.0,0.0,0.0,0.0,0.0,0.0,0.0,0.0,0.0,0.0,0.0,0.0,0.0,0.0,0.0,0.0,0.0,0.0,0.0,0.0,0.0,0.0,0.0,0.0,0.0,0.0,0.0,0.0,0.0,0.0,0.0,0.0,0.0,0.0,0.0,0.0,0.0,0.0,0.0,0.0,0.0,0.0,0.0,0.0,0.0,0.0,0.0,0.0,0.0,0.0,0.0,0.0,0.0,0.0,0.0,0.0,0.0,0.0,0.0,0.0,0.0,0.0,0.0,0.0,0.0,0.0,0.0,0.0,0.0,0.0,0.0,0.0,0.0,0.0,0.0,0.0,0.0,0.0,0.0,0.0,0.0,0.0,0.0,0.0,0.0,0.0,0.0,0.0,0.0,0.0,0.0,0.0,0.0,0.0,0.0,0.0,0.0,0.0,0.0,0.0,0.0,0.0,0.0,0.0,0.0,0.0,0.0,0.0,0.0,0.0,0.0,0.0,0.0,0.0,0.0,0.0,0.0,0.0,0.0,0.0,0.0,0.0,0.0,0.0,0.0,0.0,0.0,0.0,0.0,0.0,0.0,0.0,0.0,0.0,0.0,0.0,0.0,0.0,0.0,0.0,0.0,0.0,0.0,0.0,0.0,0.0,0.0,0.0,0.0,0.0,0.0,0.0,0.0,0.0,0.0,0.0,0.0,0.0,0.0,0.0,0.0,0.0,0.0,0.0,0.0,0.0,0.0,0.0,0.0,0.0,0.0,0.0,0.0,0.0,0.0,0.0,0.0,0.0,0.0,0.0,0.0,0.0,0.0,0.0,0.0,0.0,0.0,0.0,0.0,0.0,0.0,0.0,0.0,0.0,0.0,0.0,0.0,0.0,0.0,0.0,0.0,0.0,0.0,0.0,0.0,0.0,0.0,0.0,0.0,0.0,0.0,0.0,0.0,0.0,0.0,0.0,0.0,0.0,0.0,0.0,0.0,0.0,0.0,0.0,0.0,0.0,0.0,0.0,0.0,0.0,0.0,0.0,0.0,0.0,0.0,0.0,0.0,0.0,0.0,0.0,0.0,0.0,0.0,0.0,0.0,0.0,0.0,0.0,0.0,0.0,0.0,0.0,0.0,0.0,0.0,0.0,0.0,0.0,0.0,0.0,0.0,0.0,0.0,0.0,0.0,0.0,0.0,0.0,0.0,0.0,0.0,0.0,0.0,0.0,0.0,0.0,0.0,0.0,0.0,0.0,0.0,0.0,0.0,0.0,0.0,0.0,0.0,0.0,0.0,0.0,0.0,0.0,0.0,0.0,0.0,0.0,0.0,0.0,0.0,0.0,0.0,0.0,0.0,0.0,0.0,0.0,0.0,0.0,0.0,0.0,0.0,0.0,0.0,0.0,0.0,0.0,0.0,0.0,0.0,0.0,0.0,0.0,0.0,0.0,0.0,0.0,0.0,0.0,0.0,0.0,0.0,0.0,0.0,0.0,0.0,0.0,0.0,0.0,0.0,0.0,0.0,0.0,0.0,0.0,0.0,0.0,0.0,0.0,0.0,0.0,0.0,0.0,0.0,0.0,0.0,0.0,0.0,0.0,0.0,0.0,0.0,0.0,0.0,0.0,0.0,0.0,0.0,0.0,0.0,0.0,0.0,0.0,0.0,0.0,0.0,0.0,0.0,0.0,0.0,0.0,0.0,0.0,0.0,0.0,0.0,0.0,0.0,0.0,0.0,0.0,0.0,0.0,0.0,0.0,0.0,0.0,0.0,0.0,0.0,0.0,0.0,0.0,0.0,0.0,0.0,0.0,0.0,0.0,0.0,0.0,0.0,0.0,0.0,0.0,0.0,0.0,0.0,0.0,0.0,0.0,0.0,0.0,0.0,0.0,0.0,0.0,0.0,0.0,0.0,0.0,0.0,0.0,0.0,0.0,0.0,0.0,0.0,0.0,0.0,0.0,0.0,0.0,0.0,0.0,0.0,0.0,0.0,0.0,0.0,0.0,0.0,0.0,0.0,0.0,0.0,0.0,0.0,0.0,0.0,0.0,0.0,0.0,0.0,0.0,0.0,0.0,0.0,0.0,0.0,0.0,0.0,0.0,0.0,0.0,0.0,0.0,0.0,0.0,0.0,0.0,0.0,0.0,0.0,0.0,0.0,0.0,0.0,0.0,0.0,0.0,0.0,0.0,0.0,0.0,0.0,0.0,0.0,0.0,0.0,0.0,0.0,0.0,0.0,0.0,0.0,0.0,0.0,0.0,0.0,0.0,0.0,0.0,0.0,0.0,0.0,0.0,0.0,0.0,0.0,0.0,0.0,0.0,0.0,0.0,0.0,0.0,0.0,0.0,0.0,0.0,0.0,0.0,0.0,0.0,0.0,0.0,0.0,0.0,0.0,0.0,0.0,0.0,0.0,0.0,0.0,0.0,0.0,0.0,0.0,0.0,0.0,0.0,0.0,0.0,0.0,0.0,0.0,0.0,0.0,0.0,0.0,0.0,0.0,0.0,0.0,0.0,0.0,0.0,0.0,0.0,0.0,0.0,0.0,0.0,0.0,0.0,0.0,0.0,0.0,0.0,0.0,0.0,0.0,0.0,0.0,0.0,0.0,0.0,0.0,0.0,0.0,0.0,0.0,0.0,0.0,0.0,0.0,0.0,0.0,0.0,0.0,0.0,0.0,0.0,0.0,0.0,0.0,0.0,0.0,0.0,0.0,0.0,0.0,0.0,0.0,0.0,0.0,0.0,0.0,0.0,0.0,0.0,0.0,0.0,0.0,0.0,0.0,0.0,0.0,0.0,0.0,0.0,0.0,0.0,0.0,0.0,0.0,0.0,0.0,0.0,0.0,0.0,0.0,0.0,0.0,0.0,0.0,0.0,0.0,0.0,0.0,0.0,0.0,0.0,0.0,0.0,0.0,0.0,0.0,0.0,0.0,0.0,0.0,0.0,0.0,0.0,0.0,0.0,0.0,0.0,0.0,0.0,0.0,0.0,0.0,0.0,0.0,0.0,0.0,0.0,0.0,0.0,0.0,0.0,0.0,0.0,0.0,0.0,0.0,0.0,0.0,0.0,0.0,0.0,0.0,0.0,0.0,0.0,0.0,0.0,0.0,0.0,0.0,0.0,0.0,0.0,0.0,0.0,0.0,0.0,0.0,0.0,0.0,0.0,0.0,0.0,0.0,0.0,0.0,0.0,0.0,0.0,0.0,0.0,0.0,0.0,0.0,0.0,0.0,0.0,0.0,0.0,0.0,0.0,0.0,0.0,0.0,0.0,0.0,0.0,0.0,0.0,0.0,0.0,0.0,0.0,0.0,0.0,0.0,0.0,0.0,0.0,0.0,0.0,0.0,0.0,0.0,0.0,0.0,0.0,0.0,0.0,0.0,0.0,0.0,0.0,0.0,0.0,0.0,0.0,0.0,0.0,0.0,0.0,0.0,0.0,0.0,0.0,0.0,0.0,0.0,0.0,0.0,0.0,0.0,0.0,0.0,0.0,0.0,0.0,0.0,0.0,0.0,0.0,0.0,0.0,0.0,0.0,0.0,0.0,0.0,0.0,0.0,0.0,0.0,0.0,0.0,0.0,0.0,0.0,0.0,0.0,0.0,0.0,0.0,0.0,0.0,0.0,0.0,0.0,0.0,0.0,0.0,0.0,0.0,0.0,0.0,0.0,0.0,0.0,0.0,0.0,0.0,0.0,0.0,0.0,0.0,0.0,0.0,0.0,0.0,0.0,0.0,0.0,0.0,0.0,0.0,0.0,0.0,0.0,0.0,0.0,0.0,0.0,0.0,0.0,0.0,0.0,0.0,0.0,0.0,0.0,0.0,0.0,0.0,0.0,0.0,0.0,0.0,0.0,0.0,0.0,0.0,0.0,0.0,0.0,0.0,0.0,0.0,0.0,0.0,0.0,0.0,0.0,0.0,0.0,0.0,0.0,0.0,0.0,0.0,0.0,0.0,0.0,0.0,0.0,0.0,0.0,0.0,0.0,0.0,0.0,0.0,0.0,0.0,0.0,0.0,0.0,0.0,0.0,0.0,0.0,0.0,0.0,0.0,0.0,0.0,0.0,0.0,0.0,0.0,0.0,0.0,0.0,0.0,0.0,0.0,0.0,0.0,0.0,0.0,0.0,0.0,0.0,0.0,0.0,0.0,0.0,0.0,0.0,0.0,0.0,0.0,0.0,0.0,0.0,0.0,0.0,0.0,0.0,0.0,0.0,0.0,0.0,0.0,0.0,0.0,0.0,0.0,0.0,0.0,0.0,0.0,0.0,0.0,0.0,0.0,0.0,0.0,0.0,0.0,0.0,0.0,0.0,0.0,0.0,0.0,0.0,0.0,0.0,0.0,0.0,0.0,0.0,0.0,0.0,0.0,0.0,0.0,0.0,0.0,0.0,0.0,0.0,0.0,0.0,0.0,0.0,0.0,0.0,0.0,0.0,0.0,0.0,0.0,0.0,0.0,0.0,0.0,0.0,0.0,0.0,0.0,0.0,0.0,0.0,0.0,0.0,0.0,0.0,0.0,0.0,0.0,0.0,0.0,0.0,0.0,0.0,0.0,0.0,0.0,0.0,0.0,0.0,0.0,0.0,0.0,0.0,0.0,0.0,0.0,0.0,0.0,5.7742,0.0,0.0,0.0,0.0,0.0,0.0,0.0,0.0,0.0,0.0,0.0,0.0,0.0,0.0,0.0,0.0,0.0,0.0,0.0,0.0,0.0,0.0,0.0,0.0,3.744,3.8131,3.8608,3.8984,0.0,0.0,0.0,0.0,0.0,0.0,0.0,3.6699,3.7507,3.8777,4.0431,4.2533,4.5488,4.918,4.8337,4.6397,4.3589,0.0,0.0,0.0,0.0,0.0,0.0,0.0,0.0,0.0,0.0,0.0,0.0,0.0,0.0,0.0,0.0,0.0,0.0,0.0,0.0,0.0,0.0,0.0,0.0,0.0,0.0,0.0,0.0,0.0,0.0,0.0,0.0,0.0,0.0,0.0,0.0,0.0,0.0,0.0,0.0,0.0,0.0,0.0,0.0,0.0,0.0,0.0,0.0,0.0,0.0,0.0,0.0,0.0,0.0,0.0,0.0,0.0,0.0,0.0,0.0,0.0,0.0,0.0,0.0,0.0,0.0,0.0,0.0,0.0,0.0,0.0,5.9742,0.0,0.0,0.0,0.0,0.0,0.0,0.0,0.0,0.0,0.0,0.0,0.0,0.0,0.0,0.0,0.0,0.0,0.0,0.0,0.0,0.0,3.7108,3.7531,3.9031,4.0076,4.0372,4.1014,4.1046,4.0207,3.9915,0.0,0.0,0.0,0.0,3.8214,3.9369,4.127,4.3965,4.761,5.2095,5.74,5.8428,5.6321,5.1563,4.8662,0.0,0.0,0.0,0.0,0.0,0.0,0.0,0.0,0.0,0.0,0.0,0.0,0.0,0.0,0.0,0.0,0.0,0.0,0.0,0.0,0.0,0.0,0.0,0.0,0.0,0.0,0.0,0.0,0.0,0.0,0.0,0.0,0.0,0.0,0.0,0.0,0.0,0.0,0.0,0.0,0.0,0.0,0.0,0.0,0.0,0.0,0.0,0.0,0.0,0.0,0.0,0.0,0.0,0.0,0.0,0.0,0.0,0.0,0.0,0.0,0.0,0.0,0.0,6.9475,7.0744,7.2245,7.2976,7.3283,7.3014,6.809,6.4666,6.2474,6.1473,0.0,0.0,0.0,0.0,0.0,0.0,0.0,0.0,0.0,0.0,0.0,0.0,0.0,0.0,0.0,0.0,0.0,0.0,0.0,3.8661,4.0893,4.2008,4.3201,4.4645,4.485,4.4542,4.3705,4.2294,0.0,0.0,0.0,3.8354,3.909,4.1407,4.4191,4.7426,5.5306,6.0691,6.3631,6.4695,6.5164,6.4817,5.7077,5.2729,5.1114,0.0,0.0,0.0,0.0,0.0,0.0,0.0,0.0,0.0,0.0,0.0,0.0,0.0,0.0,0.0,0.0,0.0,0.0,0.0,0.0,0.0,0.0,0.0,0.0,0.0,0.0,0.0,0.0,0.0,0.0,0.0,0.0,0.0,0.0,0.0,0.0,0.0,0.0,0.0,0.0,0.0,5.6203,5.6319,0.0,0.0,0.0,0.0,0.0,0.0,0.0,0.0,0.0,0.0,0.0,0.0,0.0,6.6397,6.7398,7.0552,7.2668,7.3707,7.5361,7.6592,7.7476,7.763,7.7669,7.763,7.6823,0.0,6.9436,6.7859,0.0,0.0,0.0,0.0,0.0,0.0,0.0,0.0,0.0,0.0,0.0,0.0,0.0,0.0,0.0,0.0,0.0,0.0,0.0,0.0,0.0,4.5547,4.7317,4.9009,4.9584,4.9083,4.7278,4.6005,0.0,0.0,4.1508,4.1485,4.2819,4.5333,4.993,5.6643,6.2394,6.6797,6.9817,7.0384,7.0908,7.1186,6.6974,6.2774,5.8686,5.5186,0.0,0.0,0.0,0.0,0.0,0.0,0.0,0.0,0.0,0.0,0.0,0.0,0.0,0.0,0.0,0.0,0.0,0.0,0.0,0.0,0.0,0.0,0.0,0.0,0.0,0.0,0.0,0.0,0.0,0.0,0.0,0.0,0.0,0.0,0.0,0.0,0.0,0.0,0.0,5.778,5.9858,5.9858,5.9088,5.805,0.0,0.0,0.0,0.0,0.0,0.0,0.0,0.0,0.0,6.6974,6.986,7.1783,7.2668,7.5592,7.7707,7.8977,8.0246,8.1516,8.2785,8.2785,8.2785,8.2785,8.2785,8.1246,7.84,7.3822,7.0206,6.7398,0.0,0.0,0.0,0.0,6.559,6.7282,0.0,0.0,0.0,0.0,0.0,0.0,0.0,0.0,0.0,0.0,0.0,0.0,4.6894,4.9663,5.201,5.3703,5.4438,5.3841,5.153,4.9969,4.8099,4.5736,4.4619,4.4845,4.6529,5.0583,5.6696,6.4948,6.8458,7.1757,7.4731,7.5166,7.5411,7.5507,7.4796,7.1207,6.5504,6.1646,5.8897,5.6666,0.0,0.0,0.0,0.0,0.0,0.0,0.0,0.0,0.0,0.0,0.0,0.0,0.0,0.0,0.0,0.0,0.0,0.0,0.0,0.0,0.0,0.0,0.0,0.0,0.0,0.0,0.0,0.0,0.0,0.0,0.0,0.0,0.0,0.0,0.0,0.0,0.0,6.1127,6.2897,6.332,6.2627,6.1512,0.0,0.0,0.0,0.0,0.0,0.0,6.7013,6.859,7.036,7.2476,7.5207,7.7053,7.7938,8.0477,8.2362,8.3632,8.4478,8.5555,8.6786,8.6786,8.6786,8.6786,8.6786,8.644,8.5401,7.9208,7.5284,7.3014,7.1321,6.9783,6.8667,7.0129,7.1591,7.3129,0.0,0.0,0.0,0.0,0.0,0.0,0.0,0.0,0.0,0.0,0.0,4.7894,5.1241,5.4587,5.728,5.8973,5.9216,5.8543,5.6823,5.3706,5.112,4.9311,4.7615,4.751,4.9173,5.7302,6.4168,6.9475,7.3053,7.5697,7.7497,7.8528,7.9057,7.9104,7.8433,7.5227,7.0113,6.7453,6.4916,6.2145,5.69,0.0,0.0,0.0,0.0,0.0,0.0,0.0,0.0,0.0,0.0,0.0,0.0,0.0,0.0,0.0,0.0,0.0,0.0,0.0,0.0,0.0,0.0,0.0,0.0,0.0,0.0,0.0,0.0,0.0,0.0,0.0,0.0,0.0,0.0,0.0,0.0,0.0,0.0,6.6667,6.6128,0.0,0.0,0.0,0.0,6.5513,6.7859,6.9667,7.0591,7.3783,7.5976,7.6938,8.0169,8.2324,8.3208,8.5747,8.7055,8.7132,8.8017,8.8479,8.8556,8.8556,8.8556,8.8556,8.8556,8.8556,8.8171,8.3747,8.09,7.9208,7.7515,7.6284,7.5592,7.6515,7.74,7.8477,0.0,0.0,0.0,3.1352,3.2391,3.3699,3.4853,3.693,3.9585,4.297,4.6855,5.1048,5.5549,5.905,6.1973,6.4205,6.4431,6.3531,6.1289,5.8546,5.573,5.291,5.164,5.3065,5.7495,6.3839,6.9066,7.306,7.607,7.849,8.0329,8.1325,8.1852,8.196,8.1165,7.9522,7.7029,7.2762,6.98,6.7494,6.2295,5.803,0.0,0.0,0.0,0.0,0.0,0.0,0.0,0.0,0.0,0.0,0.0,0.0,0.0,0.0,0.0,0.0,0.0,0.0,0.0,0.0,0.0,0.0,0.0,0.0,0.0,0.0,0.0,0.0,0.0,0.0,0.0,0.0,0.0,0.0,0.0,0.0,0.0,7.0129,6.9629,0.0,6.9475,6.8975,6.9244,7.0667,7.2629,7.4361,7.5707,7.8015,7.99,8.1285,8.3555,8.517,8.6055,8.7478,8.8479,8.9017,8.9325,8.9787,9.0325,9.0325,9.0325,9.0325,9.0325,9.0325,9.0133,8.8055,8.5863,8.3708,8.2016,8.0823,8.0169,8.1016,8.19,8.2901,0.0,0.0,0.0,3.2199,3.3506,3.493,3.5776,3.8584,4.1777,4.5124,4.9817,5.4664,5.9473,6.3281,6.6359,6.8629,6.8924,6.787,6.5317,6.2871,6.0056,5.6905,5.6734,5.9223,6.4577,6.9246,7.3278,7.6722,7.9447,8.1579,8.3109,8.4124,8.4468,8.4239,8.3756,8.3086,8.2051,7.8358,7.5117,7.2031,6.7461,6.3202,5.9215,0.0,0.0,0.0,0.0,0.0,0.0,0.0,0.0,0.0,0.0,0.0,0.0,0.0,0.0,0.0,0.0,0.0,0.0,0.0,0.0,0.0,0.0,0.0,0.0,0.0,0.0,0.0,0.0,0.0,0.0,0.0,0.0,0.0,0.0,0.0,7.0744,7.3591,7.3399,7.3399,7.4245,7.4053,7.4399,7.5553,7.7169,7.8592,7.9708,8.1708,8.3285,8.4401,8.6363,8.7671,8.8248,8.9094,8.9825,9.0364,9.0364,9.0633,9.121,9.121,9.121,9.121,9.121,9.121,9.1171,9.0594,8.9363,8.7671,8.5978,8.4978,8.4516,8.5093,8.567,8.6363,0.0,0.0,3.2968,3.2968,3.4391,3.5815,3.6622,4.0354,4.4316,4.774,5.3356,5.8665,6.2974,6.7205,7.0437,7.2129,7.2418,7.1428,6.8872,6.6466,6.3961,6.1331,6.2789,6.5639,6.991,7.3514,7.7004,8.042,8.3232,8.5049,8.5936,8.694,8.6978,8.6158,8.6204,8.5765,8.4922,8.4062,8.0742,7.5859,7.2344,6.8867,6.5351,0.0,0.0,0.0,0.0,0.0,0.0,0.0,0.0,0.0,0.0,0.0,0.0,0.0,0.0,0.0,0.0,0.0,0.0,0.0,0.0,0.0,0.0,0.0,0.0,0.0,0.0,0.0,0.0,0.0,0.0,0.0,0.0,0.0,6.9744,7.1283,7.363,7.7053,7.7438,7.7784,7.8631,7.9477,7.9977,7.9977,8.1516,8.2439,8.2401,8.4824,8.617,8.617,8.8594,8.9902,8.994,9.0787,9.121,9.121,9.121,9.121,9.121,9.121,9.121,9.121,9.121,9.121,9.121,9.121,9.121,9.1056,8.9363,8.8748,8.8748,8.8748,8.8748,8.8902,3.4314,3.4507,3.4584,3.393,3.5238,3.6661,3.7507,4.0739,4.4778,4.9394,5.4626,6.0012,6.5474,6.9321,7.2168,7.386,7.4087,7.3316,7.1409,6.9548,6.7879,6.6568,6.8052,7.0658,7.4422,7.7396,8.0322,8.3204,8.5325,8.719,8.8772,8.968,9.0035,8.9801,8.9215,8.8123,8.6719,8.5859,8.3945,8.1172,7.7734,7.3906,6.9922,0.0,0.0,0.0,0.0,0.0,0.0,0.0,0.0,0.0,0.0,0.0,0.0,0.0,0.0,0.0,0.0,0.0,0.0,0.0,0.0,0.0,0.0,0.0,0.0,0.0,0.0,0.0,0.0,0.0,0.0,0.0,0.0,7.3053,7.3283,7.4822,7.713,8.0516,8.0939,8.1516,8.3016,8.3362,8.3747,8.4324,8.5363,8.5709,8.5093,8.6901,8.7979,8.7979,8.9248,9.021,9.0825,9.1095,9.121,9.121,9.121,9.121,9.121,9.121,9.121,9.121,9.121,9.121,9.121,9.121,9.121,9.1095,9.0017,8.9556,8.9556,8.9556,8.9979,9.0556,3.4853,3.543,3.5853,3.5353,3.6661,3.8084,3.8931,4.2277,4.6394,5.1125,5.6511,6.2012,6.759,7.0937,7.3399,7.5091,7.5292,7.4637,7.2967,7.1621,7.1004,7.1299,7.2931,7.5491,7.9028,8.1407,8.3971,8.6585,8.8462,9.0135,9.1601,9.2461,9.2695,9.2344,9.1484,9.0351,8.9023,8.7773,8.6484,8.5039,8.2656,7.8906,7.4414,7.1445,6.832,6.5234,6.3555,6.207,6.0781,5.992,0.0,0.0,0.0,0.0,0.0,0.0,0.0,0.0,0.0,0.0,0.0,0.0,0.0,0.0,0.0,0.0,0.0,0.0,0.0,0.0,0.0,0.0,0.0,0.0,7.4322,7.7361,7.8784,7.9515,8.09,8.3593,8.4209,8.4978,8.6363,8.6478,8.6671,8.7132,8.7671,8.7709,8.7209,8.8479,8.921,8.921,9.0017,9.071,9.121,9.121,9.121,9.121,9.121,9.121,9.121,9.121,9.121,9.121,9.121,9.121,9.121,9.121,9.121,0.0,0.0,0.0,0.0,0.0,9.0787,9.121,3.5661,3.6199,3.6738,3.6853,3.82,3.9546,4.0354,4.4124,4.8471,5.2779,5.8473,6.4051,6.9129,7.1898,7.4014,7.5592,7.587,7.5369,7.3957,7.3322,7.3735,7.5505,7.7486,8.0097,8.3382,8.5349,8.7572,9.0093,9.1796,9.3185,9.4219,9.4961,9.4922,9.414,9.3281,9.2344,9.1328,8.9687,8.8476,8.7578,8.6679,8.3437,7.8711,7.543,7.3086,7.1367,6.9687,6.8515,6.7617,6.664,0.0,0.0,0.0,0.0,0.0,0.0,0.0,0.0,0.0,0.0,0.0,0.0,0.0,0.0,0.0,0.0,0.0,0.0,0.0,0.0,0.0,0.0,0.0,0.0,7.8092,8.1477,8.4593,8.4632,8.4824,8.6247,8.7171,8.7979,8.8748,8.8902,8.8979,8.8979,8.8979,8.894,8.8825,0.0,0.0,0.0,0.0,9.121,9.121,9.1287,9.136,9.136,9.1476,9.1514,9.1514,9.1514,9.1514,9.1479,9.1479,9.1479,9.1479,9.1479,9.1479,9.1479,9.1287,9.1248,9.1364,9.1364,9.1402,9.1479,3.6469,3.6584,3.693,3.7623,3.8623,3.9546,4.0354,4.4124,4.8663,5.3587,5.8819,6.4012,6.9129,7.136,7.287,7.388,7.4601,7.5168,7.5592,7.6198,7.7351,7.9198,8.1685,8.4068,8.6265,8.8038,8.9944,9.1991,9.3032,9.4374,9.5937,9.6133,9.6172,9.5976,9.5078,9.3828,9.2265,9.125,8.9883,8.8398,8.7578,8.539,8.2383,8.0312,7.8476,7.6758,7.5039,7.3867,7.2851,7.1289,7.0664,7.0078,6.7607,6.5594,0.0,0.0,0.0,0.0,0.0,0.0,0.0,0.0,0.0,0.0,0.0,0.0,0.0,0.0,0.0,0.0,0.0,0.0,0.0,7.7438,8.1208,8.4362,8.567,8.7478,8.8556,8.8248,8.894,8.9479,8.9671,9.0287,9.071,9.071,9.071,9.0402,8.971,9.0479,9.0633,8.994,9.0748,9.1245,9.1275,9.1968,9.2348,9.2415,0.0,0.0,9.345,9.345,9.3456,9.3354,9.3354,9.332,9.321,9.321,9.321,9.3095,9.1748,9.1633,9.2249,9.2249,9.2672,9.321,3.7276,3.77,3.8123,3.8584,3.9354,4.0315,4.1623,4.4701,4.874,5.3818,5.8572,6.3229,6.7898,6.991,7.1266,7.2131,7.3351,7.4678,7.6015,7.7814,7.9688,8.1569,8.4261,8.6777,8.9096,9.043,9.2209,9.4434,9.4877,9.5781,9.7031,9.707,9.6875,9.6445,9.5586,9.4453,9.3164,9.1875,9.0781,8.9922,8.9101,8.7695,8.5859,8.3281,8.1797,8.082,7.9062,7.8164,7.7539,7.582,7.5234,7.4883,7.2694,7.0764,6.8814,0.0,0.0,0.0,0.0,0.0,0.0,0.0,0.0,0.0,0.0,0.0,0.0,0.0,0.0,7.1552,0.0,0.0,7.9708,8.14,8.4209,8.6594,8.7825,8.9094,8.9748,8.9363,9.0056,9.0556,9.0556,9.0941,9.121,9.121,9.121,9.1018,9.0556,9.0979,9.1018,9.0556,9.1437,9.1929,9.1991,9.2936,9.3454,9.3514,9.3998,9.4191,9.4133,9.4103,9.4049,9.3957,9.3924,9.3817,9.371,9.371,9.371,9.3633,9.2787,9.271,9.3095,9.3095,9.3364,9.371,3.8123,3.8931,3.9508,3.9508,4.0046,4.1085,4.2816,4.5278,4.8663,5.3587,5.7802,6.1805,6.5718,6.7537,6.8932,7.0057,7.1891,7.3909,7.6015,7.8876,8.1391,8.3465,8.6154,8.8823,9.1408,9.2463,9.4103,9.6406,9.6559,9.6992,9.7695,9.7539,9.7109,9.6445,9.539,9.457,9.3789,9.2226,9.1445,9.125,9.0547,8.9726,8.8633,8.5703,8.4375,8.3867,8.2148,8.1523,8.125,7.957,7.9101,7.8945,7.7187,7.5571,7.3771,7.109,6.8465,0.0,0.0,0.0,0.0,0.0,0.0,0.0,0.0,0.0,7.0552,7.2937,7.4899,7.6861,7.9092,8.1554,8.3747,8.517,8.6786,8.8363,8.971,9.0056,9.0171,9.0171,9.0787,9.121,9.121,9.121,9.121,9.121,9.121,9.121,9.1245,9.1399,9.1476,9.151,9.2421,9.2943,9.2999,9.4026,9.4524,9.4602,9.487,9.4923,9.4873,9.4795,9.4684,9.4543,9.442,9.4317,9.4208,9.421,9.421,9.421,9.421,9.421,9.4172,9.4018,9.4057,9.421,3.9123,3.9815,4.0354,4.0354,4.0431,4.1085,4.2816,4.5278,4.8471,5.2779,5.6395,5.9642,6.2375,6.3449,6.4972,6.7321,6.9783,7.2629,7.6053,7.9532,8.2643,8.5375,8.8053,9.0393,9.2304,9.3983,9.5311,9.6405,9.7187,9.7617,9.7695,9.6953,9.6601,9.6445,9.4765,9.3984,9.3828,9.2851,9.1992,9.1289,9.1172,9.0625,8.9726,8.8554,8.7226,8.5664,8.3945,8.332,8.3047,8.1328,8.1211,8.1562,7.9837,7.8606,7.7316,7.4636,7.2432,7.0448,6.8394,6.8289,0.0,6.8821,7.009,7.1591,0.0,0.0,7.563,7.7438,7.9746,8.1785,8.2824,8.5093,8.6901,8.7094,8.8517,8.971,8.9863,9.0556,9.1056,9.1056,9.1133,9.121,9.121,9.121,9.121,9.121,9.121,9.1245,9.1275,9.204,9.2492,9.2612,9.3462,9.4008,9.4227,9.5078,9.56,9.5727,9.6527,9.6877,9.6893,9.6854,9.6718,9.6454,9.6222,9.6124,9.6089,9.6017,9.6019,9.6019,9.6019,9.6019,9.5903,9.5134,9.5326,9.6019,3.9277,3.9931,4.0508,4.0508,4.0508,4.1085,4.2816,4.4393,4.6932,5.1202,5.3857,5.6297,5.8865,6.0311,6.232,6.5394,6.7949,7.1195,7.5284,7.9337,8.2669,8.5013,8.8149,9.0463,9.1758,9.4023,9.5586,9.6445,9.7304,9.7461,9.6992,9.664,9.5976,9.4961,9.4219,9.3633,9.3125,9.2734,9.2383,9.207,9.207,9.1523,9.0664,8.9804,8.8437,8.6719,8.4961,8.4375,0.0,8.2344,8.1992,8.2187,8.1426,8.0595,7.9549,7.7845,7.6023,7.4168,7.2654,7.243,0.0,0.0,7.5361,7.6861,7.7707,7.9208,8.09,8.2593,8.417,8.5517,8.6401,8.7825,8.8863,0.0,8.9863,9.0671,9.0671,9.0979,9.121,9.121,9.121,9.121,9.121,9.121,9.1437,9.1972,9.2011,9.2271,9.2898,9.3276,9.3562,9.3678,9.4589,9.5156,9.5295,9.6214,9.6721,9.6832,9.7247,9.7394,9.7355,9.7325,9.7149,9.6837,9.6552,9.6463,9.6394,9.6325,9.6288,9.6288,9.6288,9.6288,9.6249,9.5903,9.598,9.6288,3.9623,4.0085,4.0508,4.0508,4.07,4.1354,4.2854,4.397,4.6009,4.9817,5.1587,5.3395,5.5703,5.7439,5.9639,6.2606,6.5818,6.9502,7.3688,7.8347,8.2003,8.4507,8.7553,8.9961,9.1601,9.3515,9.5039,9.6133,9.6719,9.6719,9.6133,9.5898,9.5117,9.3906,9.3633,9.3047,9.2226,9.2226,9.2109,9.1875,9.1875,9.1484,9.082,8.9726,8.8398,8.6914,8.5156,8.4219,8.3594,8.2109,8.1562,8.16,8.1578,8.1273,8.065,7.9481,7.8043,7.6781,7.6326,0.0,0.0,7.8669,8.0285,8.1785,8.2631,8.3785,8.5055,8.6517,8.7517,8.8286,8.8902,8.971,9.0287,9.0287,9.0787,9.121,9.121,9.1245,9.1245,9.1245,9.1472,9.1587,9.1587,9.1591,9.1937,9.2888,9.2999,9.3329,9.4085,9.4442,9.4667,9.4782,9.5739,9.639,9.6701,9.7455,9.7948,9.8267,9.8324,9.8314,9.8244,9.8157,9.7956,9.7751,9.7432,9.7285,9.7225,9.709,9.7017,9.7017,9.698,9.698,9.698,9.698,9.6711,9.6326,4.0469,4.0469,4.0508,4.0508,4.12,4.2047,4.297,4.4509,4.6488,4.9105,5.0221,5.1414,5.3128,5.4821,5.6533,5.8329,6.3099,6.7525,7.1065,7.625,8.0798,8.4429,8.6455,8.9062,9.25,9.2656,9.3515,9.5234,9.5273,9.5273,9.5234,9.4375,9.3945,9.3867,9.3008,9.2148,9.1328,9.1328,9.0859,9.0078,9.0078,9.0078,8.9844,8.8203,8.7031,8.6015,8.4258,8.2539,8.0976,8.0078,7.9764,7.9795,7.9792,8.0282,8.0545,7.8676,7.7875,7.7898,7.9355,8.0885,8.2285,8.317,8.467,8.6132,8.7017,8.7248,8.7555,8.844,8.9248,8.9825,8.9863,9.0556,9.1171,9.1171,9.1171,9.121,9.121,9.1241,9.1308,9.1308,9.2107,9.2673,0.0,9.2546,9.2861,9.3812,9.3913,9.4064,9.4266,9.518,9.5778,9.6021,9.6877,9.7809,9.8704,9.8821,9.9293,10.0095,10.0205,10.0219,10.0102,9.997,9.9904,9.989,9.9459,9.9317,9.927,9.8962,9.8821,9.8821,9.8749,9.8711,9.8711,9.8711,9.7711,9.6403,4.0508,4.0508,4.0662,4.1277,4.2085,4.2931,4.3778,4.4355,4.547,4.7471,4.8952,0.0,0.0,0.0,0.0,0.0,6.189,6.5961,7.0151,7.478,7.8768,8.1896,8.4302,8.6435,8.8242,9.0,9.1172,9.1758,9.3476,9.4023,9.3476,9.3164,9.2734,9.2148,9.125,9.0703,9.0429,9.0429,9.0273,9.0,9.0,8.9648,8.8945,8.7265,8.5387,8.3226,0.0,7.9683,7.9922,7.8515,7.8045,7.8113,7.866,7.8975,7.9138,7.8837,7.9421,8.0409,8.1407,8.2862,8.4419,8.5844,8.7012,8.8055,8.8863,8.9056,8.9325,9.0171,9.0556,9.0748,9.0748,9.1018,9.1402,9.1979,9.2056,9.2056,9.2056,9.2126,9.2189,9.2216,9.2612,0.0,0.0,0.0,0.0,9.4883,9.4953,9.5303,9.6203,9.6594,9.6935,9.7099,9.7981,9.8614,9.8919,9.9544,9.9992,10.0298,10.0301,10.031,10.031,10.0205,10.0087,9.998,9.9736,9.9526,9.9355,9.9062,9.8931,9.8898,9.8826,9.8788,9.8788,9.8788,9.8442,9.798,4.0893,4.0969,4.1239,4.2124,4.297,0.0,0.0,0.0,0.0,0.0,0.0,0.0,0.0,0.0,0.0,0.0,0.0,6.3729,6.7871,7.2235,7.5914,7.8698,8.141,8.3405,8.4624,8.6928,8.8264,8.8586,9.0578,9.1285,9.0742,9.0742,9.0429,8.9883,8.9336,8.875,8.8203,8.8515,8.8086,8.7265,8.7578,8.6992,8.5781,8.4414,8.2454,0.0,7.6917,7.6505,7.7261,7.6172,7.5819,7.6009,7.713,7.8071,7.8915,7.9792,8.1187,8.2675,8.3734,8.5236,8.68,8.8189,8.9131,8.987,9.0345,9.0461,9.0615,9.1125,9.1245,9.1245,9.121,9.121,9.1479,9.2364,9.2479,9.2595,9.2903,9.3008,9.3142,9.323,9.364,9.4369,0.0,0.0,0.0,9.5941,9.5996,9.6372,9.7238,9.7694,9.7972,9.8084,9.8977,9.9602,9.9937,10.0484,10.0913,10.1187,10.1209,10.1211,10.1211,10.1205,10.1109,10.0985,10.0808,10.061,10.0405,10.011,9.9994,9.9891,9.9749,9.9673,9.9673,9.9673,9.9673,9.9635,4.1662,4.1854,4.2162,0.0,0.0,0.0,0.0,0.0,0.0,0.0,0.0,0.0,0.0,0.0,0.0,0.0,0.0,0.0,6.4397,6.8645,7.2287,7.5038,7.7687,7.9948,8.1702,8.3429,8.4735,8.5598,8.6581,8.7045,8.707,8.7109,8.7109,8.707,8.7109,8.6172,8.4687,8.5547,8.4492,8.2226,8.3125,8.2383,8.0703,7.9844,7.8431,7.6605,7.4028,7.3086,7.3091,7.32,7.3398,7.3866,7.5555,7.777,8.0035,8.1485,8.3136,8.4738,8.6335,8.7952,8.9383,9.0273,9.1047,9.16,9.1552,9.1522,9.1454,9.1264,9.1231,9.1198,0.0,0.0,9.1441,9.2402,9.2556,9.2826,9.3633,9.3962,9.4126,0.0,0.0,0.0,0.0,0.0,0.0,9.6993,0.0,9.7284,9.7455,9.8421,9.8987,9.9048,9.9907,10.0796,10.1601,10.1601,10.2109,10.289,10.289,10.289,10.289,10.289,10.2882,10.2796,10.2685,10.249,10.2399,10.199,10.1819,10.1688,10.1404,10.1289,10.1289,10.1289,10.1289,10.1212,0.0,0.0,0.0,0.0,0.0,0.0,0.0,0.0,0.0,0.0,0.0,0.0,0.0,0.0,0.0,0.0,0.0,0.0,6.1793,6.4907,6.8123,7.1465,7.2874,7.4693,7.7065,7.8232,7.922,8.003,8.2299,8.3146,8.2589,8.3253,8.3229,8.2617,8.1953,8.1445,8.1094,8.1953,8.1562,8.0429,8.1328,8.0273,7.8086,7.7184,7.5382,7.3068,7.1099,7.0387,7.0587,7.1889,7.4447,0.0,0.0,8.0875,8.3436,8.3789,8.5531,8.7539,8.8536,8.9546,9.0508,9.1362,9.168,9.1735,9.1655,9.16,9.1359,9.0628,9.0416,9.035,0.0,0.0,0.0,9.3056,9.3403,0.0,9.4625,9.4949,0.0,9.5299,0.0,9.6215,9.6954,9.7264,0.0,0.0,9.8199,9.8237,9.8494,9.9356,9.9914,9.9957,10.0816,10.1404,10.1601,10.2187,10.2695,10.289,10.289,10.289,10.289,10.289,10.289,10.2884,10.2686,10.2593,10.2417,10.1983,10.1773,10.1688,10.1404,10.1289,10.1289,10.1289,10.1289,10.1289,0.0,0.0,0.0,0.0,0.0,0.0,0.0,0.0,0.0,0.0,0.0,0.0,0.0,0.0,0.0,0.0,0.0,0.0,0.0,6.1888,6.461,6.7363,6.9399,7.1154,7.2579,7.4186,7.527,7.5779,7.7742,7.8273,7.7511,7.8455,7.8419,7.7617,7.75,7.7265,7.6953,7.7812,7.7461,0.0,0.0,7.6328,7.4297,7.3787,7.2452,7.0683,6.9299,6.9801,7.148,7.3984,7.6902,7.9844,8.1484,8.3786,8.5956,8.6293,0.0,8.969,9.0131,9.0797,9.1528,9.1996,9.2092,9.2011,9.1911,9.1548,9.1076,9.0393,8.9887,8.9562,8.9398,8.9671,9.0633,0.0,0.0,0.0,9.5508,9.5831,9.6009,0.0,9.6468,0.0,9.7465,9.7889,9.8306,0.0,9.8743,9.8929,9.9498,10.0285,10.0791,10.0898,10.1719,10.2187,10.2187,10.2695,10.289,10.289,10.289,10.289,10.289,10.289,10.289,10.289,0.0,10.271,10.2477,10.2113,10.1903,10.1716,10.1365,10.1289,10.1289,10.1289,10.1289,10.1289,0.0,0.0,0.0,0.0,0.0,0.0,0.0,0.0,0.0,4.8505,4.9067,0.0,0.0,0.0,0.0,0.0,0.0,0.0,0.0,0.0,6.1497,6.3454,6.6368,6.8131,6.8432,7.0604,7.1839,7.201,7.2965,7.2974,7.2117,7.3165,7.3146,7.2305,7.3203,7.3164,7.25,7.3398,7.2812,7.1406,7.2383,7.1758,7.0195,0.0,6.9839,6.8996,6.8479,7.0426,7.3822,7.7375,7.9867,8.1953,8.4453,8.6484,8.8085,8.8802,9.0126,9.1301,9.1301,9.1816,9.2341,9.2308,9.2331,9.2293,9.2113,9.1391,9.0651,9.0121,8.9406,8.8798,8.8584,8.921,9.0364,9.221,0.0,9.4359,9.6159,9.6558,9.6793,9.7099,9.7246,9.7457,9.7845,9.849,9.9033,9.9321,9.931,9.9605,10.0384,10.1309,10.1806,10.1797,10.25,10.289,10.289,10.289,10.289,10.289,10.289,10.289,10.289,10.289,10.289,10.289,10.2783,10.2698,10.2596,10.2177,10.1913,10.178,10.1516,10.1289,10.1289,10.1289,10.1289,10.1289,0.0,0.0,0.0,0.0,0.0,0.0,0.0,0.0,0.0,0.0,5.0164,4.9721,0.0,0.0,0.0,0.0,0.0,0.0,0.0,0.0,0.0,6.1614,6.2274,6.3518,6.5566,6.6084,6.6724,6.7423,6.8463,6.8189,6.678,6.845,6.8382,6.6953,6.7851,6.8164,6.8086,6.8945,6.8711,6.793,6.9453,6.9062,6.7656,6.8359,0.0,0.0,6.8726,7.0938,7.3939,7.8083,8.1589,8.4531,8.6445,8.8672,9.0664,9.0819,9.1554,9.2356,9.2356,9.2395,9.2468,9.2463,9.2475,9.2256,9.1475,9.1093,9.0439,8.88,8.8197,8.7871,8.7725,8.8359,8.971,9.2095,9.3281,9.4502,9.6288,9.6793,9.7004,0.0,9.7433,9.785,9.8694,0.0,0.0,0.0,10.1085,10.1211,10.1406,10.2195,10.2705,10.2695,10.2812,10.289,10.289,10.289,10.289,10.289,10.289,10.289,10.289,10.289,10.289,10.289,10.28,0.0,10.2596,10.2311,10.1995,10.178,10.1627,10.1404,10.1289,10.1289,10.1289,10.1289,0.0,0.0,0.0,0.0,0.0,0.0,0.0,5.0895,5.2605,5.4321,5.3839,5.2838,5.1453,5.1299,5.1145,0.0,0.0,0.0,0.0,0.0,0.0,5.8467,5.9769,6.1036,6.2221,6.2723,6.3206,6.3701,0.0,6.3915,6.2758,6.4115,6.4098,6.2969,6.4297,6.4883,6.4922,6.5781,6.5937,6.5625,6.6406,6.6523,6.6289,6.668,0.0,0.0,6.8804,7.1095,7.3906,7.7732,8.1652,8.5341,8.7968,9.0273,9.1992,9.1992,9.2265,9.2613,9.2613,9.2574,9.2535,9.2535,9.2531,9.2329,9.138,9.0413,8.9299,8.7779,8.694,8.6373,8.6215,8.7583,8.9402,9.1479,9.2973,9.4536,9.6383,9.6837,9.7076,9.7304,9.791,9.8474,0.0,9.9797,10.0707,10.1519,10.1983,10.2293,10.2293,10.2679,10.2884,10.289,10.289,10.289,10.289,10.289,10.289,10.289,10.289,10.289,10.289,10.289,10.289,10.289,10.2803,10.2703,10.2585,10.2321,10.2126,10.1804,10.1624,10.1404,10.1289,10.1289,10.1289,10.1289,0.0,0.0,0.0,0.0,0.0,0.0,5.0601,5.2723,5.4869,5.722,5.7703,5.6588,5.3356,5.2512,5.1857,0.0,0.0,0.0,0.0,0.0,0.0,0.0,0.0,0.0,0.0,0.0,0.0,0.0,6.0877,0.0,0.0,0.0,0.0,0.0,6.1484,6.2265,6.25,6.3164,6.3555,0.0,0.0,6.4531,0.0,0.0,0.0,0.0,0.0,7.0831,7.3281,7.6912,8.0777,8.4648,8.8084,9.0625,9.2344,9.2539,9.2617,9.2617,9.2617,9.2617,9.2617,9.2617,9.2617,9.2304,9.1203,8.9717,8.8245,8.6899,8.5945,8.5243,8.5051,8.7044,8.9171,9.0671,9.2623,9.4525,9.6203,9.6799,9.7204,9.765,9.841,0.0,9.953,10.0786,0.0,10.1914,10.25,10.289,10.289,10.289,10.289,10.289,10.289,10.289,10.289,10.289,10.289,10.289,10.289,10.289,10.289,10.289,10.289,10.289,10.2808,10.281,10.2698,10.2401,10.2099,10.1903,10.1581,10.1404,10.1289,10.1289,10.1289,10.1289,0.0,0.0,0.0,0.0,0.0,0.0,5.153,5.4545,5.7282,5.9037,5.9983,5.947,5.6821,5.4472,5.2724,0.0,0.0,0.0,0.0,0.0,0.0,0.0,0.0,0.0,0.0,0.0,0.0,0.0,0.0,0.0,0.0,0.0,0.0,0.0,0.0,5.9961,6.0625,6.0703,0.0,0.0,0.0,0.0,0.0,0.0,0.0,0.0,0.0,7.0067,7.1602,7.5858,7.9098,8.1959,8.5467,8.8789,9.1562,9.2383,9.2617,9.2617,9.2617,9.2617,9.2617,9.2617,9.2617,9.2148,9.05,8.9327,8.8061,8.6187,8.5522,8.5243,8.5101,8.7038,8.8979,8.9902,9.2233,9.4389,9.5476,9.6516,9.7536,9.8533,0.0,0.0,10.121,10.1484,10.1914,10.2695,10.289,10.289,10.289,10.289,10.289,10.289,10.289,10.289,10.289,10.289,10.289,10.289,10.289,10.289,10.289,10.289,10.289,10.289,10.289,10.2788,0.0,10.2499,10.2183,10.1903,10.171,10.1511,10.1289,10.1289,10.1289,10.1289,0.0,0.0,0.0,0.0,0.0,0.0,5.2259,5.5599,5.8765,6.1428,6.2567,6.2106,5.9561,5.7473,5.5073,5.2165,0.0,0.0,0.0,0.0,0.0,0.0,0.0,0.0,0.0,0.0,0.0,5.7133,0.0,0.0,0.0,0.0,0.0,0.0,0.0,0.0,5.9726,6.0195,0.0,0.0,0.0,0.0,0.0,0.0,0.0,0.0,0.0,0.0,7.1205,7.4525,7.7364,7.9923,8.2303,8.5429,8.8711,9.1094,9.2578,9.3281,9.2734,9.2969,9.3242,9.2734,9.2611,9.2126,9.0398,8.886,8.7273,8.5299,8.4725,8.4508,8.4329,8.6724,8.894,8.9787,9.1804,9.3732,9.5283,9.6072,9.7082,9.8605,9.9392,0.0,0.0,0.0,10.25,10.289,10.289,10.289,10.289,10.289,10.289,10.289,10.289,10.289,10.289,10.289,10.289,10.289,10.289,10.289,10.289,10.289,10.289,10.289,10.289,10.2806,0.0,10.2595,10.2304,10.2126,10.1912,10.1693,10.1516,10.1516,10.1518,10.1404,0.0,0.0,0.0,0.0,0.0,4.945,5.2374,5.5945,5.9326,6.2183,6.3514,6.3245,6.0687,5.9142,5.669,5.2646,5.153,0.0,0.0,0.0,0.0,0.0,0.0,0.0,0.0,0.0,5.6058,5.6399,5.6528,5.6654,0.0,0.0,0.0,0.0,0.0,0.0,0.0,0.0,0.0,0.0,0.0,0.0,0.0,0.0,0.0,0.0,0.0,0.0,0.0,0.0,0.0,7.7677,7.9647,8.2461,8.5781,8.9453,9.1758,9.3047,9.2695,9.3047,9.3359,9.2734,9.2595,9.2091,9.0382,8.8557,8.6685,8.4725,8.3984,8.3708,8.376,8.6268,8.8594,8.9402,9.1308,9.3238,9.4895,9.5623,9.6754,9.8915,0.0,0.0,0.0,10.25,10.289,10.289,10.289,10.289,10.289,10.289,10.289,10.289,10.289,10.289,10.289,10.289,10.289,10.289,10.289,10.289,10.289,10.289,10.289,10.289,10.289,10.2888,0.0,10.2593,10.2417,10.2171,10.2096,10.1889,10.1693,10.1581,10.1588,10.1516,0.0,0.0,0.0,0.0,0.0,0.0,5.1645,5.5566,5.8918,6.0597,6.2298,6.2337,5.9779,5.8796,5.6939,5.3486,5.2395,0.0,0.0,0.0,0.0,0.0,0.0,0.0,0.0,0.0,5.6212,5.7074,5.7228,5.7366,5.7483,5.7634,5.7251,0.0,0.0,0.0,0.0,0.0,0.0,0.0,0.0,0.0,6.4492,0.0,0.0,0.0,0.0,0.0,0.0,0.0,0.0,0.0,0.0,8.0273,8.3164,8.7461,8.9961,9.1523,9.2383,9.2617,9.2617,9.2617,9.2561,9.2041,9.0301,8.8476,8.6571,8.4611,8.3429,8.2895,8.3556,8.5735,8.7709,8.8556,9.0894,9.302,9.416,9.5141,9.6877,0.0,0.0,10.089,10.2695,10.289,10.289,10.289,10.289,0.0,10.289,10.289,10.289,10.289,10.289,10.289,10.289,10.289,10.289,10.289,10.289,10.289,10.289,10.289,10.289,10.289,10.289,10.2888,0.0,10.2714,10.2484,10.23,10.2201,10.198,10.1812,10.1716,10.1693,10.1624,0.0,0.0,0.0,0.0,0.0,0.0,5.0798,5.4164,5.712,5.888,6.0541,6.0618,5.8064,5.7566,5.6032,5.2619,5.2067,0.0,0.0,0.0,0.0,0.0,0.0,0.0,0.0,0.0,5.7097,5.7911,5.8641,5.907,5.9232,5.9335,5.8685,5.7391,5.7457,0.0,0.0,0.0,0.0,0.0,0.0,6.4297,6.4492,0.0,0.0,0.0,0.0,0.0,0.0,0.0,0.0,0.0,0.0,0.0,0.0,8.3437,8.7656,9.1367,9.164,9.2578,9.3359,9.2734,9.2092,9.1286,9.0029,8.7836,8.5719,8.4427,8.3283,8.2786,8.3556,8.5235,8.6978,8.844,9.0461,9.2427,9.4026,9.5755,0.0,9.9786,10.1196,10.2303,0.0,0.0,10.289,10.289,10.289,10.289,10.289,10.289,10.289,10.289,10.289,10.289,10.289,10.289,10.289,10.289,10.289,10.289,10.289,10.289,10.289,10.289,10.289,10.289,10.2888,10.2686,10.2605,10.249,10.2381,10.23,10.221,10.2087,10.2018,10.1873,0.0,0.0,0.0,0.0,0.0,0.0,4.9933,5.251,5.4895,5.6659,5.8027,5.8143,5.6252,5.6049,5.4937,5.2162,5.1895,0.0,0.0,0.0,0.0,0.0,0.0,0.0,5.3217,5.5434,5.7264,5.8748,5.9734,6.0503,6.0887,6.0759,5.9971,5.8714,5.8512,5.8867,0.0,0.0,0.0,0.0,6.3594,6.4297,6.4492,0.0,0.0,0.0,0.0,0.0,0.0,0.0,0.0,0.0,0.0,0.0,0.0,0.0,8.4922,8.8672,8.9961,9.1367,9.2304,9.1758,9.1155,9.0361,8.8981,8.7075,8.5169,8.3798,8.2687,8.2352,8.3487,8.4805,8.6351,8.8425,9.0295,9.211,9.3988,9.5965,0.0,10.0317,0.0,0.0,0.0,10.289,10.289,10.289,10.289,10.289,10.289,10.289,10.289,10.289,10.289,10.289,10.289,10.289,10.289,10.289,10.289,10.289,10.289,10.289,10.289,10.289,10.289,10.289,0.0,10.2792,10.2711,10.2597,10.2592,10.2513,10.2498,10.2282,10.221,10.21,0.0,0.0,0.0,0.0,0.0,0.0,0.0,5.0721,5.2415,5.4028,5.4972,5.5203,5.4413,5.4341,5.3649,5.1973,0.0,0.0,0.0,0.0,0.0,0.0,0.0,0.0,5.3178,5.4912,5.7049,5.9604,6.0724,6.1766,6.2665,6.2108,6.1385,6.0436,5.9723,5.9765,0.0,0.0,0.0,0.0,6.3594,6.4297,0.0,0.0,0.0,0.0,0.0,0.0,0.0,0.0,0.0,0.0,0.0,0.0,0.0,0.0,0.0,0.0,0.0,8.914,8.9922,8.9961,8.9906,8.9317,8.7429,8.618,0.0,8.2919,8.1851,8.1792,8.341,8.4451,8.5946,8.8506,9.0358,9.2149,9.4044,9.5971,0.0,0.0,10.2413,0.0,10.289,10.289,10.289,10.289,10.289,10.289,10.289,10.289,10.289,10.289,10.289,10.289,10.289,10.289,10.289,10.289,10.289,10.289,10.289,10.289,10.289,0.0,10.289,10.289,10.289,10.2806,10.2783,10.2703,10.271,10.2685,10.2601,10.2477,10.2303,10.2195,0.0,0.0,0.0,0.0,0.0,0.0,0.0,0.0,0.0,0.0,5.2858,5.3455,5.2607,5.2512,5.2088,0.0,0.0,0.0,0.0,0.0,0.0,0.0,0.0,0.0,5.3166,5.5514,5.7956,6.0512,6.2848,6.447,6.5397,6.5387,6.4301,6.2263,6.1445,6.0859,0.0,0.0,0.0,0.0,6.3594,6.4297,0.0,0.0,0.0,0.0,6.8789,6.9414,0.0,0.0,0.0,0.0,0.0,0.0,0.0,0.0,8.0781,8.2226,8.5039,0.0,8.9179,8.9844,8.9437,8.8554,0.0,8.5707,8.4165,8.2814,8.2352,8.2447,8.3487,8.5013,8.6693,8.8673,9.105,9.3059,9.4227,9.7225,0.0,10.2195,10.2686,10.289,10.289,10.289,10.289,10.289,10.289,10.289,10.289,10.289,10.289,10.289,10.289,10.289,10.289,10.289,10.289,10.289,10.289,10.289,10.289,10.289,10.289,10.289,10.289,10.289,10.289,10.289,10.2917,10.2906,10.2889,10.2802,10.2792,10.2704,10.2593,10.249,0.0,0.0,0.0,0.0,0.0,0.0,0.0,0.0,0.0,0.0,5.1222,5.1857,5.1376,5.1337,0.0,0.0,0.0,0.0,0.0,0.0,0.0,0.0,0.0,5.23,5.3167,5.5728,5.8264,6.0858,6.3603,6.5865,6.7542,6.7346,6.6532,6.5195,6.3203,6.1797,0.0,0.0,0.0,6.1836,6.3164,0.0,0.0,0.0,0.0,0.0,6.8828,6.9453,0.0,7.2422,7.3281,7.3672,0.0,0.0,0.0,0.0,8.0625,8.1562,8.4179,8.6211,8.7734,8.8594,8.8407,8.7649,8.6177,8.5039,8.3846,8.2342,8.2256,8.2844,8.4175,8.5864,8.7775,8.9964,9.2197,9.4408,9.6538,9.8627,10.0682,10.2587,10.2905,10.2888,0.0,10.289,10.289,10.289,10.289,10.289,10.289,10.289,10.289,10.289,10.289,10.289,10.289,10.289,10.289,10.289,10.289,10.289,10.289,10.289,10.289,10.289,10.289,10.289,10.289,10.289,10.2888,10.291,10.29,10.2894,10.2894,10.2816,10.2718,10.2597,0.0,0.0,0.0,0.0,0.0,0.0,0.0,0.0,0.0,0.0,0.0,0.0,0.0,0.0,0.0,0.0,0.0,0.0,0.0,0.0,0.0,0.0,5.1549,5.2358,5.3378,5.6074,5.8809,6.1505,6.4431,6.7128,6.957,6.9044,6.8489,6.7773,6.4453,6.2539,6.1719,0.0,6.1719,6.1797,6.2656,0.0,0.0,0.0,0.0,0.0,0.0,0.0,0.0,7.2578,7.3515,7.3945,7.6562,0.0,0.0,0.0,0.0,0.0,8.4179,8.5547,8.6406,8.7344,8.7643,8.7237,8.5359,8.4825,8.4185,8.2243,8.2535,8.3614,8.5217,8.7086,8.9163,9.1514,9.3568,9.6023,9.9413,10.0008,10.0793,10.2581,10.2913,0.0,10.289,10.289,10.289,10.289,10.289,10.289,10.289,10.289,10.289,10.289,10.289,10.289,10.289,10.289,10.289,10.289,10.289,10.289,10.289,10.289,10.289,10.289,10.289,10.289,10.289,10.289,10.289,10.289,10.2884,10.2917,10.2917,10.28,10.2783,10.2703,0.0,0.0,0.0,0.0,0.0,0.0,0.0,0.0,0.0,0.0,0.0,0.0,0.0,0.0,0.0,0.0,0.0,0.0,0.0,0.0,0.0,5.1703,5.1819,5.2646,5.4259,5.7538,6.0864,6.4193,6.7715,7.0425,7.23,7.2361,7.0479,6.6953,6.4219,6.2539,6.1719,6.1719,6.1719,6.1797,6.2656,0.0,0.0,0.0,0.0,0.0,0.0,0.0,0.0,7.3281,7.4414,7.4844,7.7461,0.0,0.0,0.0,0.0,0.0,8.4179,8.5508,8.6484,8.8086,8.9049,8.9086,8.7198,8.6724,8.6109,8.4164,8.494,8.6081,8.6365,8.9023,9.1321,9.181,9.4661,9.7704,10.0412,0.0,10.1478,10.2698,0.0,10.29,10.289,10.289,10.289,10.289,10.289,10.289,10.289,10.289,10.289,10.289,10.289,10.289,10.289,10.289,10.289,10.289,10.289,10.289,10.289,10.289,10.289,10.289,10.289,10.289,10.289,10.289,10.289,10.289,10.289,10.289,10.289,10.289,10.2914,10.2898,0.0,0.0,0.0,0.0,0.0,0.0,0.0,0.0,0.0,0.0,0.0,0.0,0.0,0.0,0.0,0.0,0.0,0.0,0.0,0.0,0.0,5.1857,5.3223,5.457,5.5818,5.9733,6.3235,6.6263,6.9905,7.2866,7.5022,7.3837,7.1246,6.75,6.4883,6.2969,6.1719,6.1719,6.1719,6.1719,0.0,0.0,0.0,0.0,0.0,0.0,0.0,0.0,0.0,0.0,7.4609,7.5117,7.8203,0.0,0.0,0.0,0.0,0.0,8.4287,8.5804,8.721,8.8967,8.9713,8.9638,8.831,8.7954,8.7515,8.607,8.702,8.8251,8.8771,9.1243,9.3633,9.5054,9.6708,9.838,10.0101,10.0514,10.0987,0.0,0.0,10.2894,10.289,10.289,10.289,10.289,10.289,10.289,10.289,10.289,10.289,10.289,10.289,10.289,10.289,10.289,10.289,10.289,10.289,10.289,10.289,10.289,10.289,10.289,10.289,10.289,10.289,10.289,10.289,10.289,10.289,10.289,10.289,10.289,10.2888,10.2914,0.0,0.0,0.0,0.0,0.0,0.0,0.0,0.0,0.0,0.0,0.0,0.0,0.0,0.0,0.0,0.0,0.0,0.0,0.0,0.0,5.1222,5.2454,5.4724,5.6533,5.7572,6.2352,6.6206,6.9069,7.25,7.5183,7.6927,7.445,7.1484,6.8086,6.5469,6.332,6.1719,6.1719,6.1719,6.1719,0.0,0.0,0.0,0.0,0.0,0.0,0.0,0.0,0.0,0.0,0.0,0.0,0.0,0.0,0.0,8.1836,8.2304,8.2655,8.4341,8.591,8.7573,8.9485,9.0438,9.0662,8.9804,8.9713,8.954,8.8568,8.945,9.0615,9.1316,9.338,9.5751,9.8154,9.8608,0.0,0.0,0.0,10.059,10.1406,10.2296,10.291,10.289,10.289,10.289,10.289,10.289,10.289,10.289,10.289,10.289,10.289,10.289,10.289,10.289,10.289,10.289,10.289,10.289,10.289,10.289,10.289,10.289,10.289,10.289,10.289,10.289,10.289,10.289,10.289,10.289,10.289,10.289,10.289,10.289,10.289,0.0,0.0,0.0,0.0,0.0,0.0,0.0,0.0,0.0,0.0,0.0,0.0,0.0,0.0,0.0,0.0,0.0,0.0,0.0,0.0,5.178,5.4188,5.5959,5.7687,5.9373,6.5254,7.0081,7.3643,7.6466,7.7597,7.7109,7.4531,7.1484,6.8086,6.5469,6.332,6.1719,6.1719,6.1719,6.1719,6.1719,0.0,0.0,0.0,0.0,0.0,0.0,0.0,0.0,0.0,0.0,0.0,0.0,0.0,8.1094,8.2031,8.2304,8.2655,8.4341,8.5478,8.6793,8.9274,9.172,9.3327,9.2499,9.2876,9.3185,9.228,9.2734,9.3315,9.3294,9.5278,9.747,9.9293,9.9646,9.9985,10.0978,0.0,10.1412,10.1601,10.241,10.289,10.289,10.289,10.289,10.289,10.289,10.289,10.289,10.289,10.289,10.289,10.289,10.289,10.289,10.289,10.289,10.289,10.289,10.289,10.289,10.289,10.289,10.289,10.289,10.289,10.289,10.289,10.289,10.289,10.289,10.289,10.289,10.289,10.289,10.289,0.0,0.0,0.0,0.0,0.0,0.0,0.0,0.0,0.0,0.0,0.0,0.0,0.0,0.0,0.0,0.0,0.0,0.0,0.0,5.0702,5.1588,5.361,5.5818,5.8619,6.2002,6.7533,7.2147,7.5701,7.8555,7.9285,7.793,7.4765,7.1758,6.8828,6.625,6.4453,6.332,6.332,6.3008,6.2578,6.3086,6.3711,0.0,0.0,0.0,0.0,0.0,0.0,0.0,0.0,7.5195,7.6328,7.8906,8.0312,8.1289,8.2695,8.3125,8.3593,8.5825,8.7039,8.8339,9.0885,9.3086,9.4415,9.3593,9.406,9.4556,9.4175,9.4731,9.5387,9.5797,9.748,9.903,9.9623,9.9773,10.0222,10.1098,10.0891,10.0919,10.15,10.2413,10.289,10.289,10.289,10.289,10.289,10.289,10.289,10.289,10.289,10.289,10.289,10.289,10.289,10.289,10.289,10.289,10.289,10.289,10.289,10.289,10.289,10.289,10.289,10.289,10.289,10.289,10.289,10.289,10.289,10.289,10.289,10.289,10.289,10.289,10.289,0.0,0.0,0.0,0.0,0.0,0.0,0.0,0.0,0.0,0.0,0.0,0.0,0.0,0.0,0.0,0.0,0.0,0.0,5.0702,5.0702,5.1588,5.3514,5.578,5.9196,6.3897,6.8618,7.3045,7.7166,7.9723,7.9844,7.7617,7.4687,7.1914,6.9297,6.7305,6.5781,6.4726,6.4726,6.4219,6.3476,6.4062,6.4453,0.0,0.0,0.0,0.0,0.0,0.0,0.0,0.0,7.5351,7.6719,7.8984,8.0508,8.1719,8.3164,8.3594,8.4179,8.6702,8.8057,8.9298,9.1844,9.3807,9.504,9.4765,9.5351,9.5975,9.5919,9.6373,9.6964,9.7656,9.8946,9.9986,0.0,10.0318,10.0604,10.121,10.0916,10.089,10.1494,10.2418,10.289,10.289,10.289,10.289,10.289,10.289,10.289,10.289,10.289,10.289,10.289,10.289,10.289,10.289,10.289,10.289,10.289,10.289,10.289,10.289,10.289,10.289,10.289,10.289,10.289,10.289,10.289,10.289,10.289,10.289,10.289,10.289,10.289,10.289,10.289,0.0,0.0,0.0,0.0,0.0,0.0,0.0,0.0,0.0,0.0,0.0,0.0,0.0,0.0,0.0,0.0,0.0,0.0,5.0702,5.0702,5.1819,5.44,5.6074,5.9463,6.4748,6.8374,7.2842,7.8195,8.0055,7.9219,7.5859,7.4101,7.1914,6.9375,6.8594,6.7265,6.5664,6.5625,6.5117,6.4336,6.4336,6.4844,6.5586,0.0,0.0,0.0,0.0,0.0,0.0,0.0,7.5742,7.75,7.918,8.0898,8.25,8.3359,8.3633,8.4219,8.6758,8.8072,8.9359,9.1897,9.3849,9.5352,9.621,9.707,9.7695,9.7695,9.7691,9.7945,9.8736,9.9494,10.0294,10.1213,10.1315,10.1315,10.1393,10.1523,10.1606,10.1601,10.2383,10.289,10.289,10.289,10.289,10.289,10.289,10.289,10.289,10.289,10.289,10.289,10.289,10.289,10.289,10.289,10.289,10.289,10.289,10.289,10.289,10.289,10.289,10.289,10.289,10.289,10.289,10.289,10.289,10.289,10.289,10.289,10.289,10.289,10.289,10.289,0.0,0.0,0.0,0.0,0.0,0.0,0.0,0.0,0.0,0.0,0.0,0.0,0.0,0.0,0.0,0.0,0.0,0.0,5.0702,5.0702,5.1549,5.3475,5.5245,5.8072,6.2136,6.7642,7.2754,7.7442,7.6795,7.5976,7.4961,7.3203,7.1953,7.1172,7.0351,6.9687,6.9101,6.793,6.6914,6.6133,6.6133,6.5937,6.5664,0.0,0.0,0.0,0.0,0.0,0.0,0.0,0.0,0.0,7.918,8.1328,8.3515,8.5,8.5859,8.7031,9.0195,9.1249,9.2059,9.4604,9.5641,9.6246,9.7109,9.75,9.7695,9.7695,9.8203,9.8709,9.8939,10.0116,0.0,10.1411,10.1399,10.1685,10.2289,10.1914,10.1806,10.2382,10.2695,10.289,10.289,10.289,10.289,10.289,10.289,10.289,10.289,10.289,10.289,10.289,10.289,10.289,10.289,10.289,10.289,10.289,10.289,10.289,10.289,10.289,10.289,10.289,10.289,10.289,10.289,10.289,10.289,10.289,10.289,10.289,10.289,10.289,10.289,10.289,0.0,0.0,0.0,0.0,0.0,0.0,0.0,0.0,0.0,0.0,5.0702,5.0702,0.0,0.0,0.0,0.0,0.0,0.0,5.0702,5.0991,5.178,5.3128,5.5206,5.8158,6.2124,6.6399,7.003,7.3008,7.3398,7.3398,7.3047,7.2344,7.2187,7.25,7.1953,7.1367,7.0625,6.9258,6.8008,6.6914,6.6914,6.6601,6.6172,0.0,0.0,0.0,0.0,0.0,0.0,0.0,0.0,0.0,7.918,8.1484,8.3945,8.5703,8.6836,8.8242,9.1679,9.2851,9.3632,9.5884,9.6674,9.7148,9.8008,9.8203,9.8203,9.8203,9.8906,9.9609,9.9961,10.0892,0.0,10.2008,10.2099,10.2187,10.2815,10.2398,10.2293,10.2812,10.289,10.289,10.289,10.289,10.289,10.289,10.289,10.289,10.289,10.289,10.289,10.289,10.289,10.289,10.289,10.289,10.289,10.289,10.289,10.289,10.289,10.289,10.289,10.289,10.289,10.289,10.289,10.289,10.289,10.289,10.289,10.289,10.289,10.289,10.289,10.289,0.0,0.0,0.0,0.0,0.0,0.0,0.0,0.0,0.0,5.0702,5.0702,5.0702,0.0,0.0,0.0,5.0702,5.0702,5.0702,5.0702,5.1453,5.23,5.3147,5.5805,5.9302,6.3701,6.4661,6.5567,6.6445,6.9883,7.1211,7.0586,7.1562,7.25,7.3437,7.3437,7.25,7.0859,6.9844,6.8476,6.6992,6.6914,6.6914,6.6914,6.6914,0.0,0.0,0.0,0.0,0.0,0.0,0.0,0.0,7.9219,8.1562,8.4062,8.582,8.7031,8.8594,9.1914,9.3476,9.4531,9.6211,9.7226,9.8047,9.8828,9.9101,9.9219,9.914,9.9804,10.0703,10.1484,10.1719,10.1991,10.28,10.29,10.2913,10.2913,10.2882,10.289,10.289,10.289,10.289,10.289,10.289,10.289,10.289,10.289,10.289,10.289,10.289,10.289,10.289,10.289,10.289,10.289,10.289,10.289,10.289,10.289,10.289,10.289,10.289,10.289,10.289,10.289,10.289,10.289,10.289,10.289,10.289,10.289,10.289,10.289,10.289,10.289,10.289,0.0,0.0,0.0,0.0,0.0,0.0,0.0,0.0,5.0702,5.0702,5.0702,5.0702,5.0702,5.0702,0.0,5.0702,5.0702,5.0702,5.0702,5.1453,5.2299,5.3161,5.6464,5.9753,6.298,6.2655,6.2872,6.3828,6.6601,6.8555,6.9726,7.1289,7.2812,7.4336,7.4336,7.3711,7.2617,7.039,6.8867,6.7851,6.7187,6.6914,6.6914,6.6914,6.6914,0.0,0.0,0.0,0.0,0.0,0.0,0.0,7.9375,8.1953,8.4961,8.6719,8.8789,9.1094,9.3867,9.5273,9.6172,9.7187,9.8086,9.8789,9.8945,10.0117,10.0781,10.0195,10.0703,10.1406,10.1601,10.2187,10.2695,10.2889,10.2888,10.2888,10.2888,10.289,10.289,10.289,10.289,10.289,10.289,10.289,10.289,10.289,10.289,10.289,10.289,10.289,10.289,10.289,10.289,10.289,10.289,10.289,10.289,10.289,10.289,10.289,10.289,10.289,10.289,10.289,10.289,10.289,10.289,10.289,10.289,10.289,10.289,10.289,10.289,10.289,10.289,10.289,0.0,0.0,0.0,0.0,0.0,0.0,0.0,0.0,5.0702,5.0702,5.0702,5.0702,5.0702,5.0702,0.0,0.0,5.0702,5.0702,5.0702,5.1453,5.2838,5.5028,5.7407,5.976,6.2114,6.1413,6.146,6.2375,6.4172,6.6129,6.8242,7.082,7.2695,7.3984,7.3984,7.3242,7.1914,6.9765,6.8359,6.7539,6.707,6.6914,6.6914,6.6914,6.6914,6.7109,6.8789,0.0,0.0,0.0,0.0,0.0,0.0,0.0,8.4609,8.6367,8.8398,9.0703,9.375,9.5195,9.6172,9.7383,9.8359,9.9101,9.9531,10.0586,10.1601,10.1601,10.1914,10.2187,10.2187,10.2617,10.289,10.289,10.289,10.289,10.289,10.289,10.289,10.289,10.289,10.289,10.289,10.289,10.289,10.289,10.289,10.289,10.289,10.289,10.289,10.289,10.289,10.289,10.289,10.289,10.289,10.289,10.289,10.289,10.289,10.289,10.289,10.289,10.289,10.289,10.289,10.289,10.289,10.289,10.289,10.289,10.289,10.289,10.289,10.289,0.0,0.0,0.0,0.0,0.0,0.0,0.0,0.0,0.0,5.0702,5.0702,5.0702,5.0702,5.0702,5.0702,0.0,0.0,0.0,5.0702,5.1588,5.3589,5.6862,5.7937,5.9283,6.1023,6.0321,6.0393,6.1256,6.211,6.3888,6.6522,7.0117,7.2305,7.3281,7.3281,7.2344,7.0586,6.9062,6.7812,6.6914,6.6914,6.6914,6.6914,6.707,6.7109,6.7344,6.918,7.039,7.164,7.5,0.0,0.0,0.0,0.0,8.3906,8.5508,8.7265,8.9414,9.2578,9.4414,9.5781,9.7304,9.8476,9.9414,10.0117,10.1094,10.1992,10.2812,10.289,10.289,10.289,10.289,10.289,10.289,10.289,10.289,10.289,10.289,10.289,10.289,10.289,10.289,10.289,10.289,10.289,10.289,10.289,10.289,10.289,10.289,10.289,10.289,10.289,10.289,10.2888,10.2888,10.2888,10.2888,10.289,10.289,10.289,10.289,10.289,10.289,10.289,10.289,10.289,10.289,10.289,10.289,10.289,10.289,10.289,10.289,10.289,10.289,0.0,0.0,0.0,0.0,0.0,0.0,0.0,0.0,0.0,0.0,5.0702,5.0702,5.0702,5.0702,5.0702,5.0702,5.0702,5.0702,5.0702,0.0,0.0,5.6071,5.7069,5.8104,5.9221,5.852,5.8553,5.946,6.0315,6.2071,0.0,0.0,7.1758,7.3281,7.3281,7.2344,7.0625,6.9648,6.832,6.6914,6.6914,6.6914,6.6992,6.7734,6.8047,6.8359,7.0781,7.2226,7.3359,7.6094,7.8164,0.0,0.0,0.0,8.3789,8.4765,8.6797,8.914,9.1094,9.3945,9.6562,9.7461,9.8906,10.0195,10.0312,10.1601,10.2812,10.289,10.289,10.289,10.289,10.289,10.289,10.289,10.289,10.289,10.289,10.289,10.289,10.289,10.289,10.289,10.289,10.289,10.289,10.289,10.289,10.289,10.289,10.289,10.289,10.289,10.289,10.2886,10.2881,10.2881,10.2881,10.2881,10.2886,10.289,10.289,10.289,10.289,10.289,10.289,10.289,10.289,10.289,10.289,10.289,10.289,10.289,10.289,10.289,10.289,10.289,0.0,0.0,0.0,0.0,0.0,0.0,0.0,0.0,0.0,0.0,0.0,5.0702,5.0702,5.0702,5.0702,5.0702,5.0702,5.0702,5.0702,5.2262,5.3841,5.5203,5.6596,5.7818,5.888,5.8136,5.8207,5.9104,5.9963,6.1993,0.0,6.8433,7.0898,7.2578,7.3086,7.2617,7.1328,6.9492,6.8555,6.8281,6.8281,6.8906,6.9844,7.0742,7.1055,7.1289,7.289,7.4023,7.5078,7.7226,7.9023,8.0586,8.1445,0.0,0.0,0.0,8.5664,8.8008,9.1172,9.4219,9.6562,9.6953,9.8672,10.0312,10.0312,10.1601,10.289,10.289,10.289,10.289,10.289,10.289,10.289,10.289,10.289,10.289,10.289,10.289,10.289,10.289,10.289,10.289,10.289,10.289,10.289,10.289,10.289,10.289,10.289,10.289,10.289,10.289,10.2882,10.29,10.2906,10.2889,10.2811,10.2789,10.2783,10.2882,10.289,10.289,10.289,10.289,10.289,10.289,10.289,10.289,10.289,10.289,10.289,10.289,10.289,10.289,10.289,10.289,0.0,0.0,0.0,0.0,0.0,0.0,0.0,0.0,0.0,0.0,0.0,5.0702,5.0702,0.0,0.0,0.0,5.0702,5.0779,5.101,5.2396,5.3628,5.4605,5.6136,5.7373,5.8189,5.7668,5.7738,5.8441,5.9538,6.1725,6.5004,6.8004,7.0469,0.0,7.3242,7.3008,7.1875,6.9961,6.9375,6.9765,6.9961,7.125,7.3125,7.4219,7.4765,7.5078,7.6172,7.668,7.7148,7.8867,8.0156,8.1133,8.2031,8.2304,0.0,0.0,0.0,8.7031,9.0898,9.3672,9.5664,9.6328,9.8242,10.0,10.0195,10.1601,10.289,10.289,10.289,10.3008,10.3203,10.3008,10.289,10.289,10.289,10.289,10.289,10.289,10.289,10.289,10.289,10.289,10.289,10.289,10.289,10.289,10.289,10.289,10.289,10.289,10.289,10.289,10.2905,10.2906,10.2906,10.2815,10.2815,10.282,10.2789,10.2783,10.2889,10.289,10.289,10.289,10.289,10.289,10.289,10.289,10.289,10.289,10.289,10.289,10.289,10.289,10.289,10.289,0.0,0.0,0.0,0.0,0.0,0.0,0.0,0.0,0.0,0.0,0.0,5.0702,5.0702,5.0702,5.0702,5.0702,5.0702,5.101,5.1777,5.2682,5.3587,5.4489,5.5518,0.0,5.6343,5.6503,5.6606,5.6645,5.8324,6.051,6.3243,6.7418,7.0781,7.3281,7.414,7.3594,7.1992,7.1875,7.1367,7.0703,7.1523,7.3398,7.5898,7.7578,7.8711,7.9609,8.1289,8.0859,7.9765,8.1523,8.1601,8.1133,8.2031,8.2304,8.2304,0.0,0.0,0.0,8.9414,9.1445,9.3398,9.5898,9.7773,9.9297,10.0117,10.1601,10.289,10.289,10.289,10.3203,10.3984,10.3515,10.289,10.289,10.289,10.289,10.289,10.289,10.289,10.289,10.289,10.289,10.289,10.289,10.289,10.289,10.289,10.289,10.289,10.289,10.289,10.289,10.2905,10.2906,10.2906,10.2792,10.2821,10.2792,10.282,10.281,10.2917,10.2889,10.289,10.289,10.289,10.289,10.289,10.289,10.289,10.289,10.289,10.289,10.289,10.289,10.289,10.289,0.0,0.0,0.0,0.0,0.0,0.0,0.0,0.0,0.0,0.0,0.0,0.0,0.0,5.0794,5.085,5.085,5.085,5.1143,5.1913,5.2759,5.3646,5.4534,5.5498,5.6094,5.6253,5.6368,5.6475,5.6558,0.0,6.0457,6.3086,6.7379,7.0781,7.3359,7.4805,7.5078,7.4414,7.332,0.0,7.4101,7.5,7.7226,8.0195,8.1953,8.3125,8.3945,0.0,0.0,0.0,8.3945,8.414,8.4219,8.3398,8.3125,8.3125,8.3125,8.4609,8.6523,8.8008,9.0469,9.2969,9.4453,9.6523,9.8554,9.9961,10.1211,10.2187,10.2812,10.289,10.3203,10.3984,10.3906,10.3711,10.3711,10.3711,10.3515,10.3008,10.289,10.289,10.289,10.289,10.289,10.289,10.289,10.289,10.289,10.289,10.289,10.289,10.289,10.289,10.289,10.2917,10.292,10.2782,10.2811,10.2683,10.2683,10.2811,10.2781,10.2914,10.2889,10.289,10.289,10.289,10.289,10.289,10.289,10.289,10.289,10.289,10.289,10.289,10.289,10.289,10.289,0.0,0.0,0.0,0.0,0.0,0.0,0.0,0.0,5.0913,5.088,0.0,0.0,0.0,0.0,5.1061,5.1331,5.1641,5.2078,5.2858,5.3437,5.415,5.5017,5.5668,5.611,5.6291,5.6407,5.648,5.6562,5.8281,6.0466,6.311,6.7108,7.0547,7.3398,7.5117,7.5898,0.0,0.0,0.0,7.6445,7.789,8.0547,8.3789,8.5508,8.707,8.8359,0.0,0.0,0.0,0.0,8.6601,8.6328,8.4609,8.3633,8.3164,8.3164,8.4414,8.5937,8.6836,8.914,9.164,9.3086,9.5195,9.7304,9.9023,10.0586,10.1797,10.2304,10.2695,10.3203,10.3984,10.4414,10.4609,10.4609,10.4414,10.3984,10.3398,10.3086,10.289,10.289,10.289,10.289,10.289,10.289,10.289,10.289,10.289,10.289,10.289,10.2888,10.2884,10.2884,10.2905,10.2781,10.2815,10.271,10.271,10.2698,10.2788,10.2802,10.2905,10.2888,10.289,10.289,10.289,10.289,10.289,10.289,10.289,10.289,10.289,10.289,10.289,10.289,10.289,10.289,0.0,0.0,0.0,0.0,0.0,0.0,5.1097,0.0,5.1073,5.1101,0.0,0.0,0.0,0.0,0.0,5.2278,5.3063,5.3832,5.4636,5.4701,5.507,5.5864,5.6007,5.6156,5.6291,5.6425,5.6507,5.6484,5.832,6.0508,6.3047,6.6562,7.0,7.3281,7.5117,7.5898,7.5976,0.0,7.7265,7.7539,0.0,8.3164,8.6445,8.8125,9.0351,0.0,9.2617,9.2109,0.0,0.0,0.0,8.7344,8.5508,8.375,8.2344,8.2344,8.3554,8.5078,0.0,0.0,0.0,9.1875,9.3828,9.5586,9.7265,9.9687,10.1484,10.1601,10.2304,10.3203,10.3984,10.4883,10.5508,10.5508,10.4804,10.4297,10.4219,10.3515,10.289,10.289,10.289,10.289,10.289,10.289,10.289,10.289,10.289,10.289,10.289,10.2905,10.2906,10.2906,10.2792,10.2788,10.2712,10.2698,10.2698,10.2712,10.2815,10.2782,10.2906,10.2884,10.289,10.289,10.289,10.289,10.289,10.289,10.289,10.289,10.289,10.289,10.289,10.289,10.289,10.289,0.0,0.0,0.0,0.0,0.0,5.3019,5.2958,5.2986,5.3025,0.0,0.0,0.0,5.2969,5.2997,5.3125,5.3361,5.3602,5.405,5.4813,5.4846,5.5203,5.6017,5.6132,5.6226,5.6369,5.6446,5.6519,5.6562,5.8359,6.0195,6.2148,6.6289,6.9336,7.1562,7.457,7.5898,7.6015,7.75,0.0,0.0,8.2109,8.4922,0.0,0.0,0.0,0.0,0.0,9.3398,0.0,0.0,9.2109,9.0547,0.0,8.4648,8.3242,8.3242,8.4023,8.5078,8.5976,0.0,0.0,0.0,0.0,0.0,9.6289,9.832,10.0117,10.1289,10.2304,10.3203,10.3984,10.4414,10.4804,10.539,10.5781,10.5586,10.4414,10.3984,10.3594,10.3008,10.289,10.2888,10.29,10.2894,10.2905,10.2882,10.2882,10.2917,10.2783,10.2803,10.2792,10.279,10.2694,10.2591,10.2615,10.2591,10.2601,10.2694,10.2811,10.282,10.2906,10.2884,10.289,10.289,10.289,10.289,10.289,10.289,10.289,10.289,10.289,10.289,10.289,10.289,10.289,10.289,0.0,0.0,5.3341,5.363,5.406,5.4484,5.4801,5.4908,5.4927,0.0,0.0,0.0,5.4866,5.5233,5.5482,5.5464,5.5482,5.5637,5.6036,5.5746,5.576,5.6214,5.6251,5.6325,5.6436,5.6524,5.6569,5.6595,5.8359,6.0078,6.1797,6.5781,6.875,7.0859,7.3945,7.5547,7.6055,7.8125,0.0,0.0,8.3672,0.0,0.0,9.0469,9.2187,0.0,0.0,0.0,9.5429,9.5117,9.3672,0.0,0.0,8.5781,8.4609,8.4258,8.4765,8.5547,8.6054,8.7187,8.8398,8.9258,0.0,0.0,9.4453,9.6719,9.875,9.9765,10.1211,10.25,10.3008,10.3711,10.4414,10.4883,10.5703,10.5898,10.4883,10.4687,10.4414,10.3515,10.3394,10.329,10.2889,10.2899,10.2802,10.2811,10.2811,10.2792,10.2686,10.2712,10.2709,10.2612,10.2499,10.2381,10.2498,10.2518,10.2495,10.2718,10.2802,10.2816,10.291,10.2888,10.289,10.289,10.289,10.289,10.289,10.289,10.289,10.289,10.289,10.289,10.289,10.289,10.289,10.2889,0.0,5.3672,5.4569,5.5489,5.5738,5.6062,5.6932,5.7081,5.7063,0.0,5.7065,5.7088,5.7082,5.7773,5.8176,5.8101,5.8089,5.7991,5.7726,5.6979,5.6514,5.6437,5.6427,5.6446,5.6503,5.6566,5.6595,5.6614,5.8356,6.0078,6.1797,6.5273,6.8242,7.082,7.3437,7.5078,7.6055,7.8633,0.0,8.1445,8.4844,8.7304,0.0,0.0,9.3672,0.0,9.6172,9.6953,9.7461,9.6758,9.4297,0.0,0.0,0.0,8.6328,8.5547,8.582,8.6367,8.6562,8.7109,8.7812,8.8633,9.0078,0.0,0.0,9.5195,9.7578,9.7695,9.9687,10.1484,10.1484,10.2695,10.3789,10.3906,10.4609,10.5195,10.5312,10.539,10.5,10.4218,10.3993,10.3719,10.2889,10.2815,10.2698,10.2718,10.2702,10.2612,10.2596,10.2516,10.2417,10.2395,10.2288,10.2195,10.242,10.242,10.2479,10.2679,10.2789,10.2803,10.289,10.289,10.289,10.289,10.289,10.289,10.289,10.289,10.289,10.289,10.289,10.289,10.289,10.289,10.289,10.2889,5.4648,5.5508,5.6562,5.8163,5.8977,5.967,6.0568,6.067,6.071,6.0689,6.0689,6.0682,6.0705,6.0827,6.0643,5.996,5.9881,5.9288,5.789,5.7623,5.7198,5.6503,5.6494,5.6503,5.6589,5.6608,5.6614,5.66,5.8359,6.0078,6.1797,6.5273,6.8242,7.082,7.3437,7.5078,7.6055,7.8633,0.0,8.2304,8.5078,0.0,9.0937,9.2148,9.3672,9.5312,9.6172,9.6601,9.6719,0.0,9.5117,9.3047,0.0,0.0,0.0,8.8008,8.7617,8.7539,8.8906,8.8867,8.8672,8.9531,0.0,0.0,0.0,9.4726,9.6914,0.0,9.9219,10.0586,10.0586,10.0781,10.1289,10.1992,10.2812,10.3711,10.4414,10.4492,10.4099,10.3285,10.3084,10.2996,10.2698,10.2718,10.2591,10.2513,10.2401,10.2317,10.2295,10.2177,10.21,10.198,10.1923,10.1923,10.2085,10.21,10.2178,10.2484,10.2714,10.2792,10.289,10.289,10.289,10.289,10.289,10.289,10.289,10.289,10.289,10.289,10.289,10.289,10.289,10.289,10.289,10.2889,5.5859,5.7305,5.8906,6.0234,6.1484,6.2654,6.3513,6.3666,6.3783,6.4255,6.4294,6.4294,6.4289,6.468,6.4605,6.3711,6.3242,6.2265,6.0501,5.9585,5.8709,5.7841,5.7824,5.7662,5.7265,5.7242,5.7028,5.6601,5.8359,6.0078,6.1797,6.5273,6.8242,7.082,7.3906,7.5742,7.6758,0.0,8.1992,8.3789,8.5976,0.0,9.1484,9.3242,9.4726,9.5976,9.6797,9.7109,9.7031,9.664,9.5937,0.0,0.0,9.1719,9.0547,0.0,8.9414,8.8945,8.9765,8.9687,8.9453,8.9883,0.0,0.0,0.0,0.0,9.5312,9.5703,9.7187,9.8398,9.8398,9.8711,9.9297,10.0195,10.0703,10.1405,10.2683,10.4007,10.4506,10.3616,10.3413,10.3201,10.2724,10.2498,10.2399,10.221,10.2087,10.2007,10.2007,10.1894,10.1804,10.1812,10.1683,10.1716,10.1912,10.1903,10.2113,10.2516,10.2581,10.2718,10.2914,10.2889,10.289,10.289,10.289,10.289,10.289,10.289,10.289,10.289,10.289,10.289,10.289,10.289,10.289,10.2889,5.7344,5.9101,6.0976,6.2031,6.3633,6.5078,6.5976,6.625,6.664,6.7539,6.7617,6.7695,6.7851,6.8672,6.8828,6.7969,6.7226,6.6015,6.414,6.238,6.0932,5.9917,5.9751,5.9276,5.8414,5.8396,5.7969,5.7109,5.8828,6.0469,6.2031,6.5508,6.8594,7.1367,7.4687,7.6797,0.0,0.0,0.0,8.5312,0.0,8.9375,9.2031,9.4336,9.5937,9.7109,9.789,9.8086,9.7851,9.7187,0.0,9.625,9.4844,9.3789,0.0,0.0,0.0,0.0,0.0,0.0,0.0,0.0,0.0,9.1562,0.0,0.0,0.0,0.0,0.0,0.0,9.625,9.6797,9.75,9.8398,9.8633,9.9295,10.0897,10.2906,10.3991,10.3592,10.3491,10.3091,10.2282,10.2195,10.2113,10.1873,10.178,10.171,10.171,10.1688,10.1616,10.1616,10.1478,10.1588,10.1787,10.178,10.199,10.2378,10.2499,10.2616,10.2789,10.2882,10.289,10.289,10.289,10.289,10.289,10.289,10.289,10.289,10.289,10.289,10.289,10.289,10.289,10.289,5.9961,6.082,6.207,6.3711,6.5469,6.6914,6.7773,6.8555,6.9336,7.0156,7.0273,7.0547,7.1328,7.2187,7.2383,7.1484,7.1328,0.0,6.7773,0.0,6.4297,6.2617,6.1836,6.1015,6.0156,6.0117,5.9726,5.8906,6.0586,6.1914,6.293,6.6406,6.9805,7.3125,7.5859,0.0,0.0,0.0,8.4453,0.0,8.789,9.0586,0.0,9.4804,9.664,9.8828,9.9687,9.9492,9.8828,0.0,9.7734,9.6484,0.0,9.5625,9.4726,9.3867,0.0,0.0,0.0,0.0,0.0,0.0,9.2383,0.0,0.0,0.0,0.0,9.3906,0.0,0.0,0.0,0.0,0.0,9.664,9.7383,9.8202,9.9164,9.9541,10.0186,10.1489,10.1588,10.1506,10.1107,10.1525,10.1677,10.1616,10.1588,10.1478,10.1478,10.1404,10.1289,10.1289,10.1328,10.1404,10.162,10.1688,10.1903,10.2195,10.2401,10.2514,10.2711,10.2788,10.2806,10.289,10.289,10.289,10.289,10.289,10.289,10.289,10.289,10.289,10.289,10.289,10.289,10.289,6.0508,6.1523,6.2851,6.4062,6.5742,6.7344,6.875,7.0078,7.1055,7.1406,7.2344,7.3476,7.4883,7.664,0.0,0.0,0.0,0.0,0.0,0.0,6.8867,6.6133,6.5664,6.4609,6.2695,6.2187,6.1484,6.0664,6.1367,6.2656,6.457,6.7539,7.0742,7.418,7.7265,0.0,8.2656,0.0,8.7148,0.0,0.0,0.0,0.0,9.5976,9.7539,9.9804,10.0195,10.0117,9.9687,0.0,9.8515,0.0,0.0,0.0,0.0,0.0,0.0,0.0,0.0,0.0,0.0,0.0,0.0,0.0,9.2617,0.0,9.3164,0.0,0.0,0.0,0.0,0.0,0.0,0.0,9.5273,9.5975,9.7293,9.6634,9.7202,10.0294,0.0,0.0,10.0595,10.1181,10.1475,10.1365,10.1404,10.1404,10.1404,10.1289,10.1289,10.1289,10.1289,10.1366,10.1585,10.1581,10.1812,10.2113,10.2195,10.2381,10.262,10.2703,10.2797,10.2812,10.289,10.289,10.289,10.289,10.289,10.289,10.289,10.289,10.289,10.289,10.2886,10.2905,6.125,6.2148,6.3281,6.414,6.5742,6.7578,6.9531,7.1289,7.2539,7.3008,7.4609,0.0,7.8047,8.0547,0.0,0.0,0.0,8.1054,0.0,0.0,7.3515,7.0117,6.9726,0.0,0.0,6.5078,6.4219,6.3125,6.3359,6.457,6.668,6.9023,7.1953,7.5469,7.8633,8.164,8.4492,0.0,0.0,9.1719,9.2617,9.5,9.8047,9.7929,9.9062,10.0703,10.0898,10.0898,10.0586,9.9922,9.9531,0.0,9.8594,0.0,9.7461,0.0,0.0,0.0,9.5312,0.0,0.0,0.0,0.0,0.0,0.0,0.0,0.0,0.0,0.0,0.0,0.0,0.0,9.2812,9.3437,0.0,9.3983,9.5177,9.4108,0.0,0.0,0.0,0.0,0.0,10.0393,10.0787,10.0981,10.0981,10.1096,10.1289,10.1289,10.1289,10.1289,10.1289,10.1366,10.1585,10.1585,10.1793,10.2096,10.2113,10.2278,10.2513,10.2593,10.2686,10.2808,10.289,10.289,10.289,10.289,10.289,10.289,10.289,10.289,10.289,10.2888,10.291,10.2906,6.293,6.2969,6.3281,6.414,6.5742,6.7734,7.0273,7.2148,7.3867,7.5547,0.0,0.0,0.0,0.0,0.0,0.0,0.0,8.4922,8.2265,0.0,7.7969,0.0,0.0,0.0,0.0,6.9258,6.8398,6.6719,6.7578,6.8437,6.9336,7.1094,7.3789,7.7226,7.9805,8.289,8.6289,8.8828,9.0937,9.2617,9.3515,9.5898,9.914,0.0,10.1484,10.1719,10.25,0.0,0.0,10.1484,10.1015,0.0,0.0,0.0,0.0,0.0,0.0,0.0,0.0,0.0,0.0,9.4101,0.0,0.0,0.0,0.0,9.2617,0.0,0.0,0.0,0.0,9.2617,9.2617,9.2656,9.2656,0.0,0.0,0.0,0.0,0.0,0.0,0.0,0.0,9.8614,9.9322,0.0,10.0211,10.0481,10.1289,10.1289,10.1289,10.1289,10.1289,10.1366,10.1585,10.1585,10.1683,10.201,10.2096,10.2215,10.2321,10.2484,10.2616,10.2718,10.2806,10.289,10.289,10.289,10.289,10.289,10.289,10.289,10.289,10.2894,10.2906,10.2906,6.3984,6.3867,6.414,6.5,6.6133,6.7969,7.1094,7.3047,0.0,0.0,0.0,0.0,0.0,0.0,8.8515,0.0,0.0,8.8476,8.5898,8.4648,0.0,0.0,0.0,7.6914,0.0,0.0,7.1992,7.0273,7.0,7.0586,7.2031,7.3789,7.582,7.8203,8.1914,8.5156,0.0,0.0,0.0,0.0,0.0,9.832,10.0,0.0,10.1992,10.25,10.2812,10.2695,0.0,10.1797,10.1406,10.1094,10.0508,10.0312,10.0195,9.9609,9.9414,9.9297,0.0,0.0,9.6797,9.6484,0.0,0.0,0.0,0.0,0.0,0.0,0.0,0.0,0.0,9.3867,9.3281,9.2695,9.2109,9.1522,0.0,0.0,0.0,0.0,0.0,0.0,0.0,0.0,0.0,0.0,9.99,0.0,10.1289,10.1289,10.1289,10.1289,10.1289,10.1366,10.1585,10.1585,10.1688,10.1881,10.201,10.2112,10.2187,10.2381,10.2582,10.2685,10.2783,10.2882,10.2884,10.289,10.289,10.289,10.289,10.289,10.289,10.2914,10.29,10.2894,6.5859,6.5937,6.6133,6.6055,6.7539,6.957,7.207,0.0,0.0,0.0,8.2109,0.0,8.6836,0.0,9.0703,0.0,9.1562,9.0781,8.8554,8.7851,0.0,8.3008,8.2851,0.0,0.0,0.0,7.5898,7.3867,7.2969,7.3281,7.4726,7.5859,7.7617,8.0,8.3398,8.6484,8.9336,0.0,9.4375,0.0,0.0,9.9531,0.0,0.0,10.2109,10.289,0.0,10.289,10.2812,10.2304,10.2109,10.1992,10.1406,10.1211,10.1211,10.0898,10.0781,10.0703,10.039,9.9492,0.0,9.8242,9.7109,0.0,9.5742,0.0,9.5273,0.0,0.0,0.0,0.0,9.4219,9.3164,9.2265,9.1133,9.0078,0.0,8.9076,0.0,0.0,0.0,0.0,0.0,0.0,0.0,0.0,0.0,0.0,0.0,10.1404,10.1289,10.1289,10.1289,10.1366,10.1585,10.1585,10.1727,10.1889,10.1912,10.2,10.2203,10.242,10.2523,10.2683,10.2789,10.2816,10.29,10.2917,10.2888,10.289,10.289,10.289,10.289,10.2886,10.2914,10.2894,6.8555,6.9101,6.918,6.7578,6.9922,7.2383,0.0,0.0,7.9609,0.0,8.4765,8.6992,8.8633,9.0351,9.1367,9.1367,9.2109,0.0,9.0234,9.0117,0.0,0.0,8.6523,8.5273,8.2656,0.0,0.0,0.0,7.6562,7.6562,7.7305,7.7383,7.914,8.2383,8.4219,8.6875,9.0156,9.2851,9.4961,9.6719,9.8281,9.9492,10.039,10.1211,10.2109,10.289,10.289,10.289,10.289,10.289,10.289,10.289,10.289,10.289,10.2695,10.1914,10.1719,10.1484,10.0703,10.039,10.0195,9.9336,9.8476,0.0,0.0,0.0,9.5703,0.0,0.0,0.0,0.0,0.0,9.2461,9.1523,8.9844,8.8359,8.7539,0.0,0.0,0.0,0.0,0.0,0.0,0.0,0.0,0.0,0.0,0.0,0.0,10.1402,10.1404,10.1289,10.1289,10.1366,10.1624,10.1624,10.1693,10.1928,10.1889,10.2019,10.2085,10.2317,10.2513,10.2595,10.2685,10.2789,10.2906,10.2906,10.2905,10.289,10.289,10.289,10.289,10.289,10.2921,10.2913,7.1328,7.1719,7.2383,7.2578,7.2812,7.3906,0.0,0.0,0.0,0.0,8.7422,8.9453,9.0508,9.1601,9.2265,9.2265,9.2461,0.0,0.0,0.0,0.0,9.0976,9.0976,8.9726,8.7109,8.625,0.0,8.0976,8.0117,7.9453,7.9062,7.9726,8.0859,8.2422,8.5469,8.8008,9.0195,9.3476,9.5859,9.7422,9.7851,9.8945,10.0312,0.0,10.1601,10.289,10.289,10.289,10.289,10.289,10.289,10.289,10.289,10.289,10.289,10.2617,10.2617,10.25,10.2304,10.1797,10.1211,10.1015,10.0312,9.957,9.9375,9.914,0.0,0.0,0.0,0.0,0.0,0.0,0.0,9.2617,8.9765,8.7734,0.0,0.0,0.0,0.0,0.0,0.0,0.0,0.0,0.0,0.0,0.0,0.0,0.0,0.0,10.0826,10.1289,10.1289,10.1366,10.1516,10.1516,10.1627,10.1693,10.1683,10.1812,10.2,10.221,10.2401,10.2592,10.2694,10.2811,10.2789,10.2789,10.292,10.29,10.2888,10.289,10.289,10.289,10.2889,10.2884,7.4062,7.4414,7.539,7.6601,7.6758,0.0,7.9297,0.0,0.0,8.6953,8.9219,0.0,9.1758,9.2304,9.2617,9.2617,9.2969,0.0,0.0,0.0,0.0,9.375,9.375,9.2695,9.0469,8.9219,0.0,8.3437,0.0,8.1133,8.0273,8.0781,8.1875,8.3554,8.5898,8.8281,9.0781,9.4297,9.6523,9.7734,9.8125,9.9062,0.0,10.0703,10.1719,10.289,10.289,10.289,10.289,10.289,10.289,10.289,10.289,10.289,10.289,10.289,10.289,10.289,10.289,10.25,10.2187,10.2187,10.1484,10.0898,10.0898,10.0586,10.039,10.0781,10.0586,10.0,0.0,0.0,0.0,0.0,0.0,0.0,0.0,0.0,0.0,0.0,0.0,0.0,0.0,0.0,0.0,0.0,0.0,0.0,0.0,0.0,10.0401,10.0789,10.1096,10.1404,10.1518,10.1518,10.1478,10.1585,10.1581,10.1793,10.2019,10.2113,10.2282,10.2624,10.2698,10.2792,10.2789,10.2789,10.2789,10.2913,10.2886,10.289,10.289,10.289,10.289,10.289,7.7031,7.7344,7.8398,8.0078,0.0,0.0,0.0,8.4023,0.0,8.8711,0.0,9.1914,9.2695,9.2851,9.2929,9.2929,0.0,9.4101,9.4219,9.4961,9.5429,9.5508,9.5547,9.4765,9.3164,9.1406,0.0,0.0,0.0,8.2304,8.1328,8.1211,8.25,8.4922,8.582,8.8242,9.1836,9.5,9.6875,9.7773,9.8633,9.9531,10.039,10.1289,10.2109,10.289,10.289,10.289,10.289,10.289,10.289,10.289,10.289,10.289,10.289,10.289,10.289,10.289,10.289,10.289,10.289,10.289,10.2304,10.1797,10.1797,10.1211,10.0898,10.1601,10.1211,10.039,9.9492,0.0,0.0,0.0,0.0,0.0,0.0,0.0,0.0,0.0,0.0,0.0,0.0,0.0,0.0,0.0,0.0,0.0,0.0,0.0,0.0,10.0096,10.0904,10.1404,10.1481,10.1481,10.1516,10.1588,10.1588,10.1693,10.1896,10.2007,10.2195,10.2477,10.2607,10.2694,10.2781,10.2789,10.2789,10.2913,10.2886,10.289,10.289,10.289,10.289,10.289,8.125,0.0,0.0,0.0,0.0,8.5156,8.8008,8.8203,8.8711,9.0586,9.2344,9.3515,9.3672,9.4297,9.4726,9.4726,9.4883,0.0,0.0,0.0,0.0,9.7226,9.7265,9.6797,9.5859,9.4101,9.1875,0.0,0.0,8.4687,8.3125,8.2422,8.3086,8.4922,8.582,8.8906,9.3515,9.4844,0.0,9.7773,9.8633,9.9531,10.039,10.1289,10.2109,10.289,10.289,10.289,10.289,10.289,10.289,10.289,10.289,10.289,10.289,10.289,10.289,10.289,10.289,10.289,10.289,10.289,10.2812,10.2695,10.2695,10.2617,10.25,10.2617,10.2617,10.2187,10.1289,0.0,0.0,0.0,0.0,0.0,0.0,0.0,0.0,0.0,0.0,0.0,0.0,0.0,0.0,0.0,0.0,0.0,0.0,0.0,0.0,0.0,10.0904,10.1289,0.0,10.1328,10.1328,10.1404,10.1518,10.1591,10.1693,10.1894,10.2099,10.2303,10.2607,10.2712,10.2792,10.2898,10.2906,10.2913,10.2886,10.289,10.289,10.289,10.289,10.289,0.0,0.0,0.0,0.0,0.0,0.0,0.0,9.1367,0.0,9.2539,9.3789,9.457,9.457,9.4961,9.5195,9.5195,9.5625,9.6054,9.6484,9.6875,9.7304,9.7695,9.7695,0.0,9.6523,9.4804,9.2617,9.0,0.0,8.5312,8.3594,8.2695,8.3242,8.5039,8.7656,9.0742,9.3984,9.5312,9.6836,9.8437,9.9336,10.0195,10.1094,10.1914,10.25,10.289,10.289,10.289,10.289,10.289,10.289,10.289,10.289,10.289,10.289,10.289,10.289,10.289,10.289,10.289,10.289,10.289,10.289,10.289,10.289,10.289,10.289,10.289,10.289,10.25,10.1211,9.9219,0.0,0.0,0.0,0.0,0.0,0.0,0.0,0.0,0.0,0.0,0.0,0.0,0.0,0.0,0.0,0.0,0.0,0.0,9.9497,0.0,0.0,0.0,10.1289,0.0,10.1289,10.1289,10.1404,10.1404,10.1591,10.1812,10.1995,10.2317,10.2498,10.2709,10.2782,10.2889,10.2906,10.2913,10.2886,10.289,10.289,10.289,10.289,10.289,0.0,8.8594,0.0,0.0,9.0351,0.0,9.3164,9.4023,9.4375,9.4219,9.4922,9.5469,9.5469,9.5625,9.5742,9.5742,9.6367,9.6758,9.6758,9.7344,9.7695,9.7695,9.7695,9.7383,9.6758,9.5234,9.3242,0.0,0.0,8.6133,8.4414,8.3359,8.3867,8.5898,8.9804,9.2656,9.4531,9.6094,9.7734,9.9336,10.0195,10.1015,10.1719,10.2617,10.289,10.289,10.289,10.289,10.289,10.289,10.289,10.289,10.289,10.289,10.289,10.289,10.289,10.289,10.289,10.289,10.289,10.289,10.289,10.289,10.289,10.289,10.289,10.289,10.289,10.2383,10.0898,10.0,0.0,0.0,0.0,0.0,0.0,0.0,0.0,0.0,0.0,0.0,0.0,0.0,0.0,0.0,0.0,0.0,9.5472,0.0,0.0,0.0,0.0,10.1096,10.1289,0.0,10.1289,10.1289,10.1289,10.1404,10.1481,10.1683,10.1884,10.2187,10.2518,10.2709,10.2781,10.2881,10.2888,10.2894,10.2888,10.289,10.289,10.289,10.289,10.289,0.0,0.0,0.0,0.0,0.0,0.0,9.5859,9.6211,9.5976,9.5195,9.5859,9.6367,9.6367,9.7031,9.7461,9.7461,9.7539,9.7578,9.7578,9.7656,9.7695,9.7695,9.7695,9.7656,9.7578,9.6719,9.5351,0.0,0.0,8.8789,8.7109,8.5429,8.5976,8.8476,9.125,9.3906,9.6328,9.7226,9.8594,10.0312,10.1094,10.1484,10.1719,10.2617,10.289,10.289,10.289,10.289,10.289,10.289,10.289,10.289,10.289,10.289,10.289,10.289,10.289,10.289,10.289,10.289,10.289,10.289,10.289,10.289,10.289,10.289,10.289,10.289,10.289,10.2617,10.1719,10.1406,10.0781,0.0,0.0,0.0,0.0,0.0,0.0,0.0,0.0,0.0,0.0,9.4023,0.0,0.0,9.2827,0.0,0.0,0.0,0.0,9.9154,0.0,10.0596,10.1289,10.1289,10.1289,10.1289,10.1289,10.1289,10.1328,10.1688,10.1903,10.1995,10.2417,10.2698,10.2889,10.2889,10.2889,10.289,10.289,10.289,10.289,10.289,10.289,10.289,0.0,0.0,0.0,0.0,0.0,0.0,0.0,9.7656,9.8047,9.8242,9.7656,9.7226,9.7226,9.75,9.7695,9.7695,9.7695,9.7695,9.7695,9.7695,9.7695,9.7695,9.7695,9.7695,9.7695,9.6914,9.5898,0.0,0.0,0.0,8.8945,8.7265,8.8086,9.1133,9.3789,9.6094,9.8047,9.8906,9.9961,10.1094,10.1484,10.1914,10.2383,10.2812,10.289,10.289,10.289,10.289,10.289,10.289,10.289,10.289,10.289,10.289,10.289,10.289,10.289,10.289,10.289,10.289,10.289,10.289,10.289,10.289,10.289,10.289,10.289,10.289,10.289,10.2812,10.2383,10.2383,10.1992,10.0781,0.0,0.0,0.0,0.0,0.0,0.0,0.0,0.0,0.0,0.0,0.0,0.0,0.0,0.0,0.0,0.0,0.0,9.9772,0.0,10.0481,10.1289,10.1289,10.1289,10.1289,10.1289,10.1289,10.1289,10.1611,10.199,10.2373,10.2601,10.2789,10.289,10.289,10.289,10.289,10.289,10.289,10.289,10.289,10.289,10.289,9.5781,0.0,9.5937,0.0,9.664,9.7422,9.8008,9.8828,9.9609,10.0195,9.9219,9.8476,9.8476,9.8476,9.8476,9.8476,9.8476,9.8476,9.8476,9.8476,9.8476,9.8476,9.8476,0.0,9.8476,9.789,9.707,9.5937,9.3867,0.0,9.1133,9.0195,9.1328,9.4179,9.6289,9.8164,9.9804,10.039,10.1211,10.1992,10.1992,10.2383,10.289,10.289,10.289,10.289,10.289,10.289,10.289,10.289,10.289,10.289,10.289,10.289,10.289,10.289,10.289,10.289,10.289,10.289,10.289,10.289,10.289,10.289,10.289,10.289,10.289,10.289,10.289,10.289,10.289,10.289,10.2695,10.2109,10.1992,0.0,0.0,10.1094,0.0,0.0,9.8984,9.8047,9.6953,9.6094,0.0,0.0,0.0,0.0,0.0,0.0,0.0,0.0,0.0,0.0,10.1404,10.1366,10.1366,10.1404,10.1404,10.1404,10.1404,10.178,10.219,10.2596,10.2683,10.2788,10.289,10.289,10.289,10.289,10.289,10.289,10.289,10.289,10.289,10.289,9.75,9.7656,9.7656,9.7656,9.8398,9.8984,9.8984,9.9726,10.0312,10.0312,10.0312,10.0312,10.0312,10.0312,10.0312,10.0312,10.0312,10.0312,10.0312,10.0312,10.0312,0.0,0.0,10.0312,10.0312,10.0312,9.9414,9.7656,0.0,0.0,9.3867,9.4726,9.6015,9.7695,9.8554,9.9922,10.1601,10.1601,10.2109,10.289,10.289,10.289,10.289,10.289,10.289,10.289,10.289,10.289,10.289,10.289,10.289,10.289,10.289,10.289,10.289,10.289,10.289,10.289,10.289,10.289,10.289,10.289,10.289,10.289,10.289,10.289,10.289,10.289,10.289,10.289,10.289,10.289,10.289,10.289,10.289,10.289,0.0,10.289,0.0,10.1719,10.0781,9.9609,9.7851,9.6953,0.0,0.0,0.0,0.0,0.0,0.0,0.0,9.9259,9.9887,0.0,10.1624,10.1478,10.1478,10.1585,10.1585,10.1585,10.1585,10.1995,10.2317,10.2596,10.2683,10.2788,10.289,10.289,10.289,10.289,10.289,10.289,10.289,10.289,10.289,10.289,9.7656,9.8164,9.8594,9.8594,9.9297,10.0117,10.0703,10.1015,10.1406,10.1992,10.2109,10.2109,10.2109,10.1015,10.0312,0.0,10.0312,10.0312,0.0,10.0312,10.0312,10.0312,10.0312,10.0312,10.0312,10.0312,10.0,9.9453,0.0,9.7617,9.6523,9.7383,9.8398,9.9492,10.039,10.1406,10.25,10.25,10.2617,10.289,10.289,10.289,10.289,10.289,10.289,10.289,10.289,10.289,10.289,10.289,10.289,10.289,10.289,10.289,10.289,10.289,10.289,10.289,10.289,10.289,10.289,10.289,10.289,10.289,10.289,10.289,10.289,10.289,10.289,10.289,10.289,10.289,10.289,10.289,10.289,10.289,10.289,10.289,10.2383,10.0898,10.0508,9.9844,9.8711,9.8359,0.0,0.0,0.0,0.0,0.0,0.0,0.0,0.0,10.0372,0.0,10.1677,10.1716,10.1677,10.1812,10.1787,10.1773,10.199,10.2195,10.2499,10.2685,10.2821,10.2788,10.289,10.289,10.289,10.289,10.289,10.289,10.289,10.289,10.289,10.289,9.8672,9.9101,9.9492,9.9492,10.0195,10.1015,10.1484,10.1914,10.2304,10.2812,10.289,10.289,10.289,10.1914,0.0,10.1289,10.1289,10.1289,10.1289,10.1289,10.1289,10.1289,10.1289,10.1289,10.1289,10.1289,10.1094,10.0781,9.9922,9.9375,9.9179,9.9726,10.039,10.1289,10.1797,10.2383,10.289,10.289,10.289,10.289,10.289,10.289,10.289,10.289,10.289,10.289,10.289,10.289,10.289,10.289,10.289,10.289,10.289,10.289,10.289,10.289,10.289,10.289,10.289,10.289,10.289,10.289,10.289,10.289,10.289,10.289,10.289,10.289,10.289,10.289,10.289,10.289,10.289,10.289,10.289,10.289,10.289,10.289,10.2383,10.1015,10.0781,10.039,0.0,9.9492,9.914,0.0,0.0,0.0,0.0,0.0,0.0,10.0896,10.1103,10.1491,10.1995,10.198,10.2007,10.2087,10.2022,10.2113,10.2295,10.2382,10.2591,10.2694,10.2782,10.2905,10.289,10.289,10.289,10.289,10.289,10.289,10.289,10.289,10.289,10.289,10.0312,10.0312,10.039,10.039,10.1094,10.1719,10.1719,10.2383,10.289,10.289,10.289,10.289,10.289,10.289,10.289,10.289,0.0,0.0,10.289,10.289,10.289,10.289,10.289,10.289,10.289,10.289,10.25,10.1719,10.0898,10.0898,10.1719,10.1719,10.2109,10.289,10.289,10.289,10.289,10.289,10.289,10.289,10.289,10.289,10.289,10.289,10.289,10.289,10.289,10.289,10.289,10.289,10.289,10.289,10.289,10.289,10.289,10.289,10.289,10.289,10.289,10.289,10.289,10.289,10.289,10.289,10.289,10.289,10.289,10.289,10.289,10.289,10.289,10.289,10.289,10.289,10.289,10.289,10.289,10.289,10.2617,10.1719,10.1601,10.1289,10.0508,10.039,10.0117,0.0,0.0,0.0,0.0,0.0,9.9631,10.1291,10.1895,10.23,10.2421,10.2278,10.23,10.2382,10.2401,10.2498,10.2495,10.2585,10.2601,10.2694,10.2782,10.2905,10.289,10.289,10.289,10.289,10.289,10.289,10.289,10.289,10.289,10.289,0.0,0.0,10.1289,10.1289,10.1992,10.2617,10.2617,10.2812,10.289,10.289,10.289,10.289,10.289,10.289,10.289,10.289,10.289,10.289,10.289,10.289,10.289,10.289,10.289,10.289,10.289,10.289,10.2812,10.2617,10.2383,10.2383,10.2617,10.2617,10.2695,10.289,10.289,10.289,10.289,10.289,10.289,10.289,10.289,10.289,10.289,10.289,10.289,10.289,10.289,10.289,10.289,10.289,10.289,10.289,10.289,10.289,10.289,10.289,10.289,10.289,10.289,10.289,10.289,10.289,10.289,10.289,10.289,10.289,10.289,10.289,10.289,10.289,10.289,10.289,10.289,10.289,10.289,10.289,10.289,10.289,10.2617,10.1719,10.1601,10.1484,10.1289,10.1289,10.1211,0.0,0.0,10.1087,10.1316,10.0991,10.1383,10.2296,10.2504,10.2585,10.2616,10.2516,10.2513,10.2607,10.2709,10.2709,10.2702,10.2698,10.2815,10.2811,10.2899,10.2905,10.289,10.289,10.289,10.289,10.289,10.289,10.289,10.289,10.289,10.289,10.1484,10.1914,10.2187,10.2187,10.2617,10.289,10.289,10.289,10.289,10.289,10.289,10.289,10.289,10.289,10.289,10.289,10.289,10.289,10.289,10.289,10.289,10.289,10.289,10.289,10.289,10.289,10.289,10.289,10.289,10.289,10.289,10.289,10.289,10.289,10.289,10.289,10.289,10.289,10.289,10.289,10.289,10.289,10.289,10.289,10.289,10.289,10.289,10.289,10.289,10.289,10.289,10.289,10.289,10.289,10.289,10.289,10.289,10.289,10.289,10.289,10.289,10.289,10.289,10.289,10.289,10.289,10.289,10.289,10.289,10.289,10.289,10.2617,10.2304,10.2304,10.2304,10.2304,10.2304,10.2617,10.2695,10.2304,10.2187,10.2187,10.2187,10.2187,10.2187,10.2187,10.1797,10.1796,10.2183,10.1793,10.2015,10.2789,10.2781,10.2714,10.2698,10.2683,10.2704,10.2704,10.2811,10.2811,10.2782,10.2782,10.2811,10.2788,10.2888,10.2884,10.289,10.289,10.289,10.289,10.289,10.289,10.289,10.289,10.289,10.289,10.289,10.289,10.289,10.289,10.289,10.289,10.289,10.289,10.289,10.289,10.289,10.289,10.289,10.289,10.289,10.289,10.289,10.289,10.289,10.289,10.289,10.289,10.289,10.289,10.289,10.289,10.289,10.289,10.289,10.289,10.289,10.289,10.289,10.289,10.289,10.289,10.289,10.289,10.289,10.289,10.289,10.289,10.289,10.289,10.289,10.289,10.289,10.289,10.289,10.289,10.289,10.289,10.289,10.289,10.289,10.289,10.289,10.289,10.289,10.289,10.289,10.289,10.289,10.289,10.289,10.289,10.289,10.289,10.289,10.289,10.289,10.2187,10.1601,10.1601,10.1601,10.1601,10.1601,10.2383,10.289,10.289,10.289,10.289,10.289,10.289,10.289,10.289,10.2109,10.1992,10.289,10.2109,10.1991,10.2917,10.28,10.28,10.2917,10.2917,10.2917,10.2917,10.2917,10.2917,10.2917,10.2894,10.2881,10.2888,10.2886,10.289,10.289,10.289,10.289,10.289,10.289,10.289,10.289,10.289,10.289,10.289,10.289,10.289,10.289,10.289,10.289,10.289,10.289,10.289,10.289,10.289,10.289,10.289,10.289,10.289,10.289,10.289,10.289,10.289,10.289,10.289,10.289,10.289,10.289,10.289,10.289,10.289,10.289,10.289,10.289,10.289,10.289,10.289,10.289,10.289,10.289,10.289,10.289,10.289,10.289,10.289,10.289,10.289,10.289,10.289,10.289,10.289,10.289,10.289,10.289,10.289,10.289,10.289,10.289,10.289,10.289,10.289,10.289,10.289,10.289,10.289,10.289,10.289,10.289,10.289,10.289,10.289,10.289,10.289,10.289,10.289,10.289,10.2187,10.1601,10.1601,10.1601,10.1601,10.1601,10.2383,10.289,10.289,10.289,10.289,10.289,10.289,10.289,10.289,10.2109,10.1992,10.289,10.2109,10.1992,10.289,10.289,10.289,10.289,10.289,10.289,10.289,10.289,10.289,10.289,10.2889,10.2889,10.2889,10.289,10.289,10.289,10.289,10.289,10.289,10.289,10.289,10.289,10.289,10.289,10.289,10.289,10.289,10.289,10.289,10.289,10.289,10.289,10.289,10.289,10.289,10.289,10.289,10.289,10.289,10.289,10.289,10.289,10.289,10.289,10.289,10.289,10.289,10.289,10.289,10.289,10.289,10.289,10.289,10.289,10.289,10.289,10.289,10.289,10.289,10.289,10.289,10.289,10.289,10.289,10.289,10.289,10.289,10.289,10.289,10.289,10.289,10.289,10.289,10.289,10.289,10.289,10.289,10.289,10.289,10.289,10.289,10.289,10.289,10.289,10.289,10.289,10.289,10.289,10.289,10.289,10.289,10.289,10.289,10.289,10.289,10.289,10.2187,10.1601,10.1601,10.1601,10.1601,10.1601,10.1914,10.2187,10.2187,10.1797,10.1719,10.2187,10.2187,10.2383,10.289,10.2109,10.1797,10.2187,10.1797,10.1797,10.2187,10.2695,10.289,10.289,10.289,10.2888,10.291,10.291,10.2917,10.2886,10.2886,10.2888,10.289,10.289,10.289,10.289,10.289,10.289,10.289,10.289,10.289,10.289,10.289,10.289,10.289,10.289,10.289,10.289,10.289,10.289,10.289,10.289,10.289,10.289,10.289,10.289,10.289,10.289,10.289,10.289,10.289,10.289,10.289,10.289,10.289,10.289,10.289,10.289,10.289,10.289,10.289,10.289,10.289,10.289,10.289,10.289,10.289,10.289,10.289,10.289,10.289,10.289,10.289,10.289,10.289,10.289,10.289,10.289,10.289,10.289,10.289,10.289,10.289,10.289,10.289,10.289,10.289,10.289,10.289,10.289,10.289,10.289,10.289,10.289,10.289,10.289,10.289,10.289,10.289,10.289,10.289,10.289,10.289,10.289,10.289,10.289,10.2187,10.1601,10.1601,10.1601,10.1601,10.1601,10.1601,10.1601,10.1601,10.0781,10.0586,10.1211,10.1484,10.1914,10.25,10.1797,10.1406,10.1601,10.1406,10.1484,10.1914,10.2617,10.289,10.289,10.2889,10.291,10.291,10.291,10.2898,10.2894,10.2905,10.2914,10.2886,10.289,10.289,10.289,10.289,10.289,10.289,10.289,10.289,10.289,10.289,10.289,10.289,10.289,10.289,10.289,10.289,10.289,10.289,10.289,10.289,10.289,10.289,10.289,10.289,10.289,10.289,10.289,10.289,10.289,10.289,10.289,10.289,10.289,10.289,10.289,10.289,10.289,10.289,10.289,10.289,10.289,10.289,10.289,10.289,10.289,10.289,10.289,10.289,10.289,10.289,10.289,10.289,10.289,10.289,10.289,10.289,10.289,10.289,10.289,10.289,10.289,10.289,10.289,10.289,10.289,10.289,10.289,10.289,10.289,10.289,10.289,10.289,10.289,10.289,10.289,10.289,10.289,10.289,10.289,10.289,10.289,10.289,10.289,10.2187,10.1601,10.1601,10.1601,10.1601,10.1601,10.1601,10.1601,10.1601,10.0781,10.0312,10.039,10.1094,10.1601,10.1719,10.0898,10.0703,10.1601,10.0781,10.1094,10.2812,10.289,10.289,10.289,10.2905,10.291,10.2811,10.2694,10.2698,10.28,10.2694,10.2718,10.2803,10.2886,10.289,10.289,10.289,10.289,10.289,10.289,10.289,10.289,10.289,10.289,10.289,10.289,10.289,10.289,10.289,10.289,10.289,10.289,10.289,10.289,10.289,10.289,10.289,10.289,10.289,10.289,10.289,10.289,10.289,10.289,10.289,10.289,10.289,10.289,10.289,10.289,10.289,10.289,10.289,10.289,10.289,10.289,10.289,10.289,10.289,10.289,10.289,10.289,10.289,10.289,10.289,10.289,10.289,10.289,10.289,10.289,10.289,10.289,10.289,10.289,10.289,10.289,10.289,10.289,10.289,10.289,10.289,10.289,10.289,10.289,10.289,10.289,10.289,10.289,10.289,10.289,10.289,10.289,10.289,10.289,10.289,10.289,10.2617,10.2383,10.2383,10.2383,10.2383,10.2383,10.1914,10.1406,10.0898,10.0,9.9492,9.9492,9.9804,10.039,10.1484,10.0781,10.0703,10.1601,10.1289,10.1719,10.289,10.289,10.289,10.289,10.29,10.2821,10.2718,10.2718,10.2601,10.2616,10.2582,10.2616,10.2711,10.2797,10.2888,10.289,10.289,10.289,10.289,10.289,10.289,10.289,10.289,10.289,10.289,10.289,10.289,10.289,10.289,10.289,10.289,10.289,10.289,10.289,10.289,10.289,10.289,10.289,10.289,10.289,10.289,10.289,10.289,10.289,10.289,10.289,10.289,10.289,10.289,10.289,10.289,10.289,10.289,10.289,10.289,10.289,10.289,10.289,10.289,10.289,10.289,10.289,10.289,10.289,10.289,10.289,10.289,10.289,10.289,10.289,10.289,10.289,10.289,10.289,10.289,10.289,10.289,10.289,10.289,10.289,10.289,10.289,10.289,10.289,10.289,10.289,10.289,10.289,10.289,10.289,10.289,10.289,10.289,10.289,10.289,10.289,10.289,10.289,10.289,10.289,10.289,10.289,10.2109,10.1406,10.0781,9.9922,9.9297,9.9023,9.9258,9.9883,10.1094,10.0586,10.0703,10.1601,10.1601,10.1992,10.289,10.289,10.289,10.289,10.291,10.2802,10.2709,10.2601,10.2513,10.2516,10.2495,10.2514,10.2607,10.2693,10.28,10.289,10.289,10.289,10.289,10.289,10.289,10.289,10.289,10.289,10.289,10.289,10.289,10.289,10.289,10.289,10.289,10.289,10.289,10.289,10.289,10.289,10.289,10.289,10.289,10.289,10.289,10.289,10.289,10.289,10.289,10.289,10.289,10.289,10.289,10.289,10.289,10.289,10.289,10.289,10.289,10.289,10.289,10.289,10.289,10.289,10.289,10.289,10.289,10.289,10.289,10.289,10.289,10.289,10.289,10.289,10.289,10.289,10.289,10.289,10.289,10.289,10.289,10.289,10.289,10.289,10.289,10.289,10.289,10.289,10.289,10.289,10.289,10.289,10.289,10.289,10.289,10.289,10.289,10.289,10.289,10.289,10.289,10.289,10.289,10.289,10.289,10.289,10.2187,10.1601,10.1601,10.0781,9.9961,9.9101,9.9804,10.0312,10.0312,10.0312,10.0703,10.1601,10.1601,10.1992,10.289,10.289,10.289,10.289,10.2884,10.2888,10.2788,10.2601,10.2498,10.2499,10.2399,10.2381,10.2595,10.2685,10.2788,10.289,10.289,10.289,10.289,10.289,10.289,10.289,10.289,10.289,10.289,10.289,10.289,10.289,10.289,10.289,10.289,10.289,10.289,10.289,10.289,10.289,10.289,10.289,10.289,10.289,10.289,10.289,10.289,10.289,10.289,10.289,10.289,10.289,10.289,10.289,10.289,10.289,10.289,10.289,10.289,10.289,10.289,10.289,10.289,10.289,10.289,10.289,10.289,10.289,10.289,10.289,10.289,10.289,10.289,10.289,10.289,10.289,10.289,10.289,10.289,10.289,10.289,10.289,10.289,10.289,10.289,10.289,10.289,10.289,10.289,10.289,10.289,10.289,10.289,10.289,10.289,10.289,10.289,10.289,10.289,10.289,10.289,10.289,10.289,10.289,10.289,10.289,10.2695,10.2304,10.1719,10.1406,10.0898,10.0,10.0117,10.0586,10.1211,10.1797,10.2187,10.25,10.25,10.2617,10.289,10.289,10.289,10.289,10.2884,10.2816,10.2685,10.2592,10.2401,10.2295,10.2272,10.23,10.242,10.2595,10.2711,10.2806,10.2889,10.289,10.289,10.289,10.289,10.289,10.289,10.289,10.289,10.289,10.289,10.289,10.289,10.289,10.289,10.289,10.289,10.289,10.289,10.289,10.289,10.289,10.289,10.289,10.289,10.289,10.289,10.289,10.289,10.289,10.289,10.289,10.289,10.289,10.289,10.289,10.289,10.289,10.289,10.289,10.289,10.289,10.289,10.289,10.289,10.289,10.289,10.289,10.289,10.289,10.289,10.289,10.289,10.289,10.289,10.289,10.289,10.289,10.289,10.289,10.289,10.289,10.289,10.289,10.289,10.289,10.289,10.289,10.289,10.289,10.289,10.289,10.289,10.289,10.289,10.289,10.289,10.289,10.289,10.289,10.289,10.289,10.289,10.289,10.289,10.289,10.289,10.2695,10.2187,10.2109,10.1797,10.0898,10.0781,10.1015,10.1601,10.2383,10.289,10.289,10.289,10.289,10.289,10.289,10.289,10.289,10.2888,10.2792,10.2711,10.2593,10.2491,10.23,10.2278,10.2399,10.2401,10.2585,10.2811,10.2797,10.2889,10.289,10.289,10.289,10.289,10.289,10.289,10.289,10.289,10.289,10.289,10.289,10.289,10.289,10.289,10.289,10.289,10.289,10.289,10.289,10.289,10.289,10.289,10.289,10.289,10.289,10.289,10.289,10.289,10.289,10.289,10.289,10.289,10.289,10.289,10.289,10.289,10.289,10.289,10.289,10.289,10.289,10.289,10.289,10.289,10.289,10.289,10.289,10.289,10.289,10.289,10.289,10.289,10.289,10.289,10.289,10.289,10.289,10.289,10.289,10.289,10.289,10.289,10.289,10.289,10.289,10.289,10.289,10.289,10.289,10.289,10.289,10.289,10.289,10.289,10.289,10.289,10.289,10.289,10.289,10.289,10.289,10.289,10.289,10.289,10.289,10.289,10.289,10.289,10.289,10.2617,10.1797,10.1719,10.1719,10.1719,10.25,10.289,10.289,10.289,10.289,10.289,10.289,10.289,10.289,10.289,10.2884,10.2796,10.2718,10.2605,10.2495,10.242,10.24,10.2523,10.2594,10.2776,10.2914,10.2889,10.289,10.289,10.289,10.289,10.289,10.289,10.289,10.289,10.289,10.289,10.289,10.289,10.289,10.289,10.289,10.289,10.289,10.289,10.289,10.289,10.289,10.289,10.289,10.289,10.289,10.289,10.289,10.289,10.289,10.289,10.289,10.289,10.289,10.289,10.289,10.289,10.289,10.289,10.289,10.289,10.289,10.289,10.289,10.289,10.289,10.289,10.289,10.289,10.289,10.289,10.289,10.289,10.289,10.289,10.289,10.289,10.289,10.289,10.289,10.289,10.289,10.289,10.289,10.289,10.289,10.289,10.289,10.289,10.289,10.289,10.289,10.289,10.289,10.289,10.289,10.289,10.289,10.289,10.289,10.289,10.289,10.289,10.289,10.289,10.289,10.289,10.289,10.289,10.289,10.2812,10.2617,10.2617,10.2617,10.2617,10.2812,10.289,10.289,10.289,10.289,10.289,10.289,10.289,10.289,10.289,10.289,10.2886,10.2714,10.2601,10.2587,10.2592,10.2507,10.2484,10.2624,10.2686,10.2803,10.2886,10.289,10.289,10.289,10.289,10.289,10.289,10.289,10.2812,10.289,10.289,10.289,10.289,10.289,10.289,10.289,10.289,10.289,10.289,10.289,10.289,10.289,10.289,10.289,10.289,10.289,10.289,10.289,10.289,10.289,10.289,10.289,10.289,10.289,10.289,10.289,10.289,10.289,10.289,10.289,10.289,10.289,10.289,10.289,10.289,10.289,10.289,10.289,10.289,10.289,10.289,10.289,10.289,10.289,10.289,10.289,10.289,10.289,10.289,10.289,10.289,10.289,10.289,10.289,10.289,10.289,10.289,10.289,10.289,10.289,10.289,10.289,10.289,10.289,10.289,10.289,10.289,10.289,10.289,10.289,10.289,10.289,10.289,10.289,10.289,10.289,10.289,10.289,10.289,10.289,10.289,10.289,10.289,10.289,10.289,10.289,10.289,10.289,10.289,10.289,10.289,10.289,10.289,10.289,10.289,10.289,10.289,10.2808,10.2792,10.2711,10.2694,10.2686,10.262,10.2694,10.2803,10.2913,10.2886,10.289,10.289,10.289,10.289,10.289,10.289,10.2617,10.2187,10.289,10.289,10.289,10.289,10.289,10.289,10.289,10.289,10.289,10.289,10.289,10.289,10.289,10.289,10.289,10.289,10.289,10.289,10.289,10.289,10.289,10.289,10.289,10.289,10.289,10.289,10.289,10.289,10.289,10.289,10.289,10.289,10.289,10.289,10.289,10.289,10.289,10.289,10.289,10.289,10.289,10.289,10.289,10.289,10.289,10.289,10.289,10.289,10.289,10.289,10.289,10.289,10.289,10.289,10.289,10.289,10.289,10.289,10.289,10.289,10.289,10.289,10.289,10.289,10.289,10.289,10.289,10.289,10.289,10.289,10.289,10.289,10.289,10.289,10.289,10.289,10.289,10.289,10.289,10.289,10.289,10.289,10.289,10.289,10.289,10.289,10.289,10.289,10.289,10.289,10.289,10.289,10.289,10.289,10.289,10.289,10.289,10.289,10.289,10.2884,10.281,10.2803,10.282,10.2811,10.279,10.2788,10.2913,10.2886,10.289,10.289,10.289,10.289,10.289,10.2695,10.2187,10.1601,10.289,10.289,10.289,10.289,10.289,10.289,10.289,10.289,10.289,10.289,10.289,10.289,10.289,10.289,10.289,10.289,10.289,10.289,10.289,10.289,10.289,10.289,10.289,10.289,10.289,10.289,10.289,10.289,10.289,10.289,10.289,10.289,10.289,10.289,10.289,10.289,10.289,10.289,10.289,10.289,10.289,10.289,10.289,10.289,10.289,10.289,10.289,10.289,10.289,10.289,10.289,10.289,10.289,10.289,10.289,10.289,10.289,10.289,10.289,10.289,10.289,10.289,10.289,10.289,10.289,10.289,10.289,10.289,10.289,10.289,10.289,10.289,10.289,10.289,10.289,10.289,10.289,10.289,10.289,10.289,10.289,10.289,10.289,10.289,10.289,10.289,10.289,10.289,10.289,10.289,10.289,10.289,10.289,10.289,10.289,10.289,10.289,10.289,10.289,10.289,10.2889,10.2917,10.291,10.2905,10.2906,10.2898,10.2913,10.2886,10.289,10.289,10.289,10.289,10.2812,10.2109,10.1719,10.1406,10.289,10.289,10.289,10.289,10.289,10.289,10.289,10.289,10.289,10.289,10.289,10.289,10.289,10.289,10.289,10.289,10.289,10.289,10.289,10.289,10.289,10.289,10.289,10.289,10.289,10.289,10.289,10.289,10.289,10.289,10.289,10.289,10.289,10.289,10.289,10.289,10.289,10.289,10.289,10.289,10.289,10.289,10.289,10.289,10.289,10.289,10.289,10.289,10.289,10.289,10.289,10.289,10.289,10.289,10.289,10.289,10.289,10.289,10.289,10.289,10.289,10.289,10.289,10.289,10.289,10.289,10.289,10.289,10.289,10.289,10.289,10.289,10.289,10.289,10.289,10.289,10.289,10.289,10.289,10.289,10.289,10.289,10.289,10.289,10.289,10.289,10.2383,10.2187,10.2187,10.1719,10.1406,10.1406,10.1914,10.2187,10.2187,10.2695,10.289,10.289,10.289,10.289,10.289,10.2889,10.2886,10.2886,10.2882,10.2917,10.2917,10.2382,10.2187,10.2187,10.2187,10.2187,10.2109,10.1719,10.1015,10.0]},{"header":{"parameterUnit":"m.s-1","parameterCategory":1,"la1":30.6,"la2":28.766,"lo1":-90.7593,"lo2":-88.6598,"dx":0.0162,"dy":0.0183,"nx":116,"ny":114,"refTime":"2022-11-14T18:00:00:Z","depth":0,"parameterNumber":3,"parameterNumberName":"V-component_of_WINDS"},"data":[0.0,0.0,0.0,0.0,0.0,0.0,0.0,0.0,0.0,0.0,0.0,0.0,0.0,0.0,0.0,0.0,0.0,0.0,0.0,0.0,0.0,0.0,0.0,0.0,0.0,0.0,0.0,0.0,0.0,0.0,0.0,0.0,0.0,0.0,0.0,0.0,0.0,0.0,0.0,0.0,0.0,0.0,0.0,0.0,0.0,0.0,0.0,0.0,0.0,0.0,0.0,0.0,0.0,0.0,0.0,0.0,0.0,0.0,0.0,0.0,0.0,0.0,0.0,0.0,0.0,0.0,0.0,0.0,0.0,0.0,0.0,0.0,0.0,0.0,0.0,0.0,0.0,0.0,0.0,0.0,0.0,0.0,0.0,0.0,0.0,0.0,0.0,0.0,0.0,0.0,0.0,0.0,0.0,0.0,0.0,0.0,0.0,0.0,0.0,0.0,0.0,0.0,0.0,0.0,0.0,0.0,0.0,0.0,0.0,0.0,0.0,0.0,0.0,0.0,0.0,0.0,0.0,0.0,0.0,0.0,0.0,0.0,0.0,0.0,0.0,0.0,0.0,0.0,0.0,0.0,0.0,0.0,0.0,0.0,0.0,0.0,0.0,0.0,0.0,0.0,0.0,0.0,0.0,0.0,0.0,0.0,0.0,0.0,0.0,0.0,0.0,0.0,0.0,0.0,0.0,0.0,0.0,0.0,0.0,0.0,0.0,0.0,0.0,0.0,0.0,0.0,0.0,0.0,0.0,0.0,0.0,0.0,0.0,0.0,0.0,0.0,0.0,0.0,0.0,0.0,0.0,0.0,0.0,0.0,0.0,0.0,0.0,0.0,0.0,0.0,0.0,0.0,0.0,0.0,0.0,0.0,0.0,0.0,0.0,0.0,0.0,0.0,0.0,0.0,0.0,0.0,0.0,0.0,0.0,0.0,0.0,0.0,0.0,0.0,0.0,0.0,0.0,0.0,0.0,0.0,0.0,0.0,0.0,0.0,0.0,0.0,0.0,0.0,0.0,0.0,0.0,0.0,0.0,0.0,0.0,0.0,0.0,0.0,0.0,0.0,0.0,0.0,0.0,0.0,0.0,0.0,0.0,0.0,0.0,0.0,0.0,0.0,0.0,0.0,0.0,0.0,0.0,0.0,0.0,0.0,0.0,0.0,0.0,0.0,0.0,0.0,0.0,0.0,0.0,0.0,0.0,0.0,0.0,0.0,0.0,0.0,0.0,0.0,0.0,0.0,0.0,0.0,0.0,0.0,0.0,0.0,0.0,0.0,0.0,0.0,0.0,0.0,0.0,0.0,0.0,0.0,0.0,0.0,0.0,0.0,0.0,0.0,0.0,0.0,0.0,0.0,0.0,0.0,0.0,0.0,0.0,0.0,0.0,0.0,0.0,0.0,0.0,0.0,0.0,0.0,0.0,0.0,0.0,0.0,0.0,0.0,0.0,0.0,0.0,0.0,0.0,0.0,0.0,0.0,0.0,0.0,0.0,0.0,0.0,0.0,0.0,0.0,0.0,0.0,0.0,0.0,0.0,0.0,0.0,0.0,0.0,0.0,0.0,0.0,0.0,0.0,0.0,0.0,0.0,0.0,0.0,0.0,0.0,0.0,0.0,0.0,0.0,0.0,0.0,0.0,0.0,0.0,0.0,0.0,0.0,0.0,0.0,0.0,0.0,0.0,0.0,0.0,0.0,0.0,0.0,0.0,0.0,0.0,0.0,0.0,0.0,0.0,0.0,0.0,0.0,0.0,0.0,0.0,0.0,0.0,0.0,0.0,0.0,0.0,0.0,0.0,0.0,0.0,0.0,0.0,0.0,0.0,0.0,0.0,0.0,0.0,0.0,0.0,0.0,0.0,0.0,0.0,0.0,0.0,0.0,0.0,0.0,0.0,0.0,0.0,0.0,0.0,0.0,0.0,0.0,0.0,0.0,0.0,0.0,0.0,0.0,0.0,0.0,0.0,0.0,0.0,0.0,0.0,0.0,0.0,0.0,0.0,0.0,0.0,0.0,0.0,0.0,0.0,0.0,0.0,0.0,0.0,0.0,0.0,0.0,0.0,0.0,0.0,0.0,0.0,0.0,0.0,0.0,0.0,0.0,0.0,0.0,0.0,0.0,0.0,0.0,0.0,0.0,0.0,0.0,0.0,0.0,0.0,0.0,0.0,0.0,0.0,0.0,0.0,0.0,0.0,0.0,0.0,0.0,0.0,0.0,0.0,0.0,0.0,0.0,0.0,0.0,0.0,0.0,0.0,0.0,0.0,0.0,0.0,0.0,0.0,0.0,0.0,0.0,0.0,0.0,0.0,0.0,0.0,0.0,0.0,0.0,0.0,0.0,0.0,0.0,0.0,0.0,0.0,0.0,0.0,0.0,0.0,0.0,0.0,0.0,0.0,0.0,0.0,0.0,0.0,0.0,0.0,0.0,0.0,0.0,0.0,0.0,0.0,0.0,0.0,0.0,0.0,0.0,0.0,0.0,0.0,0.0,0.0,0.0,0.0,0.0,0.0,0.0,0.0,0.0,0.0,0.0,0.0,0.0,0.0,0.0,0.0,0.0,0.0,0.0,0.0,0.0,0.0,0.0,0.0,0.0,0.0,0.0,0.0,0.0,0.0,0.0,0.0,0.0,0.0,0.0,0.0,0.0,0.0,0.0,0.0,0.0,0.0,0.0,0.0,0.0,0.0,0.0,0.0,0.0,0.0,0.0,0.0,0.0,0.0,0.0,0.0,0.0,0.0,0.0,0.0,0.0,0.0,0.0,0.0,0.0,0.0,0.0,0.0,0.0,0.0,0.0,0.0,0.0,0.0,0.0,0.0,0.0,0.0,0.0,0.0,0.0,0.0,0.0,0.0,0.0,0.0,0.0,0.0,0.0,0.0,0.0,0.0,0.0,0.0,0.0,0.0,0.0,0.0,0.0,0.0,0.0,0.0,0.0,0.0,0.0,0.0,0.0,0.0,0.0,0.0,0.0,0.0,0.0,0.0,0.0,0.0,0.0,0.0,0.0,0.0,0.0,0.0,0.0,0.0,0.0,0.0,0.0,0.0,0.0,0.0,0.0,0.0,0.0,0.0,0.0,0.0,0.0,0.0,0.0,0.0,0.0,0.0,0.0,0.0,0.0,0.0,0.0,0.0,0.0,0.0,0.0,0.0,0.0,0.0,0.0,0.0,0.0,0.0,0.0,0.0,0.0,0.0,0.0,0.0,0.0,0.0,0.0,0.0,0.0,0.0,0.0,0.0,0.0,0.0,0.0,0.0,0.0,0.0,0.0,0.0,0.0,0.0,0.0,0.0,0.0,0.0,0.0,0.0,0.0,0.0,0.0,0.0,0.0,0.0,0.0,0.0,0.0,0.0,0.0,0.0,0.0,0.0,0.0,0.0,0.0,0.0,0.0,0.0,0.0,0.0,0.0,0.0,0.0,0.0,0.0,0.0,0.0,0.0,0.0,0.0,0.0,0.0,0.0,0.0,0.0,0.0,0.0,0.0,0.0,0.0,0.0,0.0,0.0,0.0,0.0,0.0,0.0,0.0,0.0,0.0,0.0,0.0,0.0,0.0,0.0,0.0,0.0,0.0,0.0,0.0,0.0,0.0,0.0,0.0,0.0,0.0,0.0,0.0,0.0,0.0,0.0,0.0,0.0,0.0,0.0,0.0,0.0,0.0,0.0,0.0,0.0,0.0,0.0,0.0,0.0,0.0,0.0,0.0,0.0,0.0,0.0,0.0,0.0,0.0,0.0,0.0,0.0,0.0,0.0,0.0,0.0,0.0,0.0,0.0,0.0,0.0,0.0,0.0,0.0,0.0,0.0,0.0,0.0,0.0,0.0,0.0,0.0,0.0,0.0,0.0,0.0,0.0,0.0,0.0,0.0,0.0,0.0,0.0,0.0,0.0,0.0,0.0,0.0,0.0,0.0,0.0,0.0,0.0,0.0,0.0,0.0,0.0,0.0,0.0,0.0,0.0,0.0,0.0,0.0,0.0,0.0,0.0,0.0,0.0,0.0,0.0,0.0,0.0,0.0,0.0,0.0,0.0,0.0,0.0,0.0,0.0,0.0,0.0,0.0,0.0,0.0,0.0,0.0,0.0,0.0,0.0,0.0,0.0,0.0,0.0,0.0,0.0,0.0,0.0,0.0,0.0,0.0,0.0,0.0,0.0,0.0,0.0,0.0,0.0,0.0,0.0,0.0,0.0,0.0,0.0,0.0,0.0,0.0,0.0,0.0,0.0,0.0,0.0,0.0,0.0,0.0,0.0,0.0,0.0,0.0,0.0,0.0,0.0,0.0,0.0,0.0,0.0,0.0,0.0,0.0,0.0,0.0,0.0,0.0,0.0,0.0,0.0,0.0,0.0,0.0,0.0,0.0,0.0,0.0,0.0,0.0,0.0,0.0,0.0,0.0,0.0,0.0,0.0,0.0,0.0,0.0,0.0,0.0,0.0,0.0,0.0,0.0,0.0,0.0,0.0,0.0,0.0,0.0,0.0,0.0,0.0,0.0,0.0,0.0,0.0,0.0,0.0,0.0,0.0,0.0,0.0,0.0,0.0,0.0,0.0,0.0,0.0,0.0,0.0,0.0,0.0,0.0,0.0,0.0,0.0,0.0,0.0,0.0,0.0,0.0,0.0,0.0,0.0,0.0,0.0,0.0,0.0,0.0,0.0,0.0,0.0,0.0,0.0,0.0,0.0,0.0,0.0,0.0,0.0,0.0,0.0,0.0,0.0,0.0,0.0,0.0,0.0,0.0,0.0,0.0,0.0,0.0,0.0,0.0,0.0,0.0,0.0,0.0,0.0,0.0,0.0,0.0,0.0,0.0,0.0,0.0,0.0,0.0,0.0,0.0,0.0,0.0,0.0,0.0,0.0,0.0,0.0,0.0,0.0,0.0,0.0,0.0,0.0,0.0,0.0,0.0,0.0,0.0,0.0,0.0,0.0,0.0,0.0,0.0,0.0,0.0,0.0,0.0,0.0,0.0,0.0,0.0,0.0,0.0,0.0,0.0,0.0,0.0,0.0,0.0,0.0,0.0,0.0,0.0,0.0,0.0,0.0,0.0,0.0,0.0,0.0,0.0,0.0,0.0,0.0,0.0,0.0,0.0,0.0,0.0,0.0,0.0,0.0,0.0,0.0,0.0,0.0,0.0,0.0,0.0,0.0,0.0,0.0,0.0,0.0,0.0,0.0,0.0,0.0,0.0,0.0,0.0,0.0,0.0,0.0,0.0,0.0,0.0,0.0,0.0,0.0,0.0,0.0,0.0,0.0,0.0,0.0,0.0,0.0,0.0,0.0,0.0,0.0,0.0,0.0,0.0,0.0,0.0,0.0,0.0,0.0,0.0,0.0,0.0,0.0,0.0,0.0,0.0,0.0,0.0,0.0,0.0,0.0,0.0,0.0,0.0,0.0,0.0,0.0,0.0,0.0,0.0,0.0,0.0,0.0,0.0,0.0,0.0,0.0,0.0,0.0,0.0,0.0,0.0,0.0,0.0,0.0,0.0,0.0,0.0,0.0,0.0,0.0,0.0,0.0,0.0,0.0,0.0,0.0,0.0,0.0,0.0,0.0,0.0,0.0,0.0,0.0,0.0,0.0,0.0,0.0,0.0,0.0,0.0,0.0,0.0,0.0,0.0,0.0,0.0,0.0,0.0,0.0,0.0,0.0,0.0,0.0,0.0,0.0,0.0,0.0,0.0,0.0,0.0,0.0,0.0,0.0,0.0,0.0,0.0,0.0,0.0,0.0,0.0,0.0,0.0,0.0,0.0,0.0,0.0,0.0,0.0,0.0,0.0,0.0,0.0,0.0,0.0,0.0,0.0,0.0,0.0,0.0,0.0,0.0,0.0,0.0,0.0,0.0,0.0,0.0,0.0,0.0,0.0,0.0,0.0,0.0,0.0,0.0,0.0,0.0,0.0,0.0,0.0,0.0,0.0,0.0,0.0,0.0,0.0,0.0,0.0,0.0,0.0,0.0,0.0,0.0,0.0,0.0,0.0,0.0,0.0,0.0,0.0,0.0,0.0,0.0,0.0,0.0,0.0,0.0,0.0,0.0,0.0,0.0,0.0,0.0,0.0,0.0,0.0,0.0,0.0,0.0,-1.0181,0.0,0.0,0.0,0.0,0.0,0.0,0.0,0.0,0.0,0.0,0.0,0.0,0.0,0.0,0.0,0.0,0.0,0.0,0.0,0.0,0.0,0.0,0.0,0.0,-0.677,-0.6895,-0.6894,-0.6786,0.0,0.0,0.0,0.0,0.0,0.0,0.0,-0.6471,-0.6614,-0.6837,-0.7129,-0.7118,-0.7205,-0.735,-0.744,-0.7452,-0.7197,0.0,0.0,0.0,0.0,0.0,0.0,0.0,0.0,0.0,0.0,0.0,0.0,0.0,0.0,0.0,0.0,0.0,0.0,0.0,0.0,0.0,0.0,0.0,0.0,0.0,0.0,0.0,0.0,0.0,0.0,0.0,0.0,0.0,0.0,0.0,0.0,0.0,0.0,0.0,0.0,0.0,0.0,0.0,0.0,0.0,0.0,0.0,0.0,0.0,0.0,0.0,0.0,0.0,0.0,0.0,0.0,0.0,0.0,0.0,0.0,0.0,0.0,0.0,0.0,0.0,0.0,0.0,0.0,0.0,0.0,0.0,-1.0534,0.0,0.0,0.0,0.0,0.0,0.0,0.0,0.0,0.0,0.0,0.0,0.0,0.0,0.0,0.0,0.0,0.0,0.0,0.0,0.0,0.0,-0.6627,-0.6702,-0.697,-0.7337,-0.7665,-0.7417,-0.7238,-0.7271,-0.7128,0.0,0.0,0.0,0.0,-0.6652,-0.6853,-0.7091,-0.7555,-0.7541,-0.7669,-0.7812,-0.8082,-0.7915,-0.7247,-0.6839,0.0,0.0,0.0,0.0,0.0,0.0,0.0,0.0,0.0,0.0,0.0,0.0,0.0,0.0,0.0,0.0,0.0,0.0,0.0,0.0,0.0,0.0,0.0,0.0,0.0,0.0,0.0,0.0,0.0,0.0,0.0,0.0,0.0,0.0,0.0,0.0,0.0,0.0,0.0,0.0,0.0,0.0,0.0,0.0,0.0,0.0,0.0,0.0,0.0,0.0,0.0,0.0,0.0,0.0,0.0,0.0,0.0,0.0,0.0,0.0,0.0,0.0,0.0,-1.225,-1.2474,-1.2739,-1.2868,-1.2922,-1.2874,-1.2006,-1.1402,-1.1016,-1.0839,0.0,0.0,0.0,0.0,0.0,0.0,0.0,0.0,0.0,0.0,0.0,0.0,0.0,0.0,0.0,0.0,0.0,0.0,0.0,-0.6817,-0.721,-0.7407,-0.7617,-0.7973,-0.7707,-0.7654,-0.7903,-0.7362,0.0,0.0,0.0,-0.6763,-0.6629,-0.6744,-0.69,-0.7194,-0.8636,-0.9341,-0.9226,-0.8374,-0.7425,-0.6241,-0.6629,-0.6474,-0.5824,0.0,0.0,0.0,0.0,0.0,0.0,0.0,0.0,0.0,0.0,0.0,0.0,0.0,0.0,0.0,0.0,0.0,0.0,0.0,0.0,0.0,0.0,0.0,0.0,0.0,0.0,0.0,0.0,0.0,0.0,0.0,0.0,0.0,0.0,0.0,0.0,0.0,0.0,0.0,0.0,0.0,-0.991,-0.993,0.0,0.0,0.0,0.0,0.0,0.0,0.0,0.0,0.0,0.0,0.0,0.0,0.0,-1.1708,-1.1884,-1.244,-1.2813,-1.2996,-1.3288,-1.3505,-1.3661,-1.3688,-1.3695,-1.3688,-1.3546,0.0,-1.2244,-1.1965,0.0,0.0,0.0,0.0,0.0,0.0,0.0,0.0,0.0,0.0,0.0,0.0,0.0,0.0,0.0,0.0,0.0,0.0,0.0,0.0,0.0,-0.8031,-0.8343,-0.8642,-0.8297,-0.8214,-0.8336,-0.7905,0.0,0.0,-0.7319,-0.7222,-0.7069,-0.718,-0.7351,-0.7583,-0.9047,-0.9983,-1.0123,-0.9735,-0.8079,-0.5602,-0.483,-0.494,-0.5522,-0.5192,0.0,0.0,0.0,0.0,0.0,0.0,0.0,0.0,0.0,0.0,0.0,0.0,0.0,0.0,0.0,0.0,0.0,0.0,0.0,0.0,0.0,0.0,0.0,0.0,0.0,0.0,0.0,0.0,0.0,0.0,0.0,0.0,0.0,0.0,0.0,0.0,0.0,0.0,0.0,-1.0188,-1.0555,-1.0555,-1.0419,-1.0236,0.0,0.0,0.0,0.0,0.0,0.0,0.0,0.0,0.0,-1.1809,-1.2318,-1.2657,-1.2813,-1.3329,-1.3702,-1.3926,-1.415,-1.4373,-1.4597,-1.4597,-1.4597,-1.4597,-1.4597,-1.4326,-1.3824,-1.3017,-1.2379,-1.1884,0.0,0.0,0.0,0.0,-1.1565,-1.1864,0.0,0.0,0.0,0.0,0.0,0.0,0.0,0.0,0.0,0.0,0.0,0.0,-0.8269,-0.8757,-0.9171,-0.9469,-0.911,-0.8889,-0.897,-0.8362,-0.7941,-0.7859,-0.7667,-0.7504,-0.737,-0.8238,-0.8853,-0.9128,-1.0231,-1.0884,-1.1335,-1.1066,-0.8925,-0.5446,-0.3593,-0.342,-0.458,-0.4311,-0.386,-0.3218,0.0,0.0,0.0,0.0,0.0,0.0,0.0,0.0,0.0,0.0,0.0,0.0,0.0,0.0,0.0,0.0,0.0,0.0,0.0,0.0,0.0,0.0,0.0,0.0,0.0,0.0,0.0,0.0,0.0,0.0,0.0,0.0,0.0,0.0,0.0,0.0,0.0,-1.0778,-1.109,-1.1165,-1.1043,-1.0846,0.0,0.0,0.0,0.0,0.0,0.0,-1.1816,-1.2094,-1.2406,-1.2779,-1.3261,-1.3587,-1.3743,-1.419,-1.4523,-1.4746,-1.4896,-1.5086,-1.5303,-1.5303,-1.5303,-1.5303,-1.5303,-1.5242,-1.5059,-1.3966,-1.3275,-1.2874,-1.2576,-1.2305,-1.2108,-1.2366,-1.2623,-1.2895,0.0,0.0,0.0,0.0,0.0,0.0,0.0,0.0,0.0,0.0,0.0,-0.8445,-0.9035,-0.9625,-1.01,-1.0399,-0.9909,-0.9666,-0.9764,-0.8747,-0.8097,-0.8031,-0.7755,-0.7419,-0.713,-0.9975,-1.1748,-1.225,-1.2881,-1.3177,-1.3316,-1.2087,-0.9357,-0.5531,-0.3596,-0.2627,-0.2448,-0.2503,-0.2409,-0.2306,-0.3231,0.0,0.0,0.0,0.0,0.0,0.0,0.0,0.0,0.0,0.0,0.0,0.0,0.0,0.0,0.0,0.0,0.0,0.0,0.0,0.0,0.0,0.0,0.0,0.0,0.0,0.0,0.0,0.0,0.0,0.0,0.0,0.0,0.0,0.0,0.0,0.0,0.0,0.0,-1.1755,-1.166,0.0,0.0,0.0,0.0,-1.1552,-1.1965,-1.2284,-1.2447,-1.301,-1.3397,-1.3566,-1.4136,-1.4516,-1.4672,-1.512,-1.535,-1.5364,-1.552,-1.5601,-1.5615,-1.5615,-1.5615,-1.5615,-1.5615,-1.5615,-1.5547,-1.4767,-1.4265,-1.3966,-1.3668,-1.3451,-1.3329,-1.3492,-1.3648,-1.3838,0.0,0.0,0.0,-0.5528,-0.5711,-0.5942,-0.6146,-0.6512,-0.698,-0.7577,-0.8262,-0.9001,-0.9795,-1.0412,-1.0928,-1.1321,-1.0927,-1.0631,-1.0531,-0.9404,-0.8453,-0.8026,-0.8063,-0.8049,-0.7697,-1.0683,-1.1868,-1.1408,-1.1878,-1.1555,-1.0219,-0.9805,-0.8242,-0.5552,-0.3721,-0.2777,-0.2522,-0.127,-0.0761,-0.0884,-0.1087,-0.1393,0.0,0.0,0.0,0.0,0.0,0.0,0.0,0.0,0.0,0.0,0.0,0.0,0.0,0.0,0.0,0.0,0.0,0.0,0.0,0.0,0.0,0.0,0.0,0.0,0.0,0.0,0.0,0.0,0.0,0.0,0.0,0.0,0.0,0.0,0.0,0.0,0.0,-1.2366,-1.2277,0.0,-1.225,-1.2162,-1.221,-1.2461,-1.2807,-1.3112,-1.3349,-1.3756,-1.4089,-1.4333,-1.4733,-1.5018,-1.5174,-1.5425,-1.5601,-1.5696,-1.575,-1.5832,-1.5927,-1.5927,-1.5927,-1.5927,-1.5927,-1.5927,-1.5893,-1.5527,-1.514,-1.476,-1.4462,-1.4251,-1.4136,-1.4285,-1.4441,-1.4618,0.0,0.0,0.0,-0.5677,-0.5908,-0.6159,-0.6308,-0.6803,-0.7366,-0.7957,-0.8784,-0.9639,-1.0487,-1.1158,-1.1701,-1.2101,-1.1534,-1.1205,-1.1077,-0.9817,-0.8841,-0.8251,-0.8859,-0.938,-0.9507,-1.1743,-1.2262,-1.0953,-1.0636,-0.9655,-0.782,-0.699,-0.6092,-0.4783,-0.3474,-0.2539,-0.179,-0.0513,0.0,0.0,0.0,-0.0276,-0.0646,0.0,0.0,0.0,0.0,0.0,0.0,0.0,0.0,0.0,0.0,0.0,0.0,0.0,0.0,0.0,0.0,0.0,0.0,0.0,0.0,0.0,0.0,0.0,0.0,0.0,0.0,0.0,0.0,0.0,0.0,0.0,0.0,0.0,0.0,0.0,-1.2474,-1.2976,-1.2942,-1.2942,-1.3091,-1.3057,-1.3119,-1.3322,-1.3607,-1.3858,-1.4055,-1.4407,-1.4685,-1.4882,-1.5228,-1.5459,-1.556,-1.571,-1.5839,-1.5934,-1.5934,-1.5981,-1.6083,-1.6083,-1.6083,-1.6083,-1.6083,-1.6083,-1.6076,-1.5974,-1.5757,-1.5459,-1.516,-1.4984,-1.4903,-1.5004,-1.5106,-1.5228,0.0,0.0,-0.5813,-0.5813,-0.6064,-0.6315,-0.6458,-0.7115,-0.7814,-0.8418,-0.9408,-1.0344,-1.1104,-1.185,-1.242,-1.2718,-1.1956,-1.1473,-1.1371,-1.0082,-0.9131,-0.8756,-1.0085,-1.1279,-1.2484,-1.2963,-1.2713,-1.1302,-0.9299,-0.7628,-0.5821,-0.3986,-0.3037,-0.3009,-0.2822,-0.1684,0.0,0.0,0.0,0.0,0.0,0.0,0.0,0.0,0.0,0.0,0.0,0.0,0.0,0.0,0.0,0.0,0.0,0.0,0.0,0.0,0.0,0.0,0.0,0.0,0.0,0.0,0.0,0.0,0.0,0.0,0.0,0.0,0.0,0.0,0.0,0.0,0.0,0.0,0.0,0.0,-1.2298,-1.2569,-1.2983,-1.3587,-1.3654,-1.3715,-1.3865,-1.4014,-1.4102,-1.4102,-1.4373,-1.4536,-1.4529,-1.4957,-1.5194,-1.5194,-1.5622,-1.5852,-1.5859,-1.6008,-1.6083,-1.6083,-1.6083,-1.6083,-1.6083,-1.6083,-1.6083,-1.6083,-1.6083,-1.6083,-1.6083,-1.6083,-1.6083,-1.6056,-1.5757,-1.5649,-1.5649,-1.5649,-1.5649,-1.5676,-0.6051,-0.6084,-0.6098,-0.5983,-0.6213,-0.6464,-0.6614,-0.7183,-0.7896,-0.871,-0.9632,-1.0582,-1.1545,-1.2223,-1.2725,-1.3024,-1.2398,-1.2269,-1.2752,-1.086,-1.0145,-1.0692,-1.1541,-1.1824,-1.1288,-1.174,-1.0575,-0.7645,-0.5592,-0.3616,-0.1743,-0.1174,-0.0786,-0.0784,-0.0779,-0.0577,0.0,0.0,0.0,0.0,0.0,0.0,0.0,0.0,0.0,0.0,0.0,0.0,0.0,0.0,0.0,0.0,0.0,0.0,0.0,0.0,0.0,0.0,0.0,0.0,0.0,0.0,0.0,0.0,0.0,0.0,0.0,0.0,0.0,0.0,0.0,0.0,0.0,0.0,0.0,-1.2881,-1.2922,-1.3193,-1.36,-1.4197,-1.4272,-1.4373,-1.4638,-1.4699,-1.4767,-1.4869,-1.5052,-1.5113,-1.5004,-1.5323,-1.5513,-1.5513,-1.5737,-1.5906,-1.6015,-1.6062,-1.6083,-1.6083,-1.6083,-1.6083,-1.6083,-1.6083,-1.6083,-1.6083,-1.6083,-1.6083,-1.6083,-1.6083,-1.6083,-1.6062,-1.5872,-1.5791,-1.5791,-1.5791,-1.5866,-1.5967,-0.6146,-0.6247,-0.6322,-0.6234,-0.6464,-0.6715,-0.6865,-0.7455,-0.818,-0.9015,-0.9964,-1.0934,-1.1918,-1.2508,-1.2942,-1.3241,-1.2768,-1.2657,-1.3359,-1.1985,-1.1405,-1.2251,-1.2204,-1.1788,-1.1107,-1.0717,-0.9011,-0.6055,-0.4056,-0.1967,0.0,0.0,0.0,0.0,0.0,0.0,0.0,0.0,0.0,0.0,0.0,0.0,0.0,0.0,0.0,0.0,0.0,0.0,-0.0,-0.0392,0.0,0.0,0.0,0.0,0.0,0.0,0.0,0.0,0.0,0.0,0.0,0.0,0.0,0.0,0.0,0.0,0.0,0.0,0.0,0.0,0.0,0.0,0.0,0.0,-1.3105,-1.3641,-1.3892,-1.4021,-1.4265,-1.474,-1.4848,-1.4984,-1.5228,-1.5248,-1.5282,-1.5364,-1.5459,-1.5466,-1.5377,-1.5601,-1.573,-1.573,-1.5872,-1.5995,-1.6083,-1.6083,-1.6083,-1.6083,-1.6083,-1.6083,-1.6083,-1.6083,-1.6083,-1.6083,-1.6083,-1.6083,-1.6083,-1.6083,-1.6083,0.0,0.0,0.0,0.0,0.0,-1.6008,-1.6083,-0.6288,-0.6383,-0.6478,-0.6498,-0.6736,-0.6973,-0.7115,-0.778,-0.8547,-0.9306,-1.031,-1.1294,-1.2189,-1.2678,-1.3051,-1.3329,-1.2866,-1.2782,-1.3374,-1.2929,-1.2836,-1.3144,-1.1926,-1.1079,-1.0977,-0.9347,-0.7469,-0.5708,-0.3807,-0.183,0.0,0.0,0.0,0.0,0.0,0.0,0.0,0.0,0.0,0.0,0.0,0.0,0.0,0.0,0.0,0.0,0.0,0.0,0.0,0.0,0.0,0.0,0.0,0.0,0.0,0.0,0.0,0.0,0.0,0.0,0.0,0.0,0.0,0.0,0.0,0.0,0.0,0.0,0.0,0.0,0.0,0.0,0.0,0.0,-1.377,-1.4367,-1.4916,-1.4923,-1.4957,-1.5208,-1.5371,-1.5513,-1.5649,-1.5676,-1.5689,-1.5689,-1.5689,-1.5683,-1.5662,0.0,0.0,0.0,0.0,-1.6083,-1.6083,-1.6096,-1.5904,-1.5904,-1.5924,-1.5931,-1.5931,-1.5931,-1.5931,-1.613,-1.613,-1.613,-1.613,-1.613,-1.613,-1.613,-1.6096,-1.609,-1.611,-1.611,-1.6117,-1.613,-0.643,-0.6451,-0.6512,-0.6634,-0.681,-0.6973,-0.7115,-0.778,-0.8581,-0.9449,-1.0371,-1.1287,-1.2189,-1.2583,-1.3013,-1.336,-1.3322,-1.3254,-1.3329,-1.3264,-1.2771,-1.1836,-1.0392,-0.8836,-0.7168,-0.5385,-0.4124,-0.3815,-0.1624,-0.0412,0.0,0.0,0.0,0.0,0.0,0.0,0.0,0.0,0.0,0.0,0.0,0.0,0.0,0.0,0.0,0.0,0.0,0.0,0.0,0.0,0.0,-0.0153,-0.118,-0.2004,0.0,0.0,0.0,0.0,0.0,0.0,0.0,0.0,0.0,0.0,0.0,0.0,0.0,0.0,0.0,0.0,0.0,0.0,0.0,-1.3654,-1.4319,-1.4875,-1.5106,-1.5425,-1.5615,-1.556,-1.5683,-1.5778,-1.5811,-1.592,-1.5995,-1.5995,-1.5995,-1.594,-1.5818,-1.5954,-1.5981,-1.5859,-1.6001,-1.5884,-1.5479,-1.5596,-1.5454,-1.5051,0.0,0.0,-1.501,-1.501,-1.522,-1.5832,-1.5832,-1.6035,-1.6435,-1.6435,-1.6435,-1.6415,-1.6178,-1.6157,-1.6266,-1.6266,-1.6341,-1.6435,-0.6573,-0.6647,-0.6722,-0.6803,-0.6939,-0.7109,-0.7339,-0.7882,-0.8594,-0.949,-1.0196,-1.1007,-1.1972,-1.2484,-1.2887,-1.3369,-1.3429,-1.3336,-1.3403,-1.2847,-1.1732,-1.0377,-0.8485,-0.6639,-0.4669,-0.3751,-0.322,-0.3298,-0.1035,0.0,0.0,0.0,0.0,0.0,0.0,0.0,0.0,0.0,0.0,0.0,0.0,0.0,0.0,0.0,0.0,0.0,0.0,0.0,0.0,0.0,0.0,-0.0,-0.0476,-0.1544,-0.2704,0.0,0.0,0.0,0.0,0.0,0.0,0.0,0.0,0.0,0.0,0.0,0.0,0.0,0.0,-1.2617,0.0,0.0,-1.4055,-1.4353,-1.4848,-1.5269,-1.5486,-1.571,-1.5825,-1.5757,-1.5879,-1.5967,-1.5967,-1.6035,-1.6083,-1.6083,-1.6083,-1.6049,-1.5967,-1.6042,-1.6049,-1.5967,-1.5917,-1.559,-1.4982,-1.4512,-1.3967,-1.3559,-1.3211,-1.3238,-1.3649,-1.3854,-1.4475,-1.5302,-1.5507,-1.591,-1.6524,-1.6524,-1.6524,-1.651,-1.6361,-1.6347,-1.6415,-1.6415,-1.6463,-1.6524,-0.6722,-0.6865,-0.6966,-0.6966,-0.7061,-0.7244,-0.755,-0.7984,-0.8581,-0.9449,-1.0062,-1.0759,-1.1736,-1.2213,-1.262,-1.2984,-1.3162,-1.3198,-1.3403,-1.214,-1.0535,-0.8588,-0.6591,-0.4655,-0.2593,-0.2623,-0.267,-0.2735,-0.0843,0.0,0.0,0.0,0.0,0.0,0.0,0.0,0.0,0.0,0.0,0.0,0.0,0.0,0.0,0.0,0.0,0.0,0.0,0.0,0.0,0.0,0.0,-0.0,-0.0168,-0.1484,-0.2898,-0.3415,-0.4788,0.0,0.0,0.0,0.0,0.0,0.0,0.0,0.0,0.0,-1.244,-1.2861,-1.3207,-1.3553,-1.3946,-1.438,-1.4767,-1.5018,-1.5303,-1.5581,-1.5818,-1.5879,-1.59,-1.59,-1.6008,-1.6083,-1.6083,-1.6083,-1.6083,-1.6083,-1.6083,-1.6083,-1.5884,-1.5911,-1.5924,-1.5724,-1.5259,-1.4721,-1.4106,-1.3005,-1.2235,-1.1616,-1.1019,-1.1235,-1.1649,-1.227,-1.3096,-1.4341,-1.5377,-1.5995,-1.64,-1.6612,-1.6612,-1.6612,-1.6612,-1.6612,-1.6605,-1.6578,-1.6585,-1.6612,-0.6898,-0.7021,-0.7115,-0.7115,-0.7129,-0.7244,-0.755,-0.7984,-0.8547,-0.9306,-0.9944,-1.0651,-1.1561,-1.219,-1.2335,-1.187,-1.2305,-1.2807,-1.341,-1.2241,-0.9964,-0.6532,-0.4422,-0.2564,-0.0403,-0.041,-0.0416,-0.0421,-0.0212,0.0,0.0,0.0,0.0,0.0,0.0,0.0,0.0,0.0,0.0,0.0,0.0,0.0,0.0,0.0,0.0,0.0,0.0,0.0,0.0,0.0,0.0,-0.0178,-0.1045,-0.2058,-0.3207,-0.4402,-0.5701,-0.7249,-0.9004,-1.0816,0.0,-1.2135,-1.2359,-1.2623,0.0,0.0,-1.3336,-1.3654,-1.4061,-1.4421,-1.4604,-1.5004,-1.5323,-1.5357,-1.5608,-1.5818,-1.5845,-1.5967,-1.6056,-1.6056,-1.6069,-1.6083,-1.6083,-1.6083,-1.6083,-1.6083,-1.6083,-1.5884,-1.5479,-1.5402,-1.5063,-1.4048,-1.4177,-1.3421,-1.1778,-1.1253,-1.047,-0.9639,-0.9082,-0.9115,-0.9757,-0.9753,-1.102,-1.3127,-1.524,-1.6086,-1.6295,-1.6714,-1.6931,-1.6931,-1.6931,-1.6931,-1.691,-1.6775,-1.6809,-1.6931,-0.6926,-0.7041,-0.7143,-0.7143,-0.7143,-0.7244,-0.755,-0.7828,-0.8275,-0.9028,-0.9496,-1.0053,-1.0777,-1.0906,-1.0989,-1.109,-1.1676,-1.2393,-1.3275,-1.115,-0.8689,-0.6131,-0.3078,-0.0987,-0.0,0.0,0.0,0.0,0.0,0.0,0.0,0.0,0.0,0.0,0.0,0.0,0.0,0.0,0.0,0.0,0.0,0.0,0.0,0.0,0.0,0.0,0.0,0.0,0.0,0.0,0.0,-0.0179,-0.1777,-0.3343,-0.4691,-0.5614,-0.6818,-0.845,-1.0696,-1.2121,0.0,0.0,-1.3288,-1.3553,-1.3702,-1.3966,-1.4265,-1.4563,-1.4841,-1.5079,-1.5235,-1.5486,-1.5669,0.0,-1.5845,-1.5988,-1.5988,-1.6042,-1.6083,-1.6083,-1.6083,-1.6083,-1.6083,-1.6083,-1.5917,-1.5804,-1.581,-1.5441,-1.4506,-1.4357,-1.3774,-1.2957,-1.2033,-1.1262,-1.0016,-0.9476,-0.8675,-0.7833,-0.7013,-0.6597,-0.6594,-0.7019,-0.9141,-1.2319,-1.4645,-1.571,-1.6131,-1.6768,-1.6978,-1.6978,-1.6978,-1.6978,-1.6971,-1.691,-1.6924,-1.6978,-0.6987,-0.7068,-0.7143,-0.7143,-0.7177,-0.7292,-0.7556,-0.7753,-0.8113,-0.8784,-0.9096,-0.9415,-0.9822,-0.987,-0.998,-1.0477,-1.1162,-1.2099,-1.3325,-1.0315,-0.7896,-0.6095,-0.2102,0.0,0.0,0.0,0.0,0.0,0.0,0.0,0.0,0.0,0.0,0.0,0.0,0.0,0.0,0.0,0.0,0.0,0.0,0.0,0.0,0.0,0.0,0.0,0.0,0.0,0.0,0.0,-0.0178,-0.0534,-0.1958,-0.3904,-0.5816,-0.6255,-0.7858,-0.9938,-1.226,0.0,0.0,-1.3871,-1.4156,-1.4421,-1.457,-1.4774,-1.4997,-1.5255,-1.5432,-1.5567,-1.5676,-1.5818,-1.592,-1.592,-1.6008,-1.6083,-1.6083,-1.5884,-1.5884,-1.5884,-1.5718,-1.5738,-1.5738,-1.5944,-1.6004,-1.5544,-1.5354,-1.4782,-1.3432,-1.2853,-1.2043,-1.1428,-1.0274,-0.9281,-0.846,-0.7884,-0.7064,-0.5795,-0.4723,-0.4078,-0.386,-0.4929,-0.7494,-1.0921,-1.3476,-1.4756,-1.5399,-1.6465,-1.6889,-1.6889,-1.71,-1.71,-1.71,-1.71,-1.7053,-1.6985,-0.7136,-0.7136,-0.7143,-0.7143,-0.7265,-0.7414,-0.7577,-0.7848,-0.8093,-0.8548,-0.8742,-0.895,-0.8891,-0.942,-0.9841,-0.9761,-1.0842,-1.2058,-1.3332,-1.0377,-0.778,-0.6089,-0.2264,0.0,0.0,0.0,0.0,0.0,0.0,0.0,0.0,0.0,0.0,0.0,0.0,0.0,0.0,0.0,0.0,0.0,0.0,0.0,0.0,0.0,0.0,0.0,0.0,0.0,0.0,0.0,-0.0522,-0.1219,-0.1393,-0.333,-0.5632,-0.6019,-0.8701,-1.1816,-1.3102,-1.3899,-1.4509,-1.4665,-1.493,-1.5187,-1.5343,-1.5384,-1.5438,-1.5594,-1.5737,-1.5839,-1.5845,-1.5967,-1.6076,-1.6076,-1.6076,-1.6083,-1.6083,-1.5678,-1.528,-1.528,-1.5001,-1.4678,0.0,-1.5694,-1.6165,-1.5699,-1.5084,-1.3848,-1.1783,-1.1055,-1.0278,-0.9034,-0.9115,-0.8342,-0.6902,-0.691,-0.5638,-0.3495,-0.2405,-0.1749,-0.1747,-0.3709,-0.5892,-0.83,-1.1112,-1.2635,-1.329,-1.5674,-1.6537,-1.6537,-1.719,-1.7405,-1.7405,-1.7405,-1.7229,-1.6998,-0.7143,-0.7143,-0.717,-0.7278,-0.7421,-0.757,-0.7719,-0.7821,-0.8018,-0.837,-0.8742,0.0,0.0,0.0,0.0,0.0,-1.0496,-1.1482,-1.2685,-1.1009,-0.88,-0.5906,-0.3496,-0.132,-0.0,0.0,0.0,0.0,0.0,0.0,0.0,0.0,0.0,0.0,0.0,0.0,0.0,0.0,0.0,0.0,0.0,0.0,0.0,0.0,-0.0745,-0.1634,0.0,-0.0869,0.0,0.0,-0.0511,-0.1363,-0.1373,-0.2758,-0.5014,-0.7765,-0.9928,-1.1659,-1.2894,-1.3681,-1.4316,-1.4558,-1.5147,-1.5527,-1.5669,-1.5703,-1.575,-1.59,-1.5967,-1.6001,-1.6001,-1.6049,-1.6117,-1.6218,-1.6232,-1.6232,-1.6232,-1.583,-1.5221,-1.4812,-1.4048,0.0,0.0,0.0,0.0,-1.418,-1.3979,-1.3182,-1.1386,-1.0366,-0.8907,-0.7429,-0.5993,-0.5168,-0.4535,-0.4564,-0.4147,-0.3283,-0.1532,-0.0657,-0.0657,-0.2405,-0.3714,-0.524,-0.9164,-1.156,-1.264,-1.5026,-1.6112,-1.655,-1.7203,-1.7419,-1.7419,-1.7419,-1.7358,-1.7277,-0.721,-0.7224,-0.7272,-0.7428,-0.7577,0.0,0.0,0.0,0.0,0.0,0.0,0.0,0.0,0.0,0.0,0.0,0.0,-1.1094,-1.212,-1.1118,-0.9321,-0.6712,-0.4979,-0.3459,-0.2031,-0.2087,-0.1733,-0.116,-0.1186,-0.0797,0.0,0.0,0.0,0.0,0.0,0.0,0.0,0.0,0.0,0.0,0.0,0.0,0.0,0.0,-0.1079,0.0,-0.235,-0.1669,-0.0843,-0.0166,-0.0331,-0.0995,-0.1683,-0.2897,-0.4827,-0.8035,-0.9969,-1.1252,-1.2141,-1.2929,-1.3554,-1.3771,-1.4316,-1.4636,-1.5119,-1.5138,-1.5164,-1.5658,-1.5884,-1.5884,-1.6083,-1.6083,-1.613,-1.6286,-1.6307,-1.6327,-1.6381,-1.5773,-1.4961,-1.4141,-1.2952,-1.2215,0.0,0.0,0.0,-1.2844,-1.2425,-1.162,-1.022,-0.8762,-0.7281,-0.557,-0.4105,-0.3043,-0.2181,-0.2193,-0.2202,-0.2208,-0.0662,0.0,-0.0,-0.1104,-0.2206,-0.3747,-0.7049,-0.9466,-1.144,-1.4069,-1.5391,-1.6045,-1.714,-1.7575,-1.7575,-1.7575,-1.7575,-1.7568,-0.7346,-0.738,-0.7434,0.0,0.0,0.0,0.0,0.0,0.0,0.0,0.0,0.0,0.0,0.0,0.0,0.0,0.0,0.0,-1.1355,-1.0565,-0.9356,-0.8052,-0.6626,-0.5766,-0.5892,-0.5834,-0.4997,-0.3363,-0.3213,-0.2089,-0.019,-0.019,-0.019,0.0,0.0,0.0,0.0,0.0,0.0,0.0,0.0,0.0,-0.0,-0.0,-0.1027,-0.234,-0.2262,-0.2393,-0.2233,-0.0639,-0.0,-0.0322,-0.2143,-0.3566,-0.507,-0.7129,-0.8738,-1.0217,-1.0983,-1.1579,-1.2363,-1.2486,-1.2593,-1.2873,-1.3478,-1.3678,-1.3872,-1.5068,-1.5267,-1.5466,0.0,0.0,-1.6123,-1.6293,-1.632,-1.6368,-1.651,-1.5513,-1.4487,0.0,0.0,0.0,0.0,0.0,0.0,-1.1694,0.0,-0.9367,-0.7884,-0.6451,-0.4755,-0.3243,-0.3271,-0.2199,-0.0,0.0,0.0,0.0,0.0,0.0,0.0,0.0,-0.1347,-0.3365,-0.4259,-0.6493,-0.9634,-1.2975,-1.4536,-1.5424,-1.7197,-1.786,-1.786,-1.786,-1.786,-1.7846,0.0,0.0,0.0,0.0,0.0,0.0,0.0,0.0,0.0,0.0,0.0,0.0,0.0,0.0,0.0,0.0,0.0,0.0,-0.9373,-0.9411,-0.8969,-0.7669,-0.7338,-0.7192,-0.7421,-0.7533,-0.7454,-0.7178,-0.5755,-0.3994,-0.2163,-0.218,-0.1453,0.0,0.0,0.0,0.0,0.0,0.0,0.0,0.0,0.0,-0.0,-0.0674,-0.1151,-0.1594,-0.2172,-0.2458,-0.2311,-0.1882,-0.0975,0.0,0.0,-0.1941,-0.3643,-0.5125,-0.6544,-0.7851,-0.8525,-0.9412,-1.0312,-1.0409,-1.1054,-1.1874,-1.2474,-1.2873,-1.345,-1.4354,-1.4928,-1.5322,0.0,0.0,0.0,-1.6408,-1.6469,0.0,-1.6047,-1.5038,0.0,-1.2335,0.0,-0.9053,-0.9122,-0.8296,0.0,0.0,-0.9239,-0.8379,-0.7103,-0.5207,-0.3053,-0.0872,-0.088,-0.0664,-0.0,0.0,0.0,0.0,0.0,0.0,0.0,0.0,-0.0224,-0.1122,-0.3137,-0.5377,-0.806,-1.2071,-1.4303,-1.5424,-1.7197,-1.786,-1.786,-1.786,-1.786,-1.786,0.0,0.0,0.0,0.0,0.0,0.0,0.0,0.0,0.0,0.0,0.0,0.0,0.0,0.0,0.0,0.0,0.0,0.0,0.0,-0.8148,-0.779,-0.708,-0.7141,-0.7636,-0.859,-0.9602,-0.9743,-0.9137,-0.7315,-0.5645,-0.4062,-0.3083,-0.1711,0.0,0.0,0.0,0.0,0.0,0.0,0.0,0.0,0.0,-0.0,-0.0483,-0.1107,-0.1697,-0.2269,-0.2438,-0.2496,-0.2422,-0.1342,0.0,0.0,-0.0731,-0.1876,-0.3579,0.0,-0.5879,-0.6303,-0.7345,-0.841,-0.8858,-0.9476,-0.9874,-1.0066,-1.0835,-1.1788,-1.3308,-1.4036,-1.4586,-1.5562,-1.5811,-1.5981,0.0,0.0,0.0,-1.5983,-1.4964,-1.3493,0.0,-0.9289,0.0,-0.7243,-0.6202,-0.5797,0.0,-0.6905,-0.7569,-0.674,-0.4598,-0.2419,-0.0,0.0,0.0,0.0,0.0,0.0,0.0,0.0,0.0,0.0,0.0,0.0,-0.0224,0.0,-0.5383,-0.829,-1.1634,-1.3642,-1.4975,-1.719,-1.786,-1.786,-1.786,-1.786,-1.786,0.0,0.0,0.0,0.0,0.0,0.0,0.0,0.0,0.0,-0.8117,-0.8541,0.0,0.0,0.0,0.0,0.0,0.0,0.0,0.0,0.0,-0.6464,-0.6529,-0.6829,-0.7612,-0.9313,-1.1183,-1.1378,-0.996,-0.8313,-0.6705,-0.5201,-0.3354,-0.1596,0.0,0.0,0.0,0.0,0.0,0.0,0.0,0.0,0.0,0.0,0.0,-0.0762,-0.1957,-0.2242,-0.2459,-0.2578,-0.2702,-0.1568,0.0,0.0,0.0,-0.0384,-0.2132,-0.3541,-0.4385,-0.4385,-0.5013,-0.6052,-0.7062,-0.7267,-0.7264,-0.7047,-0.8197,-0.9728,-1.1865,-1.2764,-1.3667,-1.5222,-1.573,-1.5934,-1.6259,0.0,-1.6214,-1.5876,-1.4862,-1.2958,-1.042,-0.8508,-0.6815,-0.4914,-0.4515,-0.3675,-0.1734,-0.4553,-0.631,-0.636,-0.4423,-0.2444,-0.0,0.0,0.0,0.0,0.0,0.0,0.0,0.0,0.0,0.0,0.0,0.0,-0.0224,-0.2467,-0.5607,-0.9202,-1.1416,-1.2965,-1.4531,-1.676,-1.786,-1.786,-1.786,-1.786,-1.786,0.0,0.0,0.0,0.0,0.0,0.0,0.0,0.0,0.0,0.0,-0.8845,-0.8879,0.0,0.0,0.0,0.0,0.0,0.0,0.0,0.0,0.0,-0.6476,-0.6545,-0.7377,-0.9215,-0.9729,-0.9675,-0.9476,-0.78,-0.6266,-0.4816,-0.2989,-0.1492,0.0,0.0,0.0,0.0,0.0,0.0,0.0,0.0,0.0,0.0,0.0,0.0,0.0,-0.18,-0.2322,-0.2582,-0.2556,-0.1424,0.0,0.0,0.0,-0.0,-0.0396,-0.1199,-0.2217,-0.2217,-0.2218,-0.2421,-0.2623,-0.3431,-0.4028,-0.3994,-0.5971,-0.831,-1.0118,-1.1807,-1.3525,-1.468,-1.5381,-1.5818,-1.6239,-1.6029,-1.5602,-1.482,-1.2958,-1.1267,0.0,-0.7668,-0.6199,-0.6469,0.0,0.0,0.0,-0.3088,-0.3977,-0.3984,-0.3792,-0.2465,-0.0,0.0,0.0,0.0,0.0,0.0,0.0,0.0,0.0,0.0,0.0,0.0,-0.0,-0.157,0.0,-0.9202,-1.0528,-1.2298,-1.4531,-1.6323,-1.7424,-1.786,-1.786,-1.786,-1.786,0.0,0.0,0.0,0.0,0.0,0.0,0.0,-0.8745,-0.9394,-0.9334,-0.9372,-0.9198,-0.8957,-0.893,-0.8903,0.0,0.0,0.0,0.0,0.0,0.0,-0.7179,-0.7471,-0.8035,-0.8883,-0.8955,-0.8602,-0.7822,0.0,-0.489,-0.3426,-0.1819,-0.0699,0.0,0.0,0.0,0.0,0.0,0.0,0.0,0.0,0.0,0.0,0.0,0.0,0.0,-0.1802,-0.2327,-0.2419,-0.2545,-0.2138,-0.1303,-0.0384,0.0,0.0,0.0,-0.0403,-0.0808,-0.0808,-0.0808,-0.0808,-0.0808,-0.1211,-0.1612,-0.2193,-0.4145,-0.644,-0.9032,-1.0868,-1.2716,-1.4234,-1.505,-1.5764,-1.613,-1.5976,-1.5396,-1.419,-1.2319,-1.0632,-0.9155,-0.7061,-0.5592,0.0,-0.4139,-0.2637,-0.0886,-0.1335,-0.1562,-0.1562,-0.1792,-0.1122,-0.0,0.0,0.0,0.0,0.0,0.0,0.0,0.0,0.0,0.0,0.0,0.0,-0.0,-0.1346,-0.3811,-0.7398,-0.9627,-1.1862,-1.4081,-1.6096,-1.7424,-1.786,-1.786,-1.786,-1.786,0.0,0.0,0.0,0.0,0.0,0.0,-0.8128,-0.9178,-1.0046,-1.0218,-1.0175,-0.9978,-0.9408,-0.9023,-0.8911,0.0,0.0,0.0,0.0,0.0,0.0,0.0,0.0,0.0,0.0,0.0,0.0,0.0,-0.4657,0.0,0.0,0.0,0.0,0.0,0.0,0.0,0.0,0.0,0.0,0.0,0.0,0.0,0.0,0.0,0.0,0.0,0.0,-0.2009,-0.2399,-0.2518,-0.2644,-0.2586,-0.0577,0.0,0.0,0.0,0.0,0.0,0.0,0.0,0.0,0.0,0.0,-0.0201,-0.1194,-0.2937,-0.5204,-0.7985,-0.9982,-1.1791,-1.3851,-1.4957,-1.5723,-1.5988,-1.5708,-1.4971,-1.352,-1.1671,-0.9788,-0.79,-0.6019,0.0,-0.2824,-0.2639,0.0,-0.0222,0.0,0.0,0.0,0.0,0.0,0.0,0.0,0.0,0.0,0.0,0.0,0.0,0.0,0.0,0.0,0.0,0.0,-0.0,-0.0897,-0.2917,-0.5607,-0.8734,-1.1407,-1.3642,-1.5862,-1.7197,-1.786,-1.786,-1.786,-1.786,0.0,0.0,0.0,0.0,0.0,0.0,-0.8739,-0.9863,-1.0746,-1.1342,-1.1388,-1.1156,-1.0659,-0.9605,-0.8941,0.0,0.0,0.0,0.0,0.0,0.0,0.0,0.0,0.0,0.0,0.0,0.0,0.0,0.0,0.0,0.0,0.0,0.0,0.0,0.0,0.0,0.0,0.0,0.0,0.0,0.0,0.0,0.0,0.0,0.0,0.0,0.0,-0.1223,-0.2344,-0.2483,-0.2589,-0.2325,-0.0559,0.0,0.0,0.0,0.0,0.0,0.0,0.0,0.0,0.0,0.0,-0.0201,-0.1185,-0.2924,-0.5,-0.7162,-0.9555,-1.1791,-1.3288,-1.476,-1.5689,-1.5852,-1.5434,-1.4317,-1.2782,-1.0357,-0.8319,-0.7106,0.0,0.0,-0.0442,-0.0221,-0.0222,-0.0,0.0,0.0,0.0,0.0,0.0,0.0,0.0,0.0,0.0,0.0,0.0,0.0,0.0,0.0,0.0,0.0,0.0,-0.0,-0.0224,-0.2243,0.0,-0.6943,-0.9839,-1.3642,-1.4747,-1.6305,-1.786,-1.786,-1.786,-1.786,0.0,0.0,0.0,0.0,0.0,0.0,-0.9332,-1.0179,-1.0891,-1.1524,-1.1596,-1.1511,-1.1308,-1.0134,-0.934,-0.8964,0.0,0.0,0.0,0.0,0.0,0.0,0.0,0.0,0.0,0.0,0.0,-0.7142,0.0,0.0,0.0,0.0,0.0,0.0,0.0,0.0,0.0,0.0,0.0,0.0,0.0,0.0,0.0,0.0,0.0,0.0,0.0,0.0,-0.0932,-0.0976,-0.1688,-0.2442,-0.0539,0.0,0.0,0.0,0.0,0.0,0.0,0.0,0.0,0.0,-0.101,-0.201,-0.2367,-0.388,-0.572,-0.7463,-0.9653,-1.1689,-1.3168,-1.4513,-1.5683,-1.5832,-1.5157,-1.4218,-1.2756,-1.0098,-0.7641,-0.6031,-0.3471,0.0,0.0,0.0,0.0,0.0,0.0,0.0,0.0,0.0,0.0,0.0,0.0,0.0,0.0,0.0,0.0,0.0,0.0,0.0,0.0,0.0,0.0,0.0,0.0,-0.1121,0.0,-0.605,-0.895,-1.1862,-1.387,-1.5652,-1.676,-1.676,-1.6988,-1.7424,0.0,0.0,0.0,0.0,0.0,-0.8386,-0.9353,-1.0243,-1.0862,-1.1525,-1.1628,-1.1579,-1.1659,-1.0561,-0.9614,-0.9164,-0.897,0.0,0.0,0.0,0.0,0.0,0.0,0.0,0.0,0.0,-0.913,-0.7926,-0.6941,-0.583,0.0,0.0,0.0,0.0,0.0,0.0,0.0,0.0,0.0,0.0,0.0,0.0,0.0,0.0,0.0,0.0,0.0,0.0,0.0,0.0,0.0,-0.1695,-0.0348,0.0,0.0,0.0,0.0,0.0,0.0,0.0,0.0,0.0,-0.202,-0.4222,-0.3946,-0.5222,-0.6822,-0.8158,-0.994,-1.1764,-1.3266,-1.463,-1.5622,-1.5764,-1.528,-1.4351,-1.2704,-1.0261,-0.7827,-0.54,0.0,0.0,0.0,0.0,0.0,0.0,0.0,0.0,0.0,0.0,0.0,0.0,0.0,0.0,0.0,0.0,0.0,0.0,0.0,0.0,0.0,0.0,0.0,0.0,0.0,-0.0673,0.0,-0.5377,-0.806,-1.0739,-1.2762,-1.432,-1.5652,-1.5862,-1.6317,-1.676,0.0,0.0,0.0,0.0,0.0,0.0,-0.8758,-0.9923,-1.092,-1.1505,-1.1546,-1.1553,-1.162,-1.05,-0.9784,-0.9792,-0.9239,0.0,0.0,0.0,0.0,0.0,0.0,0.0,0.0,0.0,-0.9155,-0.7894,-0.7916,-0.7171,-0.5788,-0.4536,-0.3251,0.0,0.0,0.0,0.0,0.0,0.0,0.0,0.0,0.0,0.0,0.0,0.0,0.0,0.0,0.0,0.0,0.0,0.0,0.0,0.0,0.0,0.0,0.0,0.0,0.0,0.0,0.0,0.0,0.0,-0.3232,-0.6436,-0.6117,-0.6963,-0.8145,-0.9266,-1.0614,-1.2204,-1.3795,-1.4732,-1.5466,-1.5615,-1.5618,-1.4733,-1.2605,-1.105,-0.8689,0.0,0.0,-0.1321,-0.0,0.0,0.0,0.0,0.0,0.0,0.0,0.0,0.0,0.0,0.0,0.0,0.0,0.0,0.0,0.0,0.0,0.0,0.0,0.0,0.0,0.0,0.0,-0.0673,0.0,-0.4485,-0.7166,-0.985,-1.1193,-1.2747,-1.4309,-1.4975,-1.5652,-1.6096,0.0,0.0,0.0,0.0,0.0,0.0,-0.8843,-0.9551,-1.0329,-1.0913,-1.0948,-1.0962,-1.1024,-1.028,-0.9754,-0.9752,-0.9298,0.0,0.0,0.0,0.0,0.0,0.0,0.0,0.0,0.0,-0.9555,-0.9172,-0.955,-0.9092,-0.7667,-0.6106,-0.4104,-0.1879,-0.0627,0.0,0.0,0.0,0.0,0.0,0.0,0.0,0.0,0.0,0.0,0.0,0.0,0.0,0.0,0.0,0.0,0.0,0.0,0.0,0.0,0.0,0.0,0.0,0.0,0.0,0.0,0.0,-0.3216,-0.6584,-0.8074,-0.8458,-0.882,-1.0179,-1.1705,-1.2927,-1.3795,-1.4646,-1.5337,-1.5594,-1.5138,-1.4226,-1.3005,-1.0487,0.0,-0.7634,-0.3313,-0.0446,0.0,0.0,0.0,0.0,0.0,0.0,0.0,0.0,0.0,0.0,0.0,0.0,0.0,0.0,0.0,0.0,0.0,0.0,0.0,0.0,0.0,0.0,0.0,-0.0224,-0.0673,-0.3137,-0.5153,-0.6493,-0.8507,-0.985,-1.0743,-1.1857,-1.2752,-1.3864,0.0,0.0,0.0,0.0,0.0,0.0,-0.8804,-0.9259,-0.968,-1.0246,-1.0362,-1.0383,-1.0299,-0.9883,-0.944,-0.9432,-0.915,0.0,0.0,0.0,0.0,0.0,0.0,0.0,-0.9743,-0.9774,-0.9968,-1.0095,-1.0802,-1.0261,-0.8828,-0.6386,-0.4194,-0.205,-0.0638,0.0,0.0,0.0,0.0,0.0,0.0,0.0,0.0,0.0,0.0,0.0,0.0,0.0,0.0,0.0,0.0,0.0,0.0,0.0,0.0,0.0,0.0,0.0,0.0,0.0,0.0,0.0,-0.3183,-0.6913,-0.9549,-0.9729,-0.9892,-1.1404,-1.2542,-1.3412,-1.3971,-1.4382,-1.4838,-1.4996,-1.4705,-1.3971,-1.3,-1.0722,0.0,-0.6795,0.0,0.0,0.0,0.0,0.0,0.0,0.0,0.0,0.0,0.0,0.0,0.0,0.0,0.0,0.0,0.0,0.0,0.0,0.0,0.0,0.0,0.0,0.0,0.0,0.0,0.0,0.0,-0.2019,-0.3587,-0.4479,-0.6724,-0.7843,-0.8517,-0.9624,-1.0743,-1.2084,0.0,0.0,0.0,0.0,0.0,0.0,0.0,-0.883,-0.9124,-0.9648,-0.9693,-0.9734,-0.9717,-0.9216,-0.8857,-0.8931,0.0,0.0,0.0,0.0,0.0,0.0,0.0,0.0,-0.9736,-0.9806,-1.0059,-1.0644,-1.1254,-1.0752,-0.9086,-0.5844,-0.3486,-0.1978,-0.0652,0.0,0.0,0.0,0.0,0.0,0.0,0.0,0.0,0.0,0.0,0.0,0.0,0.0,0.0,0.0,0.0,0.0,0.0,0.0,0.0,0.0,0.0,0.0,0.0,0.0,0.0,0.0,-0.314,-0.7226,-1.0735,-1.0964,0.0,-1.2577,-1.333,-1.3687,-1.3958,-1.4132,-1.419,-1.4018,-1.4311,-1.3977,-1.259,-1.1359,0.0,0.0,-0.1341,0.0,0.0,0.0,0.0,0.0,0.0,0.0,0.0,0.0,0.0,0.0,0.0,0.0,0.0,0.0,0.0,0.0,0.0,0.0,0.0,0.0,0.0,0.0,0.0,0.0,-0.0,-0.1121,-0.2467,-0.3811,-0.5383,-0.6505,-0.7175,-0.829,-0.94,-1.0516,0.0,0.0,0.0,0.0,0.0,0.0,0.0,0.0,0.0,0.0,-0.9083,-0.9065,-0.9158,-0.9023,-0.895,0.0,0.0,0.0,0.0,0.0,0.0,0.0,0.0,0.0,-0.9136,-0.9539,-1.0089,-1.067,-1.1365,-1.0211,-0.7451,-0.5577,-0.3089,-0.0543,-0.0134,0.0,0.0,0.0,0.0,0.0,0.0,0.0,0.0,0.0,0.0,0.0,0.0,0.0,0.0,0.0,0.0,0.0,0.0,0.0,0.0,0.0,0.0,0.0,0.0,0.0,0.0,0.0,-0.3123,-0.6969,0.0,-1.0334,-1.0707,-1.2746,-1.3412,-1.3797,-1.3971,-1.3845,-1.3731,-1.345,-1.3404,-1.2872,-1.1778,-0.9576,0.0,-0.3792,-0.1344,0.0,0.0,0.0,0.0,0.0,0.0,0.0,0.0,0.0,0.0,0.0,0.0,0.0,0.0,0.0,0.0,0.0,0.0,0.0,0.0,0.0,0.0,0.0,0.0,0.0,-0.0,-0.0224,-0.1572,-0.3594,-0.4043,-0.4264,-0.4488,-0.4709,-0.5377,-0.6493,0.0,0.0,0.0,0.0,0.0,0.0,0.0,0.0,0.0,0.0,-0.8917,-0.8911,-0.8943,-0.8937,0.0,0.0,0.0,0.0,0.0,0.0,0.0,0.0,0.0,-0.8869,-0.8897,-0.9451,-1.0143,-1.0731,-1.1358,-1.0138,-0.7248,-0.5596,-0.305,0.0,0.0,0.0,0.0,0.0,0.0,0.0,0.0,0.0,0.0,0.0,0.0,0.0,0.0,0.0,0.0,0.0,0.0,0.0,0.0,0.0,0.0,0.0,0.0,0.0,0.0,0.0,0.0,0.0,-0.2315,-0.5361,-0.7729,-0.8938,-1.0109,-1.1939,-1.3028,-1.3307,-1.3144,-1.3216,-1.3118,-1.2443,-1.2547,-1.222,-1.1213,-0.8846,-0.6599,-0.4703,-0.2245,-0.0673,0.0,0.0,0.0,0.0,0.0,0.0,0.0,0.0,0.0,0.0,0.0,0.0,0.0,0.0,0.0,0.0,0.0,0.0,0.0,0.0,0.0,0.0,0.0,0.0,0.0,0.0,-0.0673,-0.2021,-0.247,-0.2694,-0.2694,-0.2692,-0.3363,-0.4479,0.0,0.0,0.0,0.0,0.0,0.0,0.0,0.0,0.0,0.0,0.0,0.0,0.0,0.0,0.0,0.0,0.0,0.0,0.0,0.0,0.0,0.0,-0.8858,-0.8997,-0.9052,-0.9509,-0.9973,-1.043,-1.0927,-0.9883,-0.7005,-0.5434,-0.299,0.0,0.0,0.0,0.0,0.0,0.0,0.0,0.0,0.0,0.0,0.0,0.0,0.0,0.0,0.0,0.0,0.0,0.0,0.0,0.0,0.0,0.0,0.0,0.0,0.0,0.0,0.0,0.0,0.0,-0.153,-0.3428,-0.5034,-0.7048,-0.8848,-1.0645,-1.1967,-1.2683,-1.1976,-1.2433,-1.2531,-1.1439,-1.1696,-1.1578,-1.0449,-0.875,-0.7269,-0.5601,-0.3369,0.0,-0.0224,0.0,0.0,0.0,0.0,0.0,0.0,0.0,0.0,0.0,0.0,0.0,0.0,0.0,0.0,0.0,0.0,0.0,0.0,0.0,0.0,0.0,0.0,0.0,0.0,0.0,0.0,-0.0,-0.1122,-0.1572,-0.1572,-0.157,-0.2467,-0.3811,0.0,0.0,0.0,0.0,0.0,0.0,0.0,0.0,0.0,0.0,0.0,0.0,0.0,0.0,0.0,0.0,0.0,0.0,0.0,0.0,0.0,-0.8884,-0.8904,-0.9164,-0.9689,-0.9758,-0.9504,-0.8879,-0.9366,-0.818,-0.5373,-0.3792,-0.1999,0.0,0.0,0.0,0.0,0.0,0.0,0.0,0.0,0.0,0.0,0.0,0.0,0.0,0.0,0.0,0.0,0.0,0.0,0.0,0.0,0.0,0.0,0.0,0.0,0.0,0.0,0.0,0.0,0.0,-0.1554,-0.3111,-0.3426,-0.5114,-0.7155,-0.9403,-1.0806,-1.1715,-1.1946,-1.2115,-1.2023,-1.1273,-1.0785,-1.0269,-0.989,0.0,-0.7541,-0.5607,0.0,-0.247,-0.0224,0.0,0.0,0.0,0.0,0.0,0.0,0.0,0.0,0.0,0.0,0.0,0.0,0.0,0.0,0.0,0.0,0.0,0.0,0.0,0.0,0.0,0.0,0.0,0.0,0.0,0.0,-0.0,-0.0224,-0.0224,-0.0224,-0.0224,-0.1796,-0.3818,0.0,0.0,0.0,0.0,0.0,0.0,0.0,0.0,0.0,0.0,0.0,0.0,0.0,0.0,0.0,0.0,0.0,0.0,0.0,0.0,0.0,-0.8911,-0.9265,-0.9499,-0.9842,-1.013,-1.0015,-0.9313,-0.8893,-0.7016,-0.3768,-0.2095,-0.0777,0.0,0.0,0.0,0.0,0.0,0.0,0.0,0.0,0.0,0.0,0.0,0.0,0.0,0.0,0.0,0.0,0.0,0.0,0.0,0.0,0.0,0.0,0.0,0.0,0.0,-0.1287,-0.1685,-0.1713,-0.1747,-0.1566,-0.1369,-0.1349,-0.3071,-0.4969,-0.7152,-0.9146,-1.0445,-1.0703,-1.1405,-1.2119,-1.2092,-1.1446,-1.0557,-0.9859,-0.8794,-0.7283,0.0,0.0,-0.2694,-0.0224,0.0,0.0,0.0,0.0,0.0,0.0,0.0,0.0,0.0,0.0,0.0,0.0,0.0,0.0,0.0,0.0,0.0,0.0,0.0,0.0,0.0,0.0,0.0,0.0,0.0,0.0,0.0,0.0,0.0,0.0,0.0,-0.0673,-0.1796,0.0,0.0,0.0,0.0,0.0,0.0,0.0,0.0,0.0,0.0,0.0,0.0,0.0,0.0,0.0,0.0,0.0,0.0,0.0,0.0,-0.8917,-0.8895,-0.9526,-0.9841,-1.0022,-1.0574,-1.0486,-0.9553,-0.826,-0.5587,-0.2014,-0.065,0.0,0.0,0.0,0.0,0.0,0.0,0.0,0.0,0.0,0.0,0.0,0.0,0.0,0.0,0.0,0.0,0.0,0.0,0.0,0.0,0.0,0.0,0.0,0.0,0.0,-0.0361,-0.2393,-0.3375,-0.3824,-0.3907,-0.2368,-0.0593,-0.0196,-0.1566,-0.3518,-0.5029,-0.704,-0.8526,-0.8994,-1.0639,-1.2181,-1.2487,-1.1671,0.0,0.0,0.0,-0.6813,-0.3984,-0.3125,-0.2021,-0.0224,0.0,0.0,0.0,0.0,0.0,0.0,0.0,0.0,0.0,0.0,0.0,0.0,0.0,0.0,0.0,0.0,0.0,0.0,0.0,0.0,0.0,0.0,0.0,0.0,0.0,0.0,0.0,0.0,0.0,0.0,0.0,0.0,-0.0224,0.0,0.0,0.0,0.0,0.0,0.0,0.0,0.0,0.0,0.0,0.0,0.0,0.0,0.0,0.0,0.0,0.0,0.0,0.0,0.0,-0.8897,-0.8947,-0.949,-1.0042,-1.0603,-1.1213,-1.0474,-0.8228,-0.669,-0.3897,-0.0168,-0.0,0.0,0.0,0.0,0.0,0.0,0.0,0.0,0.0,0.0,0.0,0.0,0.0,0.0,0.0,0.0,0.0,0.0,0.0,0.0,0.0,0.0,0.0,0.0,0.0,0.0,-0.0361,-0.2393,-0.4293,-0.5879,-0.6243,-0.4606,-0.2444,-0.0404,-0.1621,-0.3254,-0.3424,-0.4657,-0.6116,-0.7957,-0.9804,-1.1321,-1.1533,-1.0473,-0.9848,-0.9723,0.0,-0.6203,-0.3992,-0.1564,-0.0224,-0.0,0.0,0.0,0.0,0.0,0.0,0.0,0.0,0.0,0.0,0.0,0.0,0.0,0.0,0.0,0.0,0.0,0.0,0.0,0.0,0.0,0.0,0.0,0.0,0.0,0.0,0.0,0.0,0.0,0.0,0.0,0.0,0.0,-0.0224,0.0,0.0,0.0,0.0,0.0,0.0,0.0,0.0,0.0,0.0,0.0,0.0,0.0,0.0,0.0,0.0,0.0,0.0,0.0,-0.894,-0.8864,-0.8851,-0.9842,-1.06,-1.1212,-1.0847,-0.9819,-0.8458,-0.4289,-0.1384,0.0,0.0,0.0,0.0,0.0,0.0,0.0,0.0,0.0,0.0,0.0,0.0,0.0,0.0,0.0,0.0,0.0,0.0,0.0,0.0,0.0,0.0,0.0,0.0,0.0,0.0,0.0,-0.0365,-0.2435,-0.4371,-0.6177,-0.6156,-0.4675,-0.2678,-0.0408,-0.0616,-0.165,-0.2877,-0.3722,-0.479,-0.7539,-0.8957,-0.9972,-1.0691,-0.9607,-0.8548,-0.8845,-0.6392,-0.4406,-0.3544,-0.1341,0.0,0.0,0.0,0.0,0.0,0.0,0.0,0.0,0.0,0.0,0.0,0.0,0.0,0.0,0.0,0.0,0.0,0.0,0.0,0.0,0.0,0.0,0.0,0.0,0.0,0.0,0.0,0.0,0.0,0.0,0.0,0.0,0.0,0.0,-0.0,0.0,0.0,0.0,0.0,0.0,0.0,0.0,0.0,0.0,0.0,0.0,0.0,0.0,0.0,0.0,0.0,0.0,0.0,-0.894,-0.894,-0.8864,-0.8955,-0.9836,-1.0704,-1.1267,-0.9949,-0.8645,-0.76,-0.261,0.0,0.0,0.0,0.0,0.0,0.0,0.0,0.0,0.0,0.0,0.0,0.0,0.0,0.0,0.0,0.0,0.0,0.0,0.0,0.0,0.0,0.0,0.0,0.0,0.0,0.0,0.0,0.0,-0.0367,-0.1703,-0.346,-0.5266,-0.5215,-0.4301,-0.2696,-0.0413,0.0,-0.0419,-0.1884,-0.2524,-0.3598,-0.6187,-0.7353,-0.8089,0.0,-0.8336,-0.7697,-0.7965,-0.5289,-0.3082,-0.2436,-0.0894,0.0,0.0,0.0,0.0,0.0,0.0,0.0,0.0,0.0,0.0,0.0,0.0,0.0,0.0,0.0,0.0,0.0,0.0,0.0,0.0,0.0,0.0,0.0,0.0,0.0,0.0,0.0,0.0,0.0,0.0,0.0,0.0,0.0,0.0,0.0,0.0,0.0,0.0,0.0,0.0,0.0,0.0,0.0,0.0,0.0,0.0,0.0,0.0,0.0,0.0,0.0,0.0,0.0,-0.894,-0.894,-0.8904,-0.886,-0.9509,-1.0084,-1.069,-0.8547,-0.6854,-0.5639,-0.1922,0.0,0.0,0.0,0.0,0.0,0.0,0.0,0.0,0.0,0.0,0.0,0.0,0.0,0.0,0.0,0.0,0.0,0.0,0.0,0.0,0.0,0.0,0.0,0.0,0.0,0.0,0.0,0.0,0.0,0.0,-0.1537,-0.312,-0.3209,-0.3277,-0.2705,-0.042,0.0,0.0,0.0,-0.0853,-0.2137,-0.3232,-0.4779,-0.5915,-0.6856,-0.7085,-0.7085,-0.709,-0.4877,-0.2661,-0.0222,0.0,0.0,0.0,0.0,0.0,0.0,0.0,0.0,0.0,0.0,0.0,0.0,0.0,0.0,0.0,0.0,0.0,0.0,0.0,0.0,0.0,0.0,0.0,0.0,0.0,0.0,0.0,0.0,0.0,0.0,0.0,0.0,0.0,0.0,0.0,0.0,0.0,0.0,0.0,0.0,0.0,0.0,0.0,0.0,0.0,0.0,0.0,0.0,0.0,0.0,0.0,0.0,0.0,0.0,-0.894,-0.894,-0.8858,-0.8949,-0.9493,-1.0109,-1.0677,-0.7408,-0.445,-0.169,-0.0503,0.0,0.0,0.0,0.0,0.0,0.0,0.0,0.0,0.0,0.0,0.0,0.0,0.0,0.0,0.0,0.0,0.0,0.0,0.0,0.0,0.0,0.0,0.0,0.0,0.0,0.0,0.0,0.0,0.0,0.0,-0.0398,-0.1406,-0.289,-0.2087,-0.084,-0.0212,0.0,0.0,0.0,-0.0214,-0.0646,-0.1079,-0.284,0.0,-0.5537,-0.5758,-0.6219,-0.7153,-0.4895,-0.2444,-0.0223,0.0,0.0,0.0,0.0,0.0,0.0,0.0,0.0,0.0,0.0,0.0,0.0,0.0,0.0,0.0,0.0,0.0,0.0,0.0,0.0,0.0,0.0,0.0,0.0,0.0,0.0,0.0,0.0,0.0,0.0,0.0,0.0,0.0,0.0,0.0,0.0,0.0,0.0,0.0,0.0,0.0,0.0,0.0,0.0,0.0,0.0,-0.894,-0.894,0.0,0.0,0.0,0.0,0.0,0.0,-0.894,-0.8876,-0.8897,-0.8891,-0.9486,-0.9602,-0.9008,-0.5663,-0.2598,0.0,0.0,0.0,0.0,0.0,0.0,0.0,0.0,0.0,0.0,0.0,0.0,0.0,0.0,0.0,0.0,0.0,0.0,0.0,0.0,0.0,0.0,0.0,0.0,0.0,0.0,0.0,0.0,0.0,0.0,0.0,0.0,0.0,-0.0409,-0.1674,-0.1055,0.0,0.0,0.0,0.0,0.0,0.0,0.0,0.0,-0.1101,0.0,-0.3562,-0.4235,-0.4908,-0.5613,-0.3576,-0.1562,-0.0224,0.0,0.0,0.0,0.0,0.0,0.0,0.0,0.0,0.0,0.0,0.0,0.0,0.0,0.0,0.0,0.0,0.0,0.0,0.0,0.0,0.0,0.0,0.0,0.0,0.0,0.0,0.0,0.0,0.0,0.0,0.0,0.0,0.0,0.0,0.0,0.0,0.0,0.0,0.0,0.0,0.0,0.0,0.0,0.0,0.0,-0.894,-0.894,-0.894,0.0,0.0,0.0,-0.894,-0.894,-0.894,-0.894,-0.8957,-0.8869,-0.9013,-0.9464,-0.8598,-0.6414,-0.3672,-0.1574,0.0,0.0,0.0,0.0,0.0,0.0,0.0,0.0,0.0,0.0,0.0,0.0,0.0,0.0,0.0,0.0,0.0,0.0,0.0,0.0,0.0,0.0,0.0,0.0,0.0,0.0,0.0,0.0,0.0,0.0,0.0,0.0,0.0,0.0,0.0,0.0,0.0,0.0,0.0,0.0,0.0,0.0,0.0,0.0,0.0,-0.0445,-0.157,-0.247,-0.3369,-0.3369,-0.1347,0.0,0.0,0.0,0.0,0.0,0.0,0.0,0.0,0.0,0.0,0.0,0.0,0.0,0.0,0.0,0.0,0.0,0.0,0.0,0.0,0.0,0.0,0.0,0.0,0.0,0.0,0.0,0.0,0.0,0.0,0.0,0.0,0.0,0.0,0.0,0.0,0.0,0.0,0.0,0.0,0.0,0.0,0.0,0.0,0.0,0.0,-0.894,-0.894,-0.894,-0.894,-0.894,-0.894,0.0,-0.894,-0.894,-0.894,-0.894,-0.8957,-0.9104,-0.9613,-0.9069,-0.7601,-0.4818,-0.3147,-0.1509,0.0,0.0,0.0,0.0,0.0,0.0,0.0,0.0,0.0,0.0,0.0,0.0,0.0,0.0,0.0,0.0,0.0,0.0,0.0,0.0,0.0,0.0,0.0,0.0,0.0,0.0,0.0,0.0,0.0,0.0,0.0,0.0,0.0,0.0,0.0,0.0,0.0,0.0,0.0,0.0,0.0,0.0,0.0,0.0,0.0,-0.0,-0.0449,-0.0673,-0.0673,-0.0673,-0.0224,0.0,0.0,0.0,0.0,0.0,0.0,0.0,0.0,0.0,0.0,0.0,0.0,0.0,0.0,0.0,0.0,0.0,0.0,0.0,0.0,0.0,0.0,0.0,0.0,0.0,0.0,0.0,0.0,0.0,0.0,0.0,0.0,0.0,0.0,0.0,0.0,0.0,0.0,0.0,0.0,0.0,0.0,0.0,0.0,0.0,0.0,-0.894,-0.894,-0.894,-0.894,-0.894,-0.894,0.0,0.0,-0.894,-0.894,-0.894,-0.8957,-0.9198,-0.9827,-0.8324,-0.6545,-0.4343,-0.295,-0.1744,-0.0953,-0.098,-0.0721,0.0,0.0,0.0,0.0,0.0,0.0,0.0,0.0,0.0,0.0,0.0,0.0,0.0,0.0,0.0,0.0,0.0,0.0,0.0,0.0,0.0,0.0,0.0,0.0,0.0,0.0,0.0,0.0,0.0,0.0,0.0,0.0,0.0,0.0,0.0,0.0,0.0,0.0,0.0,0.0,0.0,0.0,0.0,0.0,0.0,0.0,0.0,0.0,0.0,0.0,0.0,0.0,0.0,0.0,0.0,0.0,0.0,0.0,0.0,0.0,0.0,0.0,0.0,0.0,0.0,0.0,0.0,0.0,0.0,0.0,0.0,0.0,0.0,0.0,0.0,0.0,0.0,0.0,0.0,0.0,0.0,0.0,0.0,0.0,0.0,0.0,0.0,0.0,0.0,0.0,0.0,0.0,0.0,0.0,0.0,-0.894,-0.894,-0.894,-0.894,-0.894,-0.894,0.0,0.0,0.0,-0.894,-0.8864,-0.9208,-0.9771,-0.7628,-0.5839,-0.4267,-0.2897,-0.2109,-0.2005,-0.2169,-0.1533,-0.0435,-0.0153,0.0,0.0,0.0,0.0,0.0,0.0,0.0,0.0,0.0,0.0,0.0,0.0,0.0,0.0,0.0,0.0,0.0,0.0,0.0,0.0,0.0,0.0,0.0,0.0,0.0,0.0,0.0,0.0,0.0,0.0,0.0,0.0,0.0,0.0,0.0,0.0,0.0,0.0,0.0,0.0,0.0,0.0,0.0,0.0,0.0,0.0,0.0,0.0,0.0,0.0,0.0,0.0,0.0,0.0,0.0,0.0,0.0,0.0,0.0,0.0,0.0,-0.0224,-0.0673,-0.0673,-0.0673,-0.0673,-0.0224,0.0,0.0,0.0,0.0,0.0,0.0,0.0,0.0,0.0,0.0,0.0,0.0,0.0,0.0,0.0,0.0,0.0,0.0,0.0,0.0,0.0,0.0,0.0,0.0,0.0,0.0,0.0,-0.894,-0.894,-0.894,-0.894,-0.894,-0.894,-0.894,-0.894,-0.894,0.0,0.0,-0.9761,-0.764,-0.5851,-0.4271,-0.2939,-0.2173,-0.1947,-0.2106,-0.2168,0.0,0.0,0.0,0.0,0.0,0.0,0.0,0.0,0.0,0.0,0.0,0.0,0.0,0.0,0.0,0.0,0.0,0.0,0.0,0.0,0.0,0.0,0.0,0.0,0.0,0.0,0.0,0.0,0.0,0.0,0.0,0.0,0.0,0.0,0.0,0.0,0.0,0.0,0.0,0.0,0.0,0.0,0.0,0.0,0.0,0.0,0.0,0.0,0.0,0.0,0.0,0.0,0.0,0.0,0.0,0.0,0.0,0.0,0.0,0.0,0.0,0.0,0.0,-0.0898,-0.3143,-0.3143,-0.3143,-0.3143,-0.0898,0.0,0.0,0.0,0.0,0.0,0.0,0.0,0.0,0.0,0.0,0.0,0.0,0.0,0.0,0.0,0.0,0.0,0.0,0.0,0.0,0.0,0.0,0.0,0.0,0.0,0.0,0.0,0.0,-0.894,-0.894,-0.894,-0.894,-0.894,-0.894,-0.894,-0.894,-0.8863,-0.9131,-0.9734,-0.8206,-0.6332,-0.4117,-0.2792,-0.2033,-0.2064,-0.2094,-0.2165,0.0,-0.0747,0.0,0.0,0.0,0.0,0.0,0.0,0.0,0.0,0.0,0.0,0.0,0.0,0.0,0.0,0.0,0.0,0.0,0.0,0.0,0.0,0.0,0.0,0.0,0.0,0.0,0.0,0.0,0.0,0.0,0.0,0.0,0.0,0.0,0.0,0.0,0.0,0.0,0.0,0.0,0.0,0.0,0.0,0.0,0.0,0.0,0.0,0.0,0.0,0.0,0.0,0.0,0.0,0.0,0.0,0.0,0.0,0.0,0.0,0.0,0.0,-0.1347,-0.247,-0.3594,-0.4942,-0.4938,-0.3589,-0.2467,-0.1347,0.0,0.0,0.0,0.0,0.0,0.0,0.0,0.0,0.0,0.0,0.0,0.0,0.0,0.0,0.0,0.0,0.0,0.0,0.0,0.0,0.0,0.0,0.0,0.0,0.0,0.0,0.0,-0.894,-0.894,0.0,0.0,0.0,-0.894,-0.8954,-0.8994,-0.9003,-0.9215,-0.9751,-0.864,-0.6791,-0.4452,-0.277,-0.2016,-0.2041,-0.1949,-0.2021,-0.2128,-0.0742,0.0,0.0,0.0,0.0,0.0,0.0,0.0,0.0,0.0,0.0,0.0,0.0,0.0,0.0,0.0,0.0,0.0,0.0,0.0,0.0,0.0,0.0,0.0,0.0,0.0,0.0,0.0,0.0,0.0,0.0,0.0,0.0,0.0,0.0,0.0,0.0,0.0,0.0,0.0,0.0,0.0,0.0,0.0,0.0,0.0,0.0,0.0,0.0,0.0,0.0,0.0,0.0,0.0,0.0,0.0,0.0,0.0,0.0,0.0,0.0,-0.2245,-0.3594,-0.3594,-0.5613,-0.5613,-0.3815,-0.3589,-0.2467,-0.0449,-0.0224,0.0,0.0,0.0,0.0,0.0,0.0,0.0,0.0,0.0,0.0,0.0,0.0,0.0,0.0,0.0,0.0,0.0,0.0,0.0,0.0,0.0,0.0,0.0,0.0,0.0,-0.894,-0.894,-0.894,-0.894,-0.894,-0.894,-0.8994,-0.9363,-0.9408,-0.9449,-0.9731,-0.8545,0.0,-0.5798,-0.3332,-0.1977,-0.1978,-0.2037,-0.2113,-0.2208,-0.0735,0.0,0.0,0.0,0.0,0.0,0.0,0.0,0.0,0.0,0.0,0.0,0.0,0.0,0.0,0.0,0.0,0.0,0.0,0.0,0.0,0.0,0.0,0.0,0.0,0.0,0.0,0.0,0.0,0.0,0.0,0.0,0.0,0.0,0.0,0.0,0.0,0.0,0.0,0.0,0.0,0.0,0.0,0.0,0.0,0.0,0.0,0.0,0.0,0.0,0.0,0.0,0.0,0.0,0.0,0.0,0.0,0.0,0.0,0.0,0.0,-0.2245,-0.3594,-0.3594,-0.4488,-0.4714,-0.4488,-0.3815,-0.2917,-0.1572,-0.0449,0.0,0.0,0.0,0.0,0.0,0.0,0.0,0.0,0.0,0.0,0.0,0.0,0.0,0.0,0.0,0.0,0.0,0.0,0.0,0.0,0.0,0.0,0.0,0.0,0.0,0.0,0.0,-0.8159,-0.8054,-0.8054,-0.8054,-0.8444,-0.927,-0.9422,-0.9339,-0.9248,-0.8418,-0.7261,-0.5912,-0.4189,-0.2342,-0.074,0.0,-0.1187,-0.2203,-0.0735,0.0,0.0,0.0,0.0,0.0,0.0,0.0,0.0,0.0,0.0,0.0,0.0,0.0,0.0,0.0,0.0,0.0,0.0,0.0,0.0,0.0,0.0,0.0,0.0,0.0,0.0,0.0,0.0,0.0,0.0,0.0,0.0,0.0,0.0,0.0,0.0,0.0,0.0,0.0,0.0,0.0,0.0,0.0,0.0,0.0,0.0,0.0,0.0,0.0,0.0,0.0,0.0,0.0,0.0,0.0,0.0,0.0,0.0,0.0,0.0,-0.1572,-0.3145,-0.4712,-0.4938,-0.5157,-0.5157,-0.4938,-0.3814,-0.1796,-0.0449,0.0,0.0,0.0,0.0,0.0,0.0,0.0,0.0,0.0,0.0,0.0,0.0,0.0,0.0,0.0,0.0,0.0,0.0,0.0,0.0,0.0,0.0,-0.7382,-0.7604,0.0,0.0,0.0,0.0,-0.7176,-0.7214,-0.7258,-0.7783,-0.8608,-0.8942,-0.894,-0.8714,-0.8071,-0.7138,-0.5916,-0.4192,-0.2219,0.0,0.0,-0.0528,-0.1377,-0.0439,0.0,0.0,0.0,0.0,0.0,0.0,0.0,0.0,0.0,0.0,0.0,0.0,0.0,0.0,0.0,0.0,0.0,0.0,0.0,0.0,0.0,0.0,0.0,0.0,0.0,0.0,0.0,0.0,0.0,0.0,0.0,0.0,0.0,0.0,0.0,0.0,0.0,0.0,0.0,0.0,0.0,0.0,0.0,0.0,0.0,0.0,0.0,0.0,0.0,0.0,0.0,0.0,0.0,0.0,0.0,0.0,0.0,-0.0673,-0.1122,-0.1122,-0.2245,-0.3814,-0.5613,-0.5383,-0.5383,-0.5607,-0.5387,-0.4264,-0.2245,-0.0673,0.0,0.0,0.0,0.0,0.0,0.0,0.0,0.0,0.0,0.0,0.0,0.0,0.0,0.0,0.0,0.0,0.0,0.0,0.0,0.0,-0.6614,0.0,-0.6497,-0.6274,0.0,0.0,0.0,0.0,0.0,-0.6303,-0.6633,-0.7087,-0.7557,-0.7931,-0.8108,-0.8349,-0.7622,-0.6771,-0.5916,-0.3328,-0.1356,0.0,0.0,0.0,0.0,0.0,0.0,0.0,0.0,0.0,0.0,0.0,0.0,0.0,0.0,0.0,0.0,0.0,0.0,0.0,0.0,0.0,0.0,0.0,0.0,0.0,0.0,0.0,0.0,0.0,0.0,0.0,0.0,0.0,0.0,0.0,0.0,0.0,0.0,0.0,0.0,0.0,0.0,0.0,0.0,0.0,0.0,0.0,0.0,0.0,0.0,0.0,0.0,0.0,0.0,-0.0,-0.0,-0.0,-0.0,-0.0,-0.0,-0.0,-0.0,-0.2245,-0.3594,-0.3594,-0.4488,-0.5387,-0.6057,-0.5607,-0.5607,-0.6057,-0.5613,-0.4712,-0.3594,-0.1122,0.0,0.0,0.0,0.0,0.0,0.0,0.0,0.0,0.0,0.0,0.0,0.0,0.0,-0.0,0.0,0.0,0.0,0.0,0.0,-0.4872,-0.5099,-0.5219,-0.5222,0.0,0.0,0.0,-0.4984,-0.5103,-0.4998,-0.4551,-0.4925,-0.5562,-0.6487,-0.6856,-0.7145,-0.725,-0.6644,-0.6158,-0.5925,-0.4195,-0.2221,0.0,0.0,0.0,0.0,0.0,0.0,0.0,0.0,0.0,0.0,0.0,0.0,0.0,0.0,0.0,0.0,0.0,0.0,0.0,0.0,0.0,0.0,0.0,0.0,0.0,0.0,0.0,0.0,0.0,0.0,0.0,0.0,0.0,0.0,0.0,0.0,0.0,0.0,0.0,0.0,0.0,0.0,0.0,0.0,0.0,0.0,0.0,0.0,0.0,0.0,0.0,0.0,0.0,0.0,-0.0673,-0.247,-0.2694,-0.2245,-0.1347,-0.1347,-0.1572,-0.2467,-0.3141,-0.4488,-0.6062,-0.6956,-0.7849,-0.8527,-0.7849,-0.7175,-0.6956,-0.4938,-0.3815,-0.3594,-0.1122,0.0,0.0,0.0,0.0,0.0,0.0,0.0,0.0,0.0,0.0,0.0,0.0,0.0,-0.0224,0.0,0.0,-0.1397,-0.2107,-0.2951,-0.369,-0.4193,-0.4321,-0.4082,0.0,0.0,0.0,-0.3837,-0.362,-0.3393,-0.3028,-0.3393,-0.4012,-0.4902,-0.549,-0.5738,-0.5908,-0.554,-0.5176,-0.4813,-0.42,-0.2841,-0.0864,-0.0255,0.0,0.0,0.0,0.0,0.0,0.0,0.0,0.0,0.0,0.0,0.0,0.0,0.0,0.0,0.0,0.0,0.0,0.0,0.0,0.0,0.0,0.0,0.0,0.0,0.0,0.0,0.0,0.0,0.0,0.0,0.0,0.0,0.0,0.0,0.0,0.0,0.0,0.0,0.0,0.0,0.0,0.0,0.0,0.0,0.0,0.0,0.0,0.0,0.0,0.0,0.0,-0.0902,-0.2479,-0.4942,-0.4718,-0.4264,-0.4039,-0.4039,-0.4488,-0.5831,-0.6057,-0.6732,-0.8076,-0.8967,-0.9407,-0.9418,-0.8744,-0.8067,-0.7183,-0.4264,-0.2692,-0.2021,-0.0673,0.0,0.0,0.0,0.0,0.0,0.0,0.0,0.0,0.0,0.0,0.0,0.0,0.0,-0.0449,0.0,0.0,-0.0357,-0.1453,-0.219,-0.2815,-0.3357,-0.3491,-0.3115,0.0,-0.2242,-0.2617,-0.2742,-0.2144,-0.1777,-0.1648,-0.2029,-0.2532,-0.3152,-0.3859,-0.4324,-0.4318,-0.4441,-0.4195,-0.3332,-0.3584,-0.309,-0.173,-0.0637,0.0,0.0,0.0,0.0,0.0,0.0,0.0,0.0,0.0,0.0,0.0,0.0,0.0,0.0,0.0,0.0,0.0,0.0,0.0,0.0,0.0,0.0,0.0,0.0,0.0,0.0,0.0,0.0,0.0,0.0,0.0,0.0,0.0,0.0,0.0,0.0,0.0,0.0,0.0,0.0,0.0,0.0,0.0,0.0,0.0,0.0,0.0,0.0,0.0,-0.0,-0.0455,-0.2496,-0.4755,-0.6969,-0.6288,-0.6281,-0.7183,-0.7407,-0.8076,-0.9202,-0.9645,-0.9862,-1.0085,-1.0751,-1.0516,-0.9411,-0.9411,-0.8741,-0.718,-0.3589,-0.1346,0.0,0.0,0.0,0.0,0.0,0.0,0.0,0.0,0.0,0.0,0.0,0.0,0.0,0.0,0.0,-0.0449,0.0,0.0,-0.0123,-0.0381,-0.0901,-0.1432,-0.1454,-0.1986,-0.1987,-0.1324,-0.1324,-0.1589,-0.212,-0.1991,-0.1588,-0.0392,-0.0392,-0.1035,-0.2148,-0.2894,-0.3498,-0.3951,-0.4074,-0.3951,-0.3833,-0.2843,-0.173,-0.037,-0.0127,0.0,0.0,0.0,0.0,0.0,0.0,0.0,0.0,0.0,0.0,0.0,0.0,0.0,0.0,0.0,0.0,0.0,0.0,0.0,0.0,0.0,0.0,0.0,0.0,0.0,0.0,0.0,0.0,0.0,0.0,0.0,0.0,0.0,0.0,0.0,0.0,0.0,0.0,0.0,0.0,0.0,0.0,0.0,0.0,0.0,0.0,0.0,0.0,0.0,-0.0681,-0.2705,-0.4951,-0.6525,-0.6281,-0.7183,-0.7849,-0.7843,-0.9184,-1.0077,-1.0301,-1.1416,-1.2084,-1.2747,-1.3192,-1.3192,-1.2534,-1.2084,-1.0289,-0.7166,-0.4485,-0.2019,0.0,0.0,0.0,0.0,0.0,0.0,0.0,0.0,0.0,0.0,0.0,0.0,0.0,0.0,0.0,-0.0449,0.0,0.0,0.0,0.0,-0.0268,-0.0547,-0.0554,-0.0833,-0.0835,-0.0561,-0.0561,-0.0561,-0.0982,-0.0988,-0.0705,-0.0,0.0,-0.0272,-0.0924,-0.169,-0.2178,-0.2399,-0.2777,-0.2896,-0.3001,-0.1624,-0.0622,0.0,0.0,0.0,0.0,0.0,0.0,0.0,0.0,0.0,0.0,0.0,0.0,0.0,0.0,0.0,0.0,0.0,0.0,0.0,0.0,0.0,0.0,0.0,0.0,0.0,0.0,0.0,0.0,0.0,0.0,0.0,0.0,0.0,0.0,0.0,0.0,0.0,0.0,0.0,0.0,0.0,0.0,0.0,0.0,0.0,0.0,0.0,0.0,-0.0442,-0.1568,-0.1815,-0.228,-0.3392,-0.542,-0.699,-0.7634,-0.8517,-0.9634,-1.0743,-1.1857,-1.2525,-1.2525,-1.3415,-1.4081,-1.4309,-1.5197,-1.4975,-1.387,-1.3642,-1.1634,-0.8293,-0.5601,-0.3363,-0.1796,-0.0449,0.0,0.0,0.0,0.0,0.0,0.0,0.0,0.0,0.0,0.0,0.0,0.0,0.0,-0.0449,0.0,0.0,0.0,0.0,0.0,0.0,0.0,0.0,0.0,0.0,0.0,0.0,0.0,0.0,0.0,0.0,0.0,0.0,0.0,-0.0544,-0.0798,-0.0784,-0.1304,-0.1552,-0.1657,-0.051,0.0,0.0,0.0,0.0,0.0,0.0,0.0,0.0,0.0,0.0,0.0,0.0,0.0,0.0,0.0,0.0,0.0,0.0,0.0,0.0,0.0,0.0,0.0,0.0,0.0,0.0,0.0,0.0,0.0,0.0,0.0,0.0,0.0,0.0,0.0,0.0,0.0,0.0,0.0,0.0,0.0,0.0,0.0,0.0,0.0,0.0,0.0,0.0,0.0,-0.065,-0.2862,-0.3594,-0.3859,-0.407,-0.5424,-0.7435,-0.9624,-1.0516,-1.1634,-1.3864,-1.4531,-1.4747,-1.4747,-1.5424,-1.564,-1.564,-1.6754,-1.6317,-1.4758,-1.4531,-1.2975,-0.9858,-0.6943,-0.4929,-0.3589,-0.1347,-0.0224,0.0,0.0,0.0,0.0,0.0,0.0,0.0,0.0,0.0,0.0,0.0,0.0,-0.0224,0.0,0.0,0.0,0.0,0.0,0.0,0.0,0.0,0.0,0.0,0.0,0.0,0.0,0.0,0.0,0.0,0.0,0.0,0.0,0.0,-0.014,-0.0137,-0.0135,-0.0266,-0.0262,-0.0131,0.0,0.0,0.0,0.0,0.0,0.0,0.0,0.0,0.0,0.0,0.0,0.0,0.0,0.0,0.0,0.0,0.0,0.0,0.0,0.0,0.0,0.0,0.0,0.0,0.0,0.0,0.0,0.0,0.0,0.0,0.0,0.0,0.0,0.0,0.0,0.0,0.0,0.0,0.0,0.0,0.0,0.0,0.0,0.0,0.0,0.0,0.0,0.0,0.0,-0.0428,-0.1731,-0.3693,-0.5031,-0.5541,-0.7104,-0.8658,-1.0404,-1.2916,-1.4969,-1.564,-1.6317,-1.6754,-1.6754,-1.7197,-1.7632,-1.7632,-1.7639,-1.7197,-1.5868,-1.5424,-1.3642,-1.0516,-0.9184,-0.6719,-0.3587,-0.2243,-0.1121,0.0,0.0,0.0,0.0,0.0,0.0,0.0,0.0,0.0,0.0,0.0,0.0,-0.0224,0.0,0.0,0.0,0.0,0.0,0.0,0.0,0.0,0.0,0.0,0.0,0.0,0.0,0.0,0.0,0.0,0.0,0.0,0.0,0.0,0.0,0.0,0.0,0.0,0.0,0.0,0.0,0.0,0.0,0.0,0.0,0.0,0.0,0.0,0.0,0.0,0.0,0.0,0.0,0.0,0.0,0.0,0.0,0.0,0.0,0.0,0.0,0.0,0.0,0.0,0.0,0.0,0.0,0.0,0.0,0.0,0.0,0.0,0.0,0.0,0.0,0.0,0.0,0.0,0.0,0.0,0.0,0.0,0.0,0.0,0.0,0.0,0.0,0.0,0.0,-0.0419,-0.1486,-0.2952,-0.4456,-0.5915,0.0,0.0,-1.2797,-1.5122,-1.6526,-1.719,-1.7424,-1.7424,-1.7424,-1.786,-1.786,-1.786,-1.786,-1.7418,-1.6089,-1.5862,-1.4309,-1.1634,-1.0516,-0.8507,-0.5603,-0.3811,-0.1794,0.0,0.0,0.0,0.0,0.0,0.0,0.0,0.0,0.0,0.0,0.0,-0.0898,-0.2245,0.0,0.0,0.0,0.0,0.0,0.0,0.0,0.0,0.0,0.0,0.0,0.0,0.0,0.0,0.0,0.0,0.0,0.0,0.0,0.0,0.0,0.0,0.0,0.0,0.0,0.0,0.0,0.0,0.0,0.0,0.0,0.0,0.0,0.0,0.0,0.0,0.0,0.0,0.0,0.0,0.0,0.0,0.0,0.0,0.0,0.0,0.0,0.0,0.0,0.0,0.0,0.0,0.0,0.0,0.0,0.0,0.0,0.0,0.0,0.0,0.0,0.0,0.0,0.0,0.0,0.0,0.0,0.0,0.0,0.0,0.0,0.0,0.0,0.0,0.0,-0.041,-0.1869,-0.2464,0.0,0.0,0.0,0.0,0.0,-1.6125,-1.7092,-1.7579,-1.7806,-1.7826,-1.786,-1.786,-1.786,-1.786,-1.786,-1.7418,-1.6089,-1.6089,-1.4986,-1.2762,-1.1634,-1.0074,-0.7843,-0.5377,-0.3137,-0.0897,-0.0224,0.0,0.0,0.0,0.0,0.0,0.0,0.0,-0.0,-0.0673,-0.2021,-0.3594,0.0,0.0,0.0,0.0,0.0,0.0,0.0,0.0,0.0,0.0,0.0,0.0,0.0,0.0,0.0,0.0,0.0,0.0,0.0,0.0,0.0,0.0,0.0,0.0,0.0,0.0,0.0,0.0,0.0,0.0,0.0,0.0,0.0,0.0,0.0,0.0,0.0,0.0,0.0,0.0,0.0,0.0,0.0,0.0,0.0,0.0,0.0,0.0,0.0,0.0,0.0,0.0,0.0,0.0,0.0,0.0,0.0,0.0,0.0,0.0,0.0,0.0,0.0,0.0,0.0,0.0,0.0,0.0,0.0,0.0,0.0,0.0,0.0,0.0,0.0,0.0,0.0,0.0,0.0,0.0,0.0,0.0,0.0,-1.5619,-1.6621,0.0,-1.7219,-1.7717,-1.786,-1.786,-1.786,-1.786,-1.786,-1.7418,-1.6089,-1.6089,-1.5197,-1.343,-1.2762,-1.142,-0.9627,-0.7166,-0.4929,-0.3363,-0.1121,0.0,0.0,0.0,0.0,0.0,0.0,0.0,-0.0224,-0.2694,-0.3594,-0.3594,0.0,0.0,0.0,0.0,0.0,0.0,0.0,0.0,0.0,0.0,0.0,0.0,0.0,0.0,0.0,0.0,0.0,0.0,0.0,0.0,0.0,0.0,0.0,0.0,0.0,0.0,0.0,0.0,0.0,0.0,0.0,0.0,0.0,0.0,0.0,0.0,0.0,0.0,0.0,0.0,0.0,0.0,0.0,0.0,0.0,0.0,0.0,0.0,0.0,0.0,0.0,0.0,0.0,0.0,0.0,0.0,0.0,0.0,0.0,0.0,0.0,0.0,0.0,0.0,0.0,0.0,0.0,0.0,0.0,0.0,0.0,0.0,0.0,0.0,0.0,-0.0399,0.0,0.0,0.0,0.0,0.0,0.0,0.0,0.0,0.0,0.0,-1.6717,0.0,-1.786,-1.786,-1.786,-1.786,-1.786,-1.7418,-1.6089,-1.6089,-1.5424,-1.4092,-1.343,-1.2312,-1.0966,-0.8507,-0.6274,-0.4259,-0.2467,-0.1347,-0.1122,-0.0224,0.0,0.0,0.0,0.0,-0.0224,-0.1796,-0.247,-0.2694,0.0,0.0,0.0,0.0,0.0,0.0,0.0,0.0,0.0,0.0,0.0,0.0,0.0,0.0,0.0,0.0,0.0,0.0,0.0,0.0,0.0,0.0,0.0,0.0,0.0,0.0,0.0,0.0,0.0,0.0,0.0,0.0,0.0,0.0,0.0,0.0,0.0,0.0,0.0,0.0,0.0,0.0,0.0,0.0,0.0,0.0,0.0,0.0,0.0,0.0,0.0,0.0,0.0,0.0,0.0,0.0,0.0,0.0,0.0,0.0,0.0,0.0,0.0,0.0,0.0,0.0,0.0,0.0,0.0,0.0,0.0,0.0,0.0,0.0,0.0,-0.0197,0.0,-0.2138,0.0,0.0,0.0,0.0,0.0,0.0,0.0,0.0,0.0,0.0,0.0,-1.7652,-1.7632,-1.786,-1.786,-1.7418,-1.6089,-1.6089,-1.543,-1.432,-1.387,-1.3202,-1.1871,-0.9411,-0.7169,-0.5157,-0.3589,-0.2692,-0.247,-0.1572,-0.0673,0.0,0.0,0.0,-0.0,-0.0898,-0.1796,-0.2694,0.0,0.0,0.0,0.0,0.0,0.0,0.0,0.0,0.0,0.0,0.0,0.0,0.0,0.0,0.0,0.0,0.0,0.0,0.0,0.0,0.0,0.0,0.0,0.0,0.0,0.0,0.0,0.0,0.0,0.0,0.0,0.0,0.0,0.0,0.0,0.0,0.0,0.0,0.0,0.0,0.0,0.0,0.0,0.0,0.0,0.0,0.0,0.0,0.0,0.0,0.0,0.0,0.0,0.0,0.0,0.0,0.0,0.0,0.0,0.0,0.0,0.0,0.0,0.0,0.0,0.0,0.0,0.0,0.0,0.0,0.0,0.0,0.0,0.0,0.0,0.0,0.0,0.0,0.0,0.0,0.0,0.0,0.0,0.0,0.0,0.0,0.0,0.0,0.0,-1.6969,-1.7197,-1.786,-1.786,-1.7418,-1.6096,-1.6096,-1.5652,-1.4325,-1.432,-1.3658,-1.2534,-1.0077,-0.7843,-0.605,-0.4259,-0.3589,-0.3594,-0.3594,-0.2245,-0.0224,-0.0,0.0,0.0,0.0,-0.1347,-0.3369,0.0,0.0,0.0,0.0,0.0,0.0,0.0,0.0,0.0,0.0,0.0,0.0,0.0,0.0,0.0,0.0,0.0,0.0,0.0,0.0,0.0,0.0,0.0,0.0,0.0,0.0,0.0,0.0,0.0,0.0,0.0,0.0,0.0,0.0,0.0,0.0,0.0,0.0,0.0,0.0,0.0,0.0,0.0,0.0,0.0,0.0,0.0,0.0,0.0,0.0,0.0,0.0,0.0,0.0,0.0,0.0,0.0,0.0,0.0,0.0,0.0,0.0,0.0,0.0,0.0,0.0,0.0,0.0,0.0,0.0,0.0,0.0,0.0,0.0,0.0,0.0,0.0,0.0,0.0,0.0,0.0,0.0,0.0,0.0,0.0,0.0,0.0,0.0,0.0,0.0,-1.7099,-1.786,-1.786,-1.7646,-1.676,-1.676,-1.6323,-1.5652,-1.5197,-1.4309,-1.3202,-1.0743,-0.8734,-0.6724,-0.4933,-0.4039,-0.3589,-0.3589,-0.3145,-0.247,-0.0673,0.0,0.0,0.0,-0.0449,-0.1122,0.0,0.0,0.0,0.0,0.0,0.0,0.0,0.0,0.0,0.0,0.0,0.0,0.0,0.0,0.0,0.0,0.0,0.0,0.0,0.0,0.0,0.0,0.0,0.0,0.0,0.0,0.0,0.0,0.0,0.0,0.0,0.0,0.0,0.0,0.0,0.0,0.0,0.0,0.0,0.0,0.0,0.0,0.0,0.0,0.0,0.0,0.0,0.0,0.0,0.0,0.0,0.0,0.0,0.0,0.0,0.0,0.0,0.0,0.0,0.0,0.0,0.0,0.0,0.0,0.0,0.0,0.0,0.0,0.0,0.0,0.0,0.0,0.0,0.0,0.0,0.0,0.0,0.0,0.0,0.0,0.0,0.0,0.0,0.0,0.0,0.0,0.0,0.0,0.0,0.0,-1.6801,-1.7772,-1.7826,-1.7652,-1.6988,-1.6988,-1.6754,-1.6089,-1.5862,-1.4986,-1.3658,-1.1634,-0.9624,-0.7401,-0.5607,-0.4488,-0.3589,-0.3589,-0.3589,-0.3369,-0.0898,0.0,0.0,0.0,0.0,-0.0224,0.0,0.0,0.0,0.0,0.0,0.0,0.0,0.0,0.0,0.0,0.0,0.0,0.0,0.0,0.0,0.0,0.0,0.0,0.0,0.0,0.0,0.0,0.0,0.0,0.0,0.0,0.0,0.0,0.0,0.0,0.0,0.0,0.0,0.0,0.0,0.0,0.0,0.0,0.0,0.0,0.0,0.0,0.0,0.0,0.0,0.0,0.0,0.0,0.0,0.0,0.0,0.0,0.0,0.0,0.0,0.0,0.0,0.0,0.0,0.0,0.0,0.0,0.0,0.0,0.0,0.0,0.0,0.0,0.0,0.0,0.0,0.0,0.0,0.0,0.0,0.0,0.0,0.0,0.0,0.0,0.0,0.0,0.0,0.0,0.0,0.0,0.0,0.0,0.0,0.0,0.0,-1.7425,-1.7792,-1.7652,-1.721,-1.721,-1.676,-1.6317,-1.6317,-1.5652,-1.4547,-1.2525,-1.0516,-0.829,-0.65,-0.4933,-0.3814,-0.3589,-0.3589,-0.3369,-0.0898,0.0,0.0,0.0,0.0,0.0,0.0,0.0,0.0,0.0,0.0,0.0,0.0,0.0,0.0,0.0,0.0,0.0,0.0,0.0,0.0,0.0,0.0,0.0,0.0,0.0,0.0,0.0,0.0,0.0,0.0,0.0,0.0,0.0,0.0,0.0,0.0,0.0,0.0,0.0,0.0,0.0,0.0,0.0,0.0,0.0,0.0,0.0,0.0,0.0,0.0,0.0,0.0,0.0,0.0,0.0,0.0,0.0,0.0,0.0,0.0,0.0,0.0,0.0,0.0,0.0,0.0,0.0,0.0,0.0,0.0,0.0,0.0,0.0,0.0,0.0,0.0,0.0,0.0,0.0,0.0,0.0,0.0,0.0,0.0,0.0,0.0,0.0,0.0,0.0,0.0,0.0,0.0,0.0,0.0,0.0,0.0,0.0,-1.7565,-1.786,0.0,-1.7639,-1.7639,-1.7652,-1.6988,-1.6545,-1.5652,-1.3415,-1.1407,-0.94,-0.7625,-0.6057,-0.4488,-0.3818,-0.3594,-0.3369,-0.0898,0.0,0.0,0.0,0.0,0.0,0.0,0.0,0.0,0.0,0.0,0.0,0.0,0.0,0.0,0.0,0.0,0.0,0.0,0.0,0.0,0.0,0.0,0.0,0.0,0.0,0.0,0.0,0.0,0.0,0.0,0.0,0.0,0.0,0.0,0.0,0.0,0.0,0.0,0.0,0.0,0.0,0.0,0.0,0.0,0.0,0.0,0.0,0.0,0.0,0.0,0.0,0.0,0.0,0.0,0.0,0.0,0.0,0.0,0.0,0.0,0.0,0.0,0.0,0.0,0.0,0.0,0.0,0.0,0.0,0.0,0.0,0.0,0.0,0.0,0.0,0.0,0.0,0.0,0.0,0.0,0.0,0.0,0.0,0.0,0.0,0.0,0.0,0.0,0.0,0.0,0.0,0.0,0.0,0.0,0.0,-1.5536,0.0,0.0,0.0,-1.786,0.0,-1.786,-1.786,-1.7652,-1.7197,-1.6545,-1.4309,-1.2298,-1.0077,-0.8517,-0.6732,-0.4712,-0.4043,-0.3594,-0.3369,-0.0898,0.0,0.0,0.0,0.0,0.0,0.0,0.0,0.0,0.0,0.0,0.0,0.0,0.0,0.0,0.0,0.0,0.0,0.0,0.0,0.0,0.0,0.0,0.0,0.0,0.0,0.0,0.0,0.0,0.0,0.0,0.0,0.0,0.0,0.0,0.0,0.0,0.0,0.0,0.0,0.0,0.0,0.0,0.0,0.0,0.0,0.0,0.0,0.0,0.0,0.0,0.0,0.0,0.0,0.0,0.0,0.0,0.0,0.0,0.0,0.0,0.0,0.0,0.0,0.0,0.0,0.0,0.0,0.0,0.0,0.0,0.0,0.0,0.0,0.0,0.0,0.0,0.0,0.0,0.0,0.0,0.0,0.0,0.0,0.0,0.0,0.0,0.0,0.0,0.0,0.0,0.0,0.0,0.0,-0.9824,0.0,0.0,0.0,0.0,-1.7826,-1.786,0.0,-1.786,-1.786,-1.786,-1.7652,-1.721,-1.5197,-1.3187,-1.0966,-0.9195,-0.6732,-0.3814,-0.3143,-0.2919,-0.2694,-0.0673,0.0,0.0,0.0,0.0,0.0,0.0,0.0,0.0,0.0,0.0,0.0,0.0,0.0,0.0,0.0,0.0,0.0,0.0,0.0,0.0,0.0,0.0,0.0,0.0,0.0,0.0,0.0,0.0,0.0,0.0,0.0,0.0,0.0,0.0,0.0,0.0,0.0,0.0,0.0,0.0,0.0,0.0,0.0,0.0,0.0,0.0,0.0,0.0,0.0,0.0,0.0,0.0,0.0,0.0,0.0,0.0,0.0,0.0,0.0,0.0,0.0,0.0,0.0,0.0,0.0,0.0,0.0,0.0,0.0,0.0,0.0,0.0,0.0,0.0,0.0,0.0,0.0,0.0,0.0,0.0,0.0,0.0,0.0,0.0,0.0,0.0,0.0,0.0,-0.0,0.0,0.0,-0.3444,0.0,0.0,0.0,0.0,-1.5705,0.0,-1.7738,-1.786,-1.786,-1.786,-1.786,-1.786,-1.786,-1.7639,-1.5424,-1.3642,-1.2298,-0.9862,-0.5607,-0.0449,-0.0449,-0.0449,-0.0224,-0.0,0.0,0.0,0.0,0.0,0.0,0.0,0.0,0.0,0.0,0.0,0.0,0.0,0.0,0.0,0.0,0.0,0.0,0.0,0.0,0.0,0.0,0.0,0.0,0.0,0.0,0.0,0.0,0.0,0.0,0.0,0.0,0.0,0.0,0.0,0.0,0.0,0.0,0.0,0.0,0.0,0.0,0.0,0.0,0.0,0.0,0.0,0.0,0.0,0.0,0.0,0.0,0.0,0.0,0.0,0.0,0.0,0.0,0.0,0.0,0.0,0.0,0.0,0.0,0.0,0.0,0.0,0.0,0.0,0.0,0.0,0.0,0.0,0.0,0.0,0.0,0.0,0.0,0.0,0.0,0.0,0.0,0.0,0.0,0.0,0.0,0.0,0.0,0.0,0.0,0.0,0.0,0.0,0.0,0.0,0.0,0.0,-1.5802,0.0,-1.7717,-1.786,-1.786,-1.786,-1.786,-1.786,-1.786,-1.786,-1.5413,-1.2975,-1.0308,-0.7175,-0.3589,0.0,0.0,0.0,0.0,0.0,0.0,0.0,0.0,0.0,0.0,0.0,0.0,0.0,0.0,0.0,0.0,0.0,0.0,0.0,0.0,0.0,0.0,0.0,0.0,0.0,0.0,0.0,0.0,0.0,0.0,0.0,0.0,0.0,0.0,0.0,0.0,0.0,0.0,0.0,0.0,0.0,0.0,0.0,0.0,0.0,0.0,0.0,0.0,0.0,0.0,0.0,0.0,0.0,0.0,0.0,0.0,0.0,0.0,0.0,0.0,0.0,0.0,0.0,0.0,0.0,0.0,0.0,0.0,0.0,0.0,0.0,0.0,0.0,0.0,0.0,0.0,0.0,0.0,0.0,0.0,0.0,0.0,0.0,0.0,0.0,0.0,0.0,0.0,0.0,0.0,0.0,0.0,0.0,0.0,0.0,0.0,0.0,0.0,0.0,0.0,0.0,0.0,0.0,0.0,-1.7424,-1.7646,-1.7646,-1.7424,-1.7424,-1.7424,-1.7197,-1.4531,-1.1643,-0.875,-0.5157,-0.2243,0.0,0.0,0.0,0.0,0.0,0.0,0.0,0.0,0.0,0.0,0.0,0.0,0.0,0.0,0.0,0.0,0.0,0.0,0.0,0.0,0.0,0.0,0.0,0.0,0.0,0.0,0.0,0.0,0.0,0.0,0.0,0.0,0.0,0.0,0.0,0.0,0.0,0.0,0.0,0.0,0.0,0.0,0.0,0.0,0.0,0.0,0.0,0.0,0.0,0.0,0.0,0.0,0.0,0.0,0.0,0.0,0.0,0.0,0.0,0.0,0.0,0.0,0.0,0.0,0.0,0.0,0.0,0.0,0.0,0.0,0.0,0.0,0.0,0.0,0.0,0.0,0.0,0.0,0.0,0.0,0.0,0.0,0.0,0.0,0.0,0.0,0.0,0.0,0.0,0.0,0.0,0.0,0.0,0.0,0.0,0.0,0.0,0.0,0.0,0.0,0.0,-1.395,-1.5821,0.0,-1.6096,-1.6754,-1.6754,-1.6089,-1.6089,-1.6089,-1.6089,-1.2298,-1.0077,-0.875,-0.5157,-0.2243,0.0,0.0,0.0,0.0,0.0,0.0,0.0,0.0,0.0,0.0,0.0,0.0,0.0,0.0,0.0,0.0,0.0,0.0,0.0,0.0,0.0,0.0,0.0,0.0,0.0,0.0,0.0,0.0,0.0,0.0,0.0,0.0,0.0,0.0,0.0,0.0,0.0,0.0,0.0,0.0,0.0,0.0,0.0,0.0,0.0,0.0,0.0,0.0,0.0,0.0,0.0,0.0,0.0,0.0,0.0,0.0,0.0,0.0,0.0,0.0,0.0,0.0,0.0,0.0,0.0,0.0,0.0,0.0,0.0,0.0,0.0,0.0,0.0,0.0,0.0,0.0,0.0,0.0,0.0,0.0,0.0,0.0,0.0,0.0,0.0,0.0,0.0,0.0,0.0,0.0,0.0,0.0,0.0,0.0,0.0,0.0,0.0,0.0,0.0,0.0,0.0,0.0,-1.3883,0.0,-1.4969,-1.4975,-1.4969,-1.4309,-1.4758,-1.4303,-1.2975,-1.0516,-0.8967,-0.7631,-0.4714,-0.2243,0.0,0.0,0.0,0.0,0.0,0.0,0.0,0.0,0.0,0.0,0.0,0.0,0.0,0.0,0.0,0.0,0.0,0.0,0.0,0.0,0.0,0.0,0.0,0.0,0.0,0.0,0.0,0.0,0.0,0.0,0.0,0.0,0.0,0.0,0.0,0.0,0.0,0.0,0.0,0.0,0.0,0.0,0.0,0.0,0.0,0.0,0.0,0.0,0.0,0.0,0.0,0.0,0.0,0.0,0.0,0.0,0.0,0.0,0.0,0.0,0.0,0.0,0.0,0.0,0.0,0.0,0.0,0.0,0.0,0.0,0.0,0.0,0.0,0.0,0.0,0.0,0.0,0.0,0.0,0.0,0.0,0.0,0.0,0.0,0.0,0.0,0.0,0.0,0.0,0.0,0.0,0.0,0.0,0.0,-0.0216,0.0,0.0,0.0,0.0,0.0,0.0,-1.016,-1.1519,-1.2237,-1.2298,-1.2747,-1.2525,-1.1857,-1.2075,-1.1634,-1.0301,-0.8957,-0.7849,-0.6956,-0.4712,-0.2245,0.0,0.0,0.0,0.0,0.0,0.0,0.0,0.0,0.0,0.0,0.0,0.0,0.0,0.0,0.0,0.0,0.0,0.0,0.0,0.0,0.0,0.0,0.0,0.0,0.0,0.0,0.0,0.0,0.0,0.0,0.0,0.0,0.0,0.0,0.0,0.0,0.0,0.0,0.0,0.0,0.0,0.0,0.0,0.0,0.0,0.0,0.0,0.0,0.0,0.0,0.0,0.0,0.0,0.0,0.0,0.0,0.0,0.0,0.0,0.0,0.0,0.0,0.0,0.0,0.0,0.0,0.0,0.0,0.0,0.0,0.0,0.0,0.0,0.0,0.0,0.0,0.0,0.0,0.0,0.0,0.0,0.0,0.0,0.0,0.0,0.0,0.0,0.0,0.0,0.0,0.0,0.0,0.0,0.0,0.0,0.0,0.0,0.0,0.0,0.0,-0.5876,-0.6861,-0.9139,-0.985,-0.8961,-1.0074,-0.985,-0.8957,-0.8734,-0.8517,-0.8067,-0.7398,-0.7175,-0.6956,-0.4712,-0.2245,0.0,0.0,0.0,0.0,0.0,0.0,0.0,0.0,0.0,0.0,0.0,0.0,0.0,0.0,0.0,0.0,0.0,0.0,0.0,0.0,0.0,0.0,0.0,0.0,0.0,0.0,0.0,0.0,0.0,0.0,0.0,0.0,0.0,0.0,0.0,0.0,0.0,0.0,0.0,0.0,0.0,0.0,0.0,0.0,0.0,0.0,0.0,0.0,0.0,0.0,0.0,0.0,0.0,0.0,0.0,0.0,0.0,0.0,0.0,0.0,0.0,0.0,0.0,0.0,0.0,0.0,0.0,0.0,0.0,0.0,0.0,0.0,0.0,0.0,0.0,0.0,0.0,0.0,0.0,0.0,0.0,0.0,0.0,0.0,0.0,0.0,0.0,0.0,0.0,0.0,0.0,0.0,0.0,0.0,0.0,0.0,0.0,-0.1103,-0.1547,-0.2204,-0.354,-0.5809,-0.6269,-0.7398,-0.8978,-0.8293,-0.7843,-0.7625,-0.6732,-0.6732,-0.7407,-0.6281,-0.6288,-0.6964,-0.4718,-0.2245,0.0,0.0,0.0,0.0,0.0,0.0,0.0,0.0,0.0,0.0,0.0,0.0,0.0,0.0,0.0,0.0,0.0,0.0,0.0,0.0,0.0,0.0,0.0,0.0,0.0,0.0,0.0,0.0,0.0,0.0,0.0,0.0,0.0,0.0,0.0,0.0,0.0,0.0,0.0,0.0,0.0,0.0,0.0,0.0,0.0,0.0,0.0,0.0,0.0,0.0,0.0,0.0,0.0,0.0,0.0,0.0,0.0,0.0,0.0,0.0,0.0,0.0,0.0,0.0,0.0,0.0,0.0,0.0,0.0,0.0,0.0,0.0,0.0,0.0,0.0,0.0,0.0,0.0,0.0,0.0,0.0,0.0,0.0,0.0,0.0,0.0,0.0,0.0,0.0,0.0,0.0,0.0,0.0,0.0,0.0,0.0,0.0,-0.0222,-0.0892,-0.0888,-0.1781,-0.3589,-0.3814,-0.4485,-0.5607,-0.5157,-0.4709,-0.4709,-0.4039,-0.4039,-0.4712,-0.4712,-0.4938,-0.5387,-0.2919,-0.1122,0.0,0.0,0.0,0.0,0.0,0.0,0.0,0.0,0.0,0.0,0.0,0.0,0.0,0.0,0.0,0.0,0.0,0.0,0.0,0.0,0.0,0.0,0.0,0.0,0.0,0.0,0.0,0.0,0.0,0.0,0.0,0.0,0.0,0.0,0.0,0.0,0.0,0.0,0.0,0.0,0.0,0.0,0.0,0.0,0.0,0.0,0.0,0.0,0.0,0.0,0.0,0.0,0.0,0.0,0.0,0.0,0.0,0.0,0.0,0.0,0.0,0.0,0.0,0.0,0.0,0.0,0.0,0.0,0.0,0.0,0.0,0.0,0.0,0.0,0.0,0.0,0.0,0.0,0.0,0.0,0.0,0.0,0.0,0.0,0.0,0.0,0.0,0.0,0.0,0.0,0.0,0.0,0.0,0.0,0.0,0.0,0.0,0.0,0.0,0.0,-0.0445,-0.1572,-0.157,-0.157,-0.1572,-0.1572,-0.1572,-0.1572,-0.1572,-0.1572,-0.1572,-0.2694,-0.3143,-0.2919,-0.0898,0.0,0.0,0.0,0.0,0.0,0.0,0.0,0.0,0.0,0.0,0.0,0.0,0.0,0.0,0.0,0.0,0.0,0.0,0.0,0.0,0.0,0.0,0.0,0.0,0.0,0.0,0.0,0.0,0.0,0.0,0.0,0.0,0.0,0.0,0.0,0.0,0.0,0.0,0.0,0.0,0.0,0.0,0.0,0.0,0.0,0.0,0.0,0.0,0.0,0.0,0.0,0.0,0.0,0.0,0.0,0.0,0.0,0.0,0.0,0.0,0.0,0.0,0.0,0.0,0.0,0.0,0.0,0.0,0.0,0.0,0.0,0.0,0.0,0.0,0.0,0.0,0.0,0.0,0.0,0.0,0.0,0.0,0.0,0.0,0.0,0.0,0.0,0.0,0.0,0.0,0.0,0.0,0.0,0.0,0.0,0.0,0.0,0.0,0.0,0.0,0.0,-0.0,-0.0224,-0.0224,-0.0224,-0.0224,-0.0224,-0.0224,-0.0224,-0.0224,-0.0224,-0.0224,-0.0449,-0.0449,-0.0449,-0.0224,0.0,0.0,0.0,0.0,0.0,0.0,0.0,0.0,0.0,0.0,0.0,0.0,0.0,0.0,0.0,0.0,0.0,0.0,0.0,0.0,0.0,0.0,0.0,0.0,0.0,0.0,0.0,0.0,0.0,0.0,0.0,0.0,0.0,0.0,0.0,0.0,0.0,0.0,0.0,0.0,0.0,0.0,0.0,0.0,0.0,0.0,0.0,0.0,0.0,0.0,0.0,0.0,0.0,0.0,0.0,0.0,0.0,0.0,0.0,0.0,0.0,0.0,0.0,0.0,0.0,0.0,0.0,0.0,0.0,0.0,0.0,0.0,0.0,0.0,0.0,0.0,0.0,0.0,0.0,0.0,0.0,0.0,0.0,0.0,0.0,0.0,0.0,0.0,0.0,0.0,0.0,0.0,0.0,0.0,0.0,0.0,0.0,0.0,0.0,0.0,0.0,0.0,0.0,0.0,0.0,0.0,0.0,-0.0673,-0.2021,-0.2021,-0.1572,-0.0898,-0.0898,-0.0673,0.0,0.0,0.0,0.0,0.0,0.0,0.0,0.0,0.0,0.0,0.0,0.0,0.0,0.0,0.0,0.0,0.0,0.0,0.0,0.0,0.0,0.0,0.0,0.0,0.0,0.0,0.0,0.0,0.0,0.0,0.0,0.0,0.0,0.0,0.0,0.0,0.0,0.0,0.0,0.0,0.0,0.0,0.0,0.0,0.0,0.0,0.0,0.0,0.0,0.0,0.0,0.0,0.0,0.0,0.0,0.0,0.0,0.0,0.0,0.0,0.0,0.0,0.0,0.0,0.0,0.0,0.0,0.0,0.0,0.0,0.0,0.0,0.0,0.0,0.0,0.0,0.0,0.0,0.0,0.0,0.0,0.0,0.0,0.0,0.0,0.0,0.0,0.0,0.0,0.0,0.0,0.0,0.0,0.0,0.0,0.0,0.0,0.0,0.0,0.0,0.0,0.0,0.0,0.0,0.0,0.0,0.0,0.0,-0.0449,-0.2021,-0.4493,-0.4493,-0.3818,-0.2694,-0.2245,-0.1796,-0.0898,-0.0224,0.0,0.0,0.0,0.0,0.0,0.0,0.0,0.0,0.0,0.0,0.0,0.0,0.0,0.0,0.0,0.0,0.0,0.0,0.0,0.0,0.0,0.0,0.0,0.0,0.0,0.0,0.0,0.0,0.0,0.0,0.0,0.0,0.0,0.0,0.0,0.0,0.0,0.0,0.0,0.0,0.0,0.0,0.0,0.0,0.0,0.0,0.0,0.0,0.0,0.0,0.0,0.0,0.0,0.0,0.0,0.0,0.0,0.0,0.0,0.0,0.0,0.0,0.0,0.0,0.0,0.0,0.0,0.0,0.0,0.0,0.0,0.0,0.0,0.0,0.0,0.0,0.0,0.0,0.0,0.0,0.0,0.0,0.0,0.0,0.0,0.0,0.0,0.0,0.0,0.0,0.0,0.0,0.0,0.0,0.0,0.0,0.0,0.0,0.0,0.0,0.0,0.0,0.0,0.0,0.0,0.0,-0.2245,-0.4493,-0.6964,-0.6956,-0.6281,-0.5163,-0.4035,-0.3363,-0.3141,-0.0898,0.0,0.0,0.0,0.0,0.0,0.0,0.0,0.0,0.0,0.0,0.0,0.0,0.0,0.0,0.0,0.0,0.0,0.0,0.0,0.0,0.0,0.0,0.0,0.0,0.0,0.0,0.0,0.0,0.0,0.0,0.0,0.0,0.0,0.0,0.0,0.0,0.0,0.0,0.0,0.0,0.0,0.0,0.0,0.0,0.0,0.0,0.0,0.0,0.0,0.0,0.0,0.0,0.0,0.0,0.0,0.0,0.0,0.0,0.0,0.0,0.0,0.0,0.0,0.0,0.0,0.0,0.0,0.0,0.0,0.0,0.0,0.0,0.0,0.0,0.0,0.0,0.0,0.0,0.0,0.0,0.0,0.0,0.0,0.0,0.0,0.0,0.0,0.0,0.0,0.0,0.0,0.0,0.0,0.0,0.0,0.0,0.0,0.0,0.0,0.0,0.0,0.0,0.0,0.0,0.0,0.0,-0.247,-0.4714,-0.7183,-0.7183,-0.7175,-0.6951,-0.6274,-0.4929,-0.3587,-0.1794,-0.0673,0.0,0.0,0.0,0.0,0.0,0.0,0.0,0.0,0.0,0.0,0.0,0.0,0.0,0.0,0.0,0.0,0.0,0.0,0.0,0.0,0.0,0.0,0.0,0.0,0.0,0.0,0.0,0.0,0.0,0.0,0.0,0.0,0.0,0.0,0.0,0.0,0.0,0.0,0.0,0.0,0.0,0.0,0.0,0.0,0.0,0.0,0.0,0.0,0.0,0.0,0.0,0.0,0.0,0.0,0.0,0.0,0.0,0.0,0.0,0.0,0.0,0.0,0.0,0.0,0.0,0.0,0.0,0.0,0.0,0.0,0.0,0.0,0.0,0.0,0.0,0.0,0.0,0.0,0.0,0.0,0.0,0.0,0.0,0.0,0.0,0.0,0.0,0.0,0.0,0.0,0.0,0.0,0.0,0.0,0.0,0.0,0.0,0.0,0.0,0.0,0.0,0.0,0.0,0.0,0.0,-0.2021,-0.4264,-0.6732,-0.7175,-0.7843,-0.8293,-0.8067,-0.6719,-0.4256,-0.2913,-0.157,0.0,0.0,0.0,0.0,0.0,0.0,0.0,0.0,0.0,0.0,0.0,0.0,0.0,0.0,0.0,0.0,0.0,0.0,0.0,0.0,0.0,0.0,0.0,0.0,0.0,0.0,0.0,0.0,0.0,0.0,0.0,0.0,0.0,0.0,0.0,0.0,0.0,0.0,0.0,0.0,0.0,0.0,0.0,0.0,0.0,0.0,0.0,0.0,0.0,0.0,0.0,0.0,0.0,0.0,0.0,0.0,0.0,0.0,0.0,0.0,0.0,0.0,0.0,0.0,0.0,0.0,0.0,0.0,0.0,0.0,0.0,0.0,0.0,0.0,0.0,0.0,0.0,0.0,0.0,0.0,0.0,0.0,0.0,0.0,0.0,0.0,0.0,0.0,0.0,0.0,0.0,0.0,0.0,0.0,0.0,0.0,0.0,0.0,0.0,0.0,0.0,0.0,0.0,0.0,0.0,-0.1122,-0.2919,-0.5387,-0.7175,-0.8517,-0.8967,-0.9634,-0.8507,-0.605,-0.4259,-0.2243,-0.0,-0.0,0.0,0.0,0.0,0.0,0.0,0.0,0.0,0.0,0.0,0.0,0.0,0.0,0.0,0.0,0.0,0.0,0.0,0.0,0.0,0.0,0.0,0.0,0.0,0.0,0.0,0.0,0.0,0.0,0.0,0.0,0.0,0.0,0.0,0.0,0.0,0.0,0.0,0.0,0.0,0.0,0.0,0.0,0.0,0.0,0.0,0.0,0.0,0.0,0.0,0.0,0.0,0.0,0.0,0.0,0.0,0.0,0.0,0.0,0.0,0.0,0.0,0.0,0.0,0.0,0.0,0.0,0.0,0.0,0.0,0.0,0.0,0.0,0.0,0.0,0.0,0.0,0.0,0.0,0.0,0.0,0.0,0.0,0.0,0.0,0.0,0.0,0.0,0.0,0.0,0.0,0.0,0.0,0.0,0.0,0.0,0.0,0.0,0.0,0.0,0.0,0.0,0.0,0.0,-0.1122,-0.2692,-0.4259,-0.6724,-0.8734,-1.0301,-1.0524,-0.985,-0.851,-0.605,-0.3587,-0.1121,-0.0449,0.0,0.0,0.0,0.0,0.0,0.0,0.0,0.0,0.0,0.0,0.0,0.0,0.0,0.0,0.0,0.0,0.0,0.0,0.0,0.0,0.0,0.0,0.0,0.0,0.0,0.0,0.0,0.0,0.0,0.0,0.0,0.0,0.0,0.0,0.0,0.0,0.0,0.0,0.0,0.0,0.0,0.0,0.0,0.0,0.0,0.0,0.0,0.0,0.0,0.0,0.0,0.0,0.0,0.0,0.0,0.0,0.0,0.0,0.0,0.0,0.0,0.0,0.0,0.0,0.0,0.0,0.0,0.0,0.0,0.0,0.0,0.0,0.0,0.0,0.0,0.0,0.0,0.0,0.0,0.0,0.0,0.0,0.0,0.0,0.0,0.0,0.0,0.0,0.0,0.0,0.0,0.0,0.0,0.0,0.0,0.0,0.0,0.0,0.0,0.0,0.0,0.0,0.0,-0.0673,-0.2019,-0.3587,-0.5377,-0.7616,-0.985,-1.0074,-0.9634,-0.8734,-0.7398,-0.4938,-0.1794,-0.0449,0.0,0.0,0.0,0.0,0.0,0.0,0.0,0.0,0.0,0.0,0.0,0.0,0.0,0.0,0.0,0.0,0.0,0.0,0.0,0.0,0.0,0.0,0.0,0.0,0.0,0.0,0.0,0.0,0.0,0.0,0.0,0.0,0.0,0.0,0.0,0.0,0.0,0.0,0.0,0.0,0.0,0.0,0.0,0.0,0.0,0.0,0.0,0.0,0.0,0.0,0.0,0.0,0.0,0.0,0.0,0.0,0.0,0.0,0.0,0.0,0.0,0.0,0.0,0.0,0.0,0.0,0.0,0.0,0.0,0.0,0.0,0.0,0.0,0.0,0.0,0.0,0.0,0.0,0.0,0.0,0.0,0.0,0.0,0.0,0.0,0.0,0.0,0.0,0.0,0.0,0.0,0.0,0.0,0.0,0.0,0.0,0.0,0.0,0.0,0.0,0.0,0.0,0.0,0.0,-0.1122,-0.3365,-0.3363,-0.5153,-0.8067,-0.851,-0.8284,-0.7169,-0.83,-0.6286,-0.1796,-0.0449,0.0,0.0,0.0,0.0,0.0,0.0,0.0,0.0,0.0,0.0,0.0,0.0,0.0,0.0,0.0,0.0,0.0,0.0,0.0,0.0,0.0,0.0,0.0,0.0,0.0,0.0,0.0,0.0,0.0,0.0,0.0,0.0,0.0,0.0,0.0,0.0,0.0,0.0,0.0,0.0,0.0,0.0,0.0,0.0,0.0,0.0,0.0,0.0,0.0,0.0,0.0,0.0,0.0,0.0,0.0,0.0,0.0,0.0,0.0,0.0,0.0,0.0,0.0,0.0,0.0,0.0,0.0,0.0,0.0,0.0,0.0,0.0,0.0,0.0,0.0,0.0,0.0,0.0,0.0,0.0,0.0,0.0,0.0,0.0,0.0,0.0,0.0,0.0,0.0,0.0,0.0,0.0,0.0,0.0,0.0,0.0,0.0,0.0,0.0,0.0,0.0,0.0,0.0,0.0,-0.0224,-0.0898,-0.2017,-0.3359,-0.4703,-0.6724,-0.7393,-0.7166,-0.7401,-0.5831,-0.3141,-0.0898,0.0,0.0,0.0,0.0,0.0,0.0,0.0,0.0,0.0,0.0,0.0,0.0,0.0,0.0,0.0,0.0,0.0,0.0,0.0,0.0,0.0,0.0,0.0,0.0,0.0,0.0,0.0,0.0,0.0,0.0,0.0,0.0,0.0,0.0,0.0,0.0,0.0,0.0,0.0,0.0,0.0,0.0,0.0,0.0,0.0,0.0,0.0,0.0,0.0,0.0,0.0,0.0,0.0,0.0,0.0,0.0,0.0,0.0,0.0,0.0,0.0,0.0,0.0,0.0,0.0,0.0,0.0,0.0,0.0,0.0,0.0,0.0,0.0,0.0,0.0,0.0,0.0,0.0,0.0,0.0,0.0,0.0,0.0,0.0,0.0,0.0,0.0,0.0,0.0,0.0,0.0,0.0,0.0,0.0,0.0,0.0,0.0,0.0,0.0,0.0,0.0,0.0,0.0,0.0,0.0,-0.0,-0.0897,-0.2019,-0.3587,-0.4933,-0.5831,-0.6277,-0.6956,-0.5838,-0.3369,-0.0898,0.0,0.0,0.0,0.0,0.0,0.0,0.0,0.0,0.0,0.0,0.0,0.0,0.0,0.0,0.0,0.0,0.0,0.0,0.0,0.0,0.0,0.0,0.0,0.0,0.0,0.0,0.0,0.0,0.0,0.0,0.0,0.0,0.0,0.0,0.0,0.0,0.0,0.0,0.0,0.0,0.0,0.0,0.0,0.0,0.0,0.0,0.0,0.0,0.0,0.0,0.0,0.0,0.0,0.0,0.0,0.0,0.0,0.0,0.0,0.0,0.0,0.0,0.0,0.0,0.0,0.0,0.0,0.0,0.0,0.0,0.0,0.0,0.0,0.0,0.0,0.0,0.0,0.0,0.0,0.0,0.0,0.0,0.0,0.0,0.0,0.0,0.0,0.0,0.0,0.0,0.0,0.0,0.0,0.0,0.0,0.0,0.0,0.0,0.0,0.0,0.0,0.0,0.0,0.0,0.0,0.0,0.0,-0.1122,-0.2917,-0.3141,-0.3815,-0.4938,-0.6062,-0.5387,-0.3369,-0.0898,0.0,0.0,0.0,0.0,0.0,0.0,0.0,0.0,0.0,0.0,0.0,0.0,0.0,0.0,0.0,0.0,0.0,0.0,0.0,0.0,0.0,0.0,0.0,0.0,0.0,0.0,0.0,0.0,0.0,0.0,0.0,0.0,0.0,0.0,0.0,0.0,0.0,0.0,0.0,0.0,0.0,0.0,0.0,0.0,0.0,0.0,0.0,0.0,0.0,0.0,0.0,0.0,0.0,0.0,0.0,0.0,0.0,0.0,0.0,0.0,0.0,0.0,0.0,0.0,0.0,0.0,0.0,0.0,0.0,0.0,0.0,0.0,0.0,0.0,0.0,0.0,0.0,0.0,0.0,0.0,0.0,0.0,0.0,0.0,0.0,0.0,0.0,0.0,0.0,0.0,0.0,0.0,0.0,0.0,0.0,0.0,0.0,0.0,0.0,0.0,0.0,0.0,0.0,0.0,0.0,0.0,0.0,-0.0224,-0.0449,-0.1572,-0.2021,-0.2245,-0.3594,-0.3818,-0.3369,-0.0898,0.0,0.0,0.0,0.0,0.0,0.0,0.0,0.0,0.0,0.0,0.0,0.0,0.0,0.0,0.0,0.0,0.0,0.0,0.0,0.0,0.0,0.0,0.0,0.0,0.0,0.0,0.0,0.0,0.0,0.0,0.0,0.0,0.0,0.0,0.0,0.0,0.0,0.0,0.0,0.0,0.0,0.0,0.0,0.0,0.0,0.0,0.0,0.0,0.0,0.0,0.0,0.0,0.0,0.0,0.0,0.0,0.0,0.0,0.0,0.0,0.0,0.0,0.0,0.0,0.0,0.0,0.0,0.0,0.0,0.0,0.0,0.0,0.0,0.0,0.0,0.0,0.0,0.0,0.0,0.0,0.0,0.0,0.0,0.0,0.0,0.0,0.0,0.0,0.0,0.0,0.0,0.0,0.0,0.0,0.0,0.0,0.0,0.0,0.0,0.0,0.0,0.0,0.0,0.0,0.0,0.0,0.0,0.0,-0.0,-0.0449,-0.0898,-0.0898,-0.1347,-0.1572,-0.1572,-0.0447,0.0,0.0,0.0,0.0,0.0,0.0,0.0,0.0]}]]